[[{"header":{"parameterUnit":"m.s-1","parameterCategory":1,"la1":30.6,"la2":29.2853,"lo1":-89.7004,"lo2":-87.6739,"dy":0.0162,"dx":0.0183,"nx":112,"ny":82,"refTime":"2024-07-23T06:00:00:Z","depth":0,"parameterNumber":2,"parameterNumberName":"U-component_of_WINDS"},"data":[0.0,0.0,0.0,0.0,0.0,0.0,0.0,0.0,0.0,0.0,0.0,0.0,0.0,0.0,0.0,0.0,0.0,0.0,0.0,0.0,0.0,0.0,0.0,0.0,0.0,0.0,0.0,0.0,0.0,0.0,0.0,0.0,0.0,0.0,0.0,0.0,0.0,0.0,0.0,0.0,0.0,0.0,0.0,0.0,0.0,0.0,0.0,0.0,0.0,0.0,0.0,0.0,0.0,0.0,0.0,0.0,0.0,0.0,0.0,0.0,0.0,0.0,0.0,0.0,0.0,0.0,0.0,0.0,0.0,0.0,0.0,0.0,0.0,0.0,0.0,0.0,0.0,0.0,0.0,0.0,0.0,0.0,0.0,0.0,0.0,0.0,0.0,0.0,0.0,0.0,0.0,-2.6409,-2.5731,-2.5308,-2.5308,-2.5308,-2.5308,-2.5308,0.0,0.0,0.0,0.0,0.0,0.0,0.0,0.0,0.0,0.0,0.0,0.0,0.0,0.0,0.0,0.0,0.0,0.0,0.0,0.0,0.0,0.0,0.0,0.0,0.0,0.0,0.0,0.0,0.0,0.0,0.0,0.0,0.0,0.0,0.0,0.0,0.0,0.0,0.0,0.0,0.0,0.0,0.0,0.0,0.0,0.0,0.0,0.0,0.0,0.0,0.0,0.0,0.0,0.0,0.0,0.0,0.0,0.0,0.0,0.0,0.0,0.0,0.0,0.0,0.0,0.0,0.0,0.0,0.0,0.0,0.0,0.0,0.0,0.0,0.0,0.0,0.0,0.0,0.0,0.0,0.0,0.0,0.0,0.0,0.0,0.0,0.0,0.0,0.0,0.0,0.0,0.0,0.0,0.0,0.0,0.0,0.0,0.0,0.0,0.0,0.0,0.0,0.0,0.0,-2.55,-2.55,-2.5385,-2.5308,-2.5308,-2.5308,-2.5308,-2.5308,0.0,0.0,0.0,0.0,0.0,0.0,0.0,0.0,0.0,0.0,0.0,0.0,0.0,0.0,0.0,0.0,0.0,0.0,0.0,0.0,0.0,0.0,0.0,0.0,0.0,0.0,0.0,0.0,0.0,0.0,0.0,0.0,0.0,0.0,0.0,0.0,0.0,0.0,0.0,0.0,0.0,0.0,0.0,0.0,0.0,0.0,0.0,0.0,0.0,0.0,0.0,0.0,0.0,0.0,0.0,0.0,0.0,0.0,0.0,0.0,0.0,0.0,0.0,0.0,0.0,0.0,0.0,0.0,0.0,0.0,0.0,0.0,0.0,0.0,0.0,0.0,0.0,0.0,0.0,0.0,0.0,0.0,0.0,0.0,0.0,0.0,0.0,0.0,0.0,0.0,0.0,0.0,0.0,0.0,0.0,0.0,0.0,0.0,0.0,0.0,0.0,0.0,0.0,-2.6007,-2.5658,-2.5179,-2.5146,-2.5173,-2.5279,-2.5308,-2.5308,-2.5308,-2.5308,0.0,0.0,0.0,0.0,0.0,0.0,0.0,0.0,0.0,0.0,0.0,0.0,0.0,0.0,0.0,0.0,0.0,0.0,0.0,0.0,0.0,0.0,0.0,0.0,0.0,0.0,0.0,0.0,0.0,0.0,0.0,0.0,0.0,0.0,0.0,0.0,0.0,0.0,0.0,0.0,0.0,0.0,0.0,0.0,0.0,0.0,0.0,0.0,0.0,0.0,0.0,0.0,0.0,0.0,0.0,0.0,0.0,0.0,0.0,0.0,0.0,0.0,0.0,0.0,0.0,0.0,0.0,0.0,0.0,0.0,0.0,0.0,0.0,0.0,0.0,0.0,0.0,0.0,0.0,0.0,0.0,0.0,0.0,0.0,0.0,0.0,0.0,0.0,0.0,0.0,0.0,0.0,0.0,0.0,0.0,0.0,0.0,0.0,0.0,0.0,0.0,0.0,-2.6261,-2.605,-2.5057,-2.4986,-2.5052,-2.5214,-2.5269,-2.5308,-2.5308,-2.5308,0.0,0.0,0.0,0.0,0.0,0.0,0.0,0.0,0.0,0.0,0.0,0.0,0.0,0.0,0.0,0.0,0.0,0.0,0.0,0.0,0.0,0.0,0.0,0.0,0.0,0.0,0.0,0.0,0.0,0.0,0.0,0.0,0.0,0.0,0.0,0.0,0.0,0.0,0.0,0.0,0.0,0.0,0.0,0.0,0.0,0.0,0.0,0.0,0.0,0.0,0.0,0.0,0.0,0.0,0.0,0.0,0.0,0.0,0.0,0.0,0.0,0.0,0.0,0.0,0.0,0.0,0.0,0.0,0.0,0.0,0.0,0.0,0.0,0.0,0.0,0.0,0.0,0.0,0.0,0.0,0.0,0.0,0.0,0.0,0.0,0.0,0.0,0.0,0.0,0.0,0.0,0.0,0.0,0.0,0.0,0.0,0.0,0.0,0.0,0.0,0.0,0.0,-2.6131,-2.6333,-2.4967,-2.4936,-2.501,-2.5022,-2.5179,-2.5308,-2.5308,-2.5308,0.0,0.0,0.0,0.0,0.0,0.0,0.0,0.0,0.0,0.0,0.0,0.0,0.0,0.0,0.0,0.0,0.0,0.0,0.0,0.0,0.0,0.0,0.0,0.0,0.0,0.0,0.0,0.0,0.0,0.0,0.0,0.0,0.0,0.0,0.0,0.0,0.0,0.0,0.0,0.0,0.0,0.0,0.0,0.0,0.0,0.0,0.0,0.0,0.0,0.0,0.0,0.0,0.0,0.0,0.0,0.0,0.0,0.0,0.0,0.0,0.0,0.0,0.0,0.0,0.0,0.0,0.0,0.0,0.0,0.0,0.0,0.0,0.0,0.0,0.0,0.0,0.0,0.0,0.0,0.0,0.0,0.0,0.0,0.0,0.0,0.0,0.0,0.0,0.0,0.0,0.0,0.0,0.0,0.0,0.0,0.0,0.0,0.0,0.0,0.0,0.0,0.0,-2.5531,-2.5813,0.0,-2.4734,-2.4769,-2.4973,-2.5077,-2.5105,-2.5105,0.0,0.0,0.0,0.0,0.0,0.0,0.0,0.0,0.0,0.0,0.0,0.0,0.0,0.0,0.0,0.0,0.0,0.0,0.0,0.0,0.0,0.0,0.0,0.0,0.0,0.0,0.0,0.0,0.0,0.0,0.0,0.0,0.0,0.0,0.0,0.0,0.0,0.0,0.0,0.0,0.0,0.0,0.0,0.0,0.0,0.0,0.0,0.0,0.0,0.0,0.0,0.0,0.0,0.0,0.0,0.0,0.0,0.0,0.0,0.0,0.0,0.0,0.0,0.0,0.0,0.0,0.0,0.0,0.0,0.0,0.0,0.0,0.0,0.0,0.0,0.0,0.0,0.0,0.0,0.0,0.0,0.0,0.0,0.0,0.0,0.0,0.0,0.0,0.0,0.0,0.0,0.0,0.0,0.0,0.0,0.0,0.0,0.0,0.0,0.0,0.0,0.0,-2.4613,-2.5151,-2.5372,0.0,-2.4639,-2.4712,-2.4986,-2.5071,-2.5094,-2.5094,0.0,0.0,0.0,0.0,0.0,0.0,0.0,0.0,0.0,0.0,0.0,0.0,0.0,0.0,0.0,0.0,0.0,0.0,0.0,0.0,0.0,0.0,0.0,0.0,0.0,0.0,0.0,0.0,0.0,0.0,0.0,0.0,0.0,0.0,0.0,0.0,0.0,0.0,0.0,0.0,0.0,0.0,0.0,0.0,0.0,0.0,0.0,0.0,0.0,0.0,0.0,0.0,0.0,0.0,0.0,0.0,0.0,0.0,0.0,0.0,0.0,0.0,0.0,0.0,0.0,0.0,0.0,0.0,0.0,0.0,0.0,0.0,0.0,0.0,0.0,0.0,0.0,0.0,0.0,0.0,0.0,0.0,0.0,0.0,0.0,0.0,0.0,0.0,0.0,0.0,0.0,0.0,0.0,0.0,0.0,0.0,0.0,0.0,0.0,0.0,0.0,0.0,-2.4607,-2.5032,-2.516,-2.4552,-2.4678,-2.4855,-2.4992,-2.5173,-2.5303,0.0,0.0,0.0,0.0,0.0,0.0,0.0,0.0,0.0,0.0,0.0,0.0,0.0,0.0,0.0,0.0,0.0,0.0,0.0,0.0,0.0,0.0,0.0,0.0,0.0,0.0,0.0,0.0,0.0,0.0,0.0,0.0,0.0,0.0,0.0,0.0,0.0,0.0,0.0,0.0,0.0,0.0,0.0,0.0,0.0,0.0,0.0,0.0,0.0,0.0,0.0,0.0,0.0,0.0,0.0,0.0,0.0,0.0,0.0,0.0,0.0,0.0,0.0,0.0,0.0,0.0,0.0,0.0,0.0,0.0,0.0,0.0,0.0,0.0,0.0,0.0,0.0,0.0,0.0,0.0,0.0,0.0,0.0,0.0,0.0,0.0,0.0,0.0,0.0,0.0,0.0,0.0,0.0,0.0,0.0,0.0,0.0,0.0,0.0,0.0,0.0,0.0,0.0,-2.4395,-2.4946,-2.516,-2.4552,-2.4436,-2.4501,-2.4835,-2.491,-2.4987,-2.5082,0.0,0.0,0.0,0.0,0.0,0.0,0.0,0.0,0.0,0.0,0.0,0.0,0.0,0.0,0.0,0.0,0.0,0.0,0.0,0.0,0.0,0.0,0.0,0.0,0.0,0.0,0.0,0.0,0.0,0.0,0.0,0.0,0.0,0.0,0.0,0.0,0.0,0.0,0.0,0.0,0.0,0.0,0.0,0.0,0.0,0.0,0.0,0.0,0.0,0.0,0.0,0.0,0.0,0.0,0.0,0.0,0.0,0.0,0.0,0.0,0.0,0.0,0.0,0.0,0.0,0.0,0.0,0.0,0.0,0.0,0.0,0.0,0.0,0.0,0.0,0.0,0.0,0.0,0.0,0.0,0.0,0.0,0.0,0.0,0.0,0.0,0.0,0.0,0.0,0.0,0.0,0.0,0.0,0.0,0.0,0.0,0.0,0.0,0.0,0.0,0.0,0.0,-2.4263,-2.4622,-2.481,-2.4534,-2.4393,-2.4444,-2.4775,-2.4849,-2.4917,-2.4979,0.0,0.0,0.0,0.0,0.0,0.0,0.0,0.0,0.0,0.0,0.0,0.0,0.0,0.0,0.0,0.0,0.0,0.0,0.0,0.0,0.0,0.0,0.0,0.0,0.0,0.0,0.0,0.0,0.0,0.0,0.0,0.0,0.0,0.0,0.0,0.0,0.0,0.0,0.0,0.0,0.0,0.0,0.0,0.0,0.0,0.0,0.0,0.0,0.0,0.0,0.0,0.0,0.0,0.0,0.0,0.0,0.0,0.0,0.0,0.0,0.0,0.0,0.0,0.0,0.0,0.0,0.0,0.0,0.0,0.0,0.0,0.0,0.0,0.0,0.0,0.0,0.0,0.0,0.0,0.0,0.0,0.0,0.0,0.0,0.0,0.0,0.0,0.0,0.0,0.0,0.0,0.0,0.0,0.0,0.0,0.0,0.0,0.0,0.0,0.0,0.0,0.0,-2.419,-2.419,-2.4266,-2.4444,-2.4469,-2.4543,-2.4753,-2.4904,-2.4992,-2.5004,0.0,0.0,0.0,0.0,0.0,0.0,0.0,0.0,0.0,0.0,0.0,0.0,0.0,0.0,0.0,0.0,0.0,0.0,0.0,0.0,0.0,0.0,0.0,0.0,0.0,0.0,0.0,0.0,0.0,0.0,0.0,0.0,0.0,0.0,0.0,0.0,0.0,0.0,0.0,0.0,0.0,0.0,0.0,0.0,0.0,0.0,0.0,0.0,0.0,0.0,0.0,0.0,0.0,0.0,0.0,0.0,0.0,0.0,0.0,0.0,-2.4414,0.0,0.0,0.0,0.0,0.0,0.0,0.0,0.0,0.0,0.0,0.0,0.0,0.0,0.0,0.0,0.0,0.0,0.0,0.0,0.0,0.0,0.0,0.0,0.0,0.0,0.0,0.0,0.0,0.0,0.0,0.0,0.0,0.0,0.0,0.0,0.0,0.0,0.0,0.0,0.0,0.0,-2.419,-2.419,-2.4218,-2.4266,-2.4257,-2.4358,-2.4553,-2.4746,-2.4884,-2.4998,-2.5198,0.0,0.0,0.0,0.0,0.0,0.0,0.0,0.0,0.0,0.0,0.0,0.0,0.0,0.0,0.0,0.0,0.0,0.0,0.0,0.0,0.0,0.0,0.0,0.0,0.0,0.0,0.0,0.0,0.0,0.0,0.0,0.0,0.0,0.0,0.0,0.0,0.0,0.0,0.0,0.0,0.0,0.0,0.0,0.0,0.0,0.0,0.0,0.0,0.0,0.0,0.0,0.0,0.0,0.0,0.0,0.0,0.0,0.0,0.0,0.0,-2.4802,0.0,0.0,0.0,0.0,0.0,0.0,0.0,0.0,0.0,0.0,0.0,0.0,0.0,0.0,0.0,0.0,0.0,0.0,0.0,0.0,0.0,0.0,0.0,0.0,0.0,0.0,0.0,0.0,0.0,0.0,0.0,0.0,0.0,0.0,0.0,0.0,0.0,0.0,0.0,0.0,-2.419,-2.419,-2.419,-2.419,-2.419,-2.4247,-2.4358,-2.4545,-2.4727,-2.4897,-2.5059,0.0,0.0,0.0,0.0,0.0,0.0,0.0,0.0,0.0,0.0,0.0,0.0,0.0,0.0,0.0,0.0,0.0,0.0,0.0,0.0,0.0,0.0,0.0,0.0,0.0,0.0,0.0,0.0,0.0,0.0,0.0,0.0,0.0,0.0,0.0,0.0,0.0,0.0,0.0,0.0,0.0,0.0,0.0,0.0,0.0,0.0,0.0,0.0,0.0,0.0,0.0,0.0,0.0,-2.7385,-2.7351,-2.7756,-2.6404,-2.6116,-2.6623,-2.5405,-2.522,-2.576,0.0,0.0,0.0,0.0,0.0,0.0,0.0,0.0,0.0,0.0,0.0,0.0,0.0,0.0,0.0,0.0,0.0,0.0,0.0,0.0,0.0,0.0,0.0,0.0,0.0,-2.5423,-2.5524,0.0,0.0,0.0,0.0,0.0,0.0,0.0,0.0,0.0,0.0,0.0,0.0,-2.4208,-2.419,-2.419,-2.419,-2.419,-2.419,-2.419,-2.4384,-2.4602,-2.479,-2.4936,-2.5094,0.0,0.0,0.0,0.0,0.0,0.0,0.0,0.0,0.0,0.0,0.0,0.0,0.0,0.0,0.0,0.0,0.0,0.0,0.0,0.0,0.0,0.0,0.0,0.0,0.0,0.0,0.0,0.0,0.0,0.0,0.0,0.0,-2.2778,-2.3572,0.0,0.0,0.0,0.0,0.0,0.0,0.0,0.0,0.0,0.0,0.0,0.0,0.0,-2.899,-2.8688,-2.9533,-2.9583,-2.884,-2.8739,-2.8383,-2.7773,-2.6945,-2.6607,-2.6691,-2.6488,0.0,-2.6521,-2.6122,0.0,0.0,0.0,0.0,0.0,0.0,0.0,0.0,0.0,0.0,0.0,0.0,0.0,0.0,0.0,0.0,0.0,0.0,0.0,0.0,0.0,0.0,-2.5293,-2.4747,-2.5122,-2.5598,0.0,-2.6162,-2.6823,-2.731,-2.6965,0.0,0.0,0.0,0.0,0.0,0.0,0.0,-2.4281,-2.419,-2.419,-2.419,-2.419,-2.419,-2.419,-2.4384,-2.4602,-2.479,-2.4936,-2.5094,-2.5284,-2.5308,0.0,0.0,0.0,0.0,0.0,0.0,0.0,0.0,0.0,0.0,0.0,0.0,0.0,0.0,0.0,0.0,0.0,0.0,0.0,0.0,0.0,0.0,0.0,0.0,0.0,0.0,0.0,0.0,0.0,-2.3107,-2.4427,-2.4745,-2.5343,-2.5574,0.0,0.0,0.0,0.0,0.0,0.0,0.0,0.0,0.0,-2.9294,-2.9653,-2.9955,-3.0228,-3.0159,-2.9939,-2.96,-2.8738,-2.8128,-2.7773,-2.7046,-2.6691,-2.6691,-2.6691,-2.6691,-2.6691,-2.6516,-2.668,-2.702,0.0,0.0,0.0,0.0,-2.7404,-2.7869,-2.798,-2.8075,0.0,-2.7995,0.0,0.0,0.0,0.0,0.0,0.0,0.0,0.0,0.0,0.0,-2.5246,-2.5131,-2.5219,-2.5556,-2.6413,-2.6654,-2.6745,0.0,-2.7257,-2.7331,-2.6411,0.0,0.0,0.0,0.0,-2.5117,-2.43,-2.419,-2.419,-2.419,-2.419,-2.419,-2.419,-2.4275,-2.4461,-2.4782,-2.4862,-2.5018,-2.5298,-2.5308,-2.5308,0.0,0.0,0.0,0.0,0.0,0.0,0.0,0.0,0.0,0.0,0.0,0.0,0.0,0.0,0.0,0.0,0.0,0.0,0.0,0.0,0.0,0.0,0.0,0.0,0.0,0.0,0.0,0.0,-2.4231,-2.5378,-2.5681,-2.6504,-2.6808,0.0,0.0,0.0,0.0,0.0,0.0,-2.8348,-2.8958,-2.9617,-3.0362,-3.0378,-3.0548,-3.092,-3.0378,-2.9886,-2.9497,-2.8348,-2.7705,-2.7503,-2.6945,-2.6691,-2.6691,-2.6691,-2.6691,-2.6691,-2.6691,-2.6939,-2.7303,-2.7303,-2.7562,-2.7897,-2.7779,-2.7949,-2.8276,-2.883,-2.8815,-2.8612,-2.8779,0.0,-2.7688,-2.709,0.0,0.0,0.0,0.0,-2.6481,-2.6434,-2.5649,-2.4891,-2.5012,-2.4853,-2.4982,-2.6135,-2.6519,-2.669,0.0,-2.7712,-2.8028,-2.6814,0.0,0.0,0.0,0.0,-2.5338,-2.4318,-2.419,-2.419,-2.419,-2.419,-2.419,-2.419,-2.419,-2.4339,-2.47,-2.4723,-2.4876,-2.5208,-2.5219,-2.5253,-2.5308,0.0,0.0,0.0,0.0,0.0,0.0,0.0,0.0,0.0,0.0,0.0,0.0,0.0,0.0,0.0,0.0,0.0,0.0,0.0,0.0,0.0,0.0,0.0,0.0,0.0,0.0,0.0,0.0,0.0,-2.5857,-2.7182,0.0,0.0,0.0,0.0,-2.8824,-2.8857,-2.9213,-2.9937,-3.0023,-3.0378,-3.1123,-3.114,-3.0835,-3.0176,-3.0125,-2.9362,-2.7908,-2.7841,-2.7435,-2.6742,-2.6708,-2.6691,-2.6691,-2.6691,-2.6691,-2.6691,-2.6691,-2.6939,-2.7303,-2.7303,-2.7562,-2.7855,-2.747,-2.8045,-2.8871,-2.7796,-2.8142,-2.8998,-2.8563,-2.8136,-2.7787,-2.7761,-2.7732,0.0,0.0,-2.7238,-2.7472,-2.6032,-2.5081,-2.4352,-2.3678,-2.3492,-2.3522,-2.3589,-2.4989,-2.6775,0.0,-2.8649,-2.8371,-2.8299,0.0,-2.8322,-2.6767,-2.6539,-2.597,-2.4392,-2.419,-2.419,-2.419,-2.419,-2.419,-2.419,-2.419,-2.4284,-2.4503,-2.452,-2.4674,-2.5004,-2.5016,-2.5099,-2.5303,-2.5308,0.0,0.0,0.0,0.0,0.0,0.0,0.0,0.0,0.0,0.0,0.0,0.0,0.0,0.0,0.0,0.0,0.0,0.0,0.0,0.0,0.0,0.0,0.0,0.0,0.0,0.0,0.0,0.0,-2.6671,-2.7635,0.0,-2.8011,-2.8253,-2.8789,-2.9649,-2.9702,-3.0023,-3.0768,-3.0818,-3.092,-3.119,-3.0734,-3.0378,-3.0108,-2.9108,-2.8348,-2.779,-2.7334,-2.6708,-2.5998,-2.5998,-2.5727,-2.5286,-2.5286,-2.5557,-2.5998,-2.5998,-2.6367,-2.6923,-2.6923,-2.6987,-2.7115,-2.6971,-2.719,-2.7523,-2.7359,-2.7583,-2.7985,-2.8295,-2.8303,-2.8233,-2.8489,-2.8389,-2.8118,-2.7864,-2.7327,-2.6687,-2.6128,-2.4893,-2.3729,-2.346,-2.3038,-2.2818,-2.3291,-2.3932,-2.4729,-2.5904,-2.72,-2.8143,-2.835,-2.8093,-2.7548,-2.6727,-2.6153,-2.5429,-2.4337,-2.419,-2.419,-2.419,-2.419,-2.419,-2.419,-2.419,-2.4284,-2.4486,-2.4503,-2.4615,-2.485,-2.4949,-2.5034,-2.5105,-2.5224,-2.5308,0.0,0.0,0.0,0.0,0.0,0.0,0.0,0.0,0.0,0.0,0.0,0.0,0.0,0.0,0.0,0.0,0.0,0.0,0.0,0.0,0.0,0.0,0.0,0.0,0.0,0.0,-2.6549,-2.7127,-2.7904,-2.8226,-2.7879,-2.844,-2.9132,-2.9772,-2.9996,-3.0429,-3.1157,-3.0717,-3.0565,-3.0818,-3.0108,-2.96,-2.9328,-2.8314,-2.7672,-2.7418,-2.6691,-2.6065,-2.5592,-2.5338,-2.4965,-2.4491,-2.4491,-2.4778,-2.522,-2.522,-2.5507,-2.6014,-2.6505,-2.6539,-2.6336,-2.6336,-2.6167,-2.5996,-2.6265,-2.645,-2.6643,-2.7138,-2.7347,-2.7561,-2.8099,-2.7886,-2.7466,-2.762,-2.6771,-2.5744,-2.537,-2.4328,-2.3342,-2.3088,-2.2665,-2.2431,-2.2919,-2.3224,-2.3572,-2.4211,-2.5747,-2.7059,-2.736,-2.7083,-2.6686,-2.6258,-2.5742,-2.5117,-2.43,-2.419,-2.419,-2.419,-2.419,-2.419,-2.419,-2.419,-2.4266,-2.4393,-2.4401,-2.4486,-2.4693,-2.485,-2.4949,-2.5004,-2.5203,-2.5308,-2.5308,0.0,0.0,0.0,0.0,0.0,0.0,0.0,0.0,0.0,0.0,0.0,0.0,0.0,0.0,0.0,0.0,0.0,0.0,0.0,0.0,0.0,0.0,0.0,-2.5278,-2.6114,-2.6761,-2.7158,-2.7958,-2.8155,-2.737,-2.9067,-2.9943,-2.9299,-2.9752,-3.0359,-3.1089,-2.9788,-2.9331,-3.004,-2.9365,-2.8586,-2.7807,-2.779,-2.7384,-2.6657,-2.5947,-2.5576,-2.5507,-2.4795,-2.444,-2.4423,-2.4423,-2.444,-2.4457,-2.4457,-2.4474,-2.4643,-2.6082,-2.6184,-2.5575,-2.5575,-2.5101,-2.4491,-2.4491,-2.4761,-2.509,-2.5104,-2.5318,-2.5732,-2.6521,-2.6215,-2.5671,-2.6048,-2.5617,-2.4783,-2.3697,-2.3376,-2.319,-2.2465,-2.2296,-2.2296,-2.2296,-2.2868,-2.3473,-2.3877,-2.4517,-2.5119,-2.5455,-2.5798,-2.5912,-2.5452,-2.5364,0.0,-2.4272,-2.419,-2.4208,-2.418,-2.419,-2.419,-2.419,-2.419,-2.419,-2.419,-2.419,-2.4284,-2.4478,-2.4685,-2.4843,-2.4998,-2.5198,-2.5279,-2.5279,0.0,0.0,0.0,0.0,0.0,0.0,0.0,0.0,0.0,0.0,0.0,0.0,0.0,0.0,0.0,0.0,0.0,0.0,0.0,0.0,0.0,-2.5031,-2.5895,-2.6217,-2.6459,-2.6814,-2.7424,-2.7707,-2.774,-2.746,-2.7958,-2.8334,-2.8501,-2.8644,-2.8975,-2.9567,-2.9213,-2.9094,-2.9314,-2.8535,-2.801,-2.7807,-2.7283,-2.664,-2.5896,-2.571,-2.505,-2.4002,-2.3782,-2.341,-2.2902,-2.2902,-2.3207,-2.3712,-2.3712,-2.4017,-2.4541,-2.4948,-2.4982,-2.4795,-2.4795,-2.4677,-2.4491,-2.4491,-2.4567,-2.4716,-2.5005,-2.5157,-2.533,-2.5791,-2.5614,-2.5261,-2.5362,-2.4652,-2.3792,-2.3488,-2.3004,-2.255,-2.2347,-2.2296,-2.2296,-2.2296,-2.2448,-2.2643,-2.2753,-2.2934,-2.3602,-2.5274,-2.5173,-2.4909,-2.5027,-2.4544,0.0,-2.3873,-2.4054,-2.4103,-2.3858,-2.4046,-2.419,-2.419,-2.419,-2.419,-2.419,-2.419,-2.4228,-2.4275,-2.4478,-2.4678,-2.4855,-2.5005,-2.5088,0.0,0.0,0.0,0.0,0.0,0.0,0.0,0.0,0.0,0.0,0.0,0.0,0.0,0.0,0.0,0.0,0.0,0.0,0.0,0.0,0.0,0.0,-2.5914,-2.6587,-2.6587,-2.6587,-2.6737,-2.7136,-2.6941,-2.6651,-2.6314,-2.6778,-2.7083,-2.7078,-2.727,-2.7673,-2.8293,-2.7729,-2.7547,-2.7862,-2.7114,-2.6715,-2.6715,-2.6005,-2.5442,-2.5011,-2.4415,-2.3781,-2.3103,-2.2785,-2.2419,0.0,-2.2003,-2.2252,-2.2636,-2.2636,-2.3009,0.0,0.0,0.0,0.0,0.0,-2.3579,-2.3579,-2.3579,-2.3579,-2.3606,-2.385,-2.3935,-2.4029,-2.4541,-2.4323,-2.4004,-2.4296,-2.3699,-2.2936,-2.2936,-2.2617,-2.2296,-2.2296,-2.2296,-2.2296,-2.2296,-2.2296,-2.2296,-2.2296,-2.2296,0.0,-2.3989,-2.3915,-2.3788,-2.4134,-2.3786,-2.35,-2.35,-2.3785,-2.3917,-2.3714,-2.3996,-2.419,-2.419,-2.419,0.0,0.0,0.0,-2.4237,-2.433,-2.4445,0.0,0.0,0.0,0.0,0.0,0.0,0.0,0.0,-2.7121,-2.7736,0.0,0.0,0.0,0.0,0.0,0.0,0.0,0.0,0.0,0.0,0.0,0.0,0.0,0.0,0.0,0.0,-2.6213,-2.6587,-2.6587,-2.6467,-2.6393,-2.6467,-2.5959,-2.5337,-2.4664,-2.5626,-2.6026,-2.5414,-2.5824,-2.6403,-2.7113,0.0,0.0,0.0,0.0,-2.5154,-2.509,-2.4502,-2.412,-2.3959,-2.2692,-2.2232,-2.2487,-2.1815,-2.1521,-2.1521,-2.1521,-2.1521,-2.1553,-2.1582,-2.1884,-2.2431,-2.3731,-2.3864,-2.319,-2.2533,-2.2296,-2.2296,-2.2296,0.0,0.0,-2.2296,-2.2296,-2.2415,-2.3071,-2.2818,-2.2446,-2.3088,-2.2801,-2.2296,-2.2296,-2.2296,-2.2296,-2.2296,-2.2296,-2.2296,-2.2296,-2.2296,-2.2296,-2.2296,-2.2296,-2.2296,-2.2296,-2.2487,-2.2759,-2.3093,-2.3141,-2.3141,-2.3141,-2.3444,-2.3639,-2.3588,0.0,0.0,-2.4151,-2.4103,-2.4113,-2.4208,-2.419,-2.4275,-2.4452,-2.4461,-2.4561,-2.4731,-2.4753,-2.4816,-2.493,-2.4968,-2.551,-2.6535,-2.6586,-2.7495,0.0,0.0,0.0,0.0,0.0,0.0,0.0,0.0,0.0,0.0,0.0,0.0,0.0,0.0,0.0,-2.6275,-2.6512,-2.6587,-2.6587,-2.5674,-2.5187,-2.5734,-2.5689,-2.5337,-2.4664,-2.4822,-2.4884,-2.4637,-2.4714,-2.5024,-2.5586,-2.5346,-2.5266,-2.5413,-2.5266,-2.4948,-2.439,-2.4246,-2.3622,-2.2516,0.0,0.0,-2.1311,-2.1183,-2.1134,-2.1134,-2.1134,-2.1134,-2.1134,-2.146,-2.1884,-2.233,-2.2615,-2.2649,-2.2499,-2.2347,-2.2296,-2.2296,-2.2296,-2.2296,-2.2296,-2.2296,-2.2296,-2.233,-2.2465,-2.2398,0.0,-2.2465,-2.2398,-2.2296,-2.2296,-2.2296,-2.2296,-2.2296,-2.2296,-2.2296,-2.2296,-2.2296,-2.2296,-2.2296,-2.2296,-2.2296,-2.2296,-2.2349,-2.2463,-2.2746,-2.2797,-2.2797,-2.2797,-2.3093,-2.3189,-2.2923,-2.3189,-2.3493,-2.3774,-2.3555,-2.361,-2.417,-2.419,-2.4218,-2.4266,-2.4266,-2.4275,-2.4321,-2.4478,-2.4567,-2.4588,-2.4763,-2.5272,-2.611,-2.6454,-2.7415,0.0,0.0,0.0,0.0,0.0,0.0,0.0,0.0,0.0,0.0,0.0,-2.315,-2.3817,0.0,-2.5618,-2.6,-2.6352,-2.6363,-2.5689,-2.4724,-2.4335,-2.5008,-2.4807,-2.4477,-2.4126,-2.4096,-2.4063,-2.4,-2.3991,-2.4116,-2.4389,-2.441,-2.427,-2.3965,-2.3949,-2.3623,-2.2959,-2.2617,-2.2105,-2.1404,-2.1049,-2.081,-2.0649,-2.0649,-2.0649,-2.0649,-2.0649,-2.0649,-2.0699,-2.1353,-2.1733,-2.1957,-2.2209,-2.2296,-2.2296,-2.2296,-2.2296,-2.2296,-2.2296,-2.2296,-2.2296,-2.2296,-2.2296,-2.2296,-2.2296,-2.2296,-2.2296,-2.2296,-2.2296,-2.2296,-2.2296,-2.2296,-2.2296,-2.2296,-2.2296,-2.2296,-2.2296,-2.2296,-2.2296,-2.2296,-2.2296,-2.2296,-2.2296,-2.2296,-2.2349,-2.249,-2.25,-2.25,-2.25,-2.2751,-2.2885,-2.2721,-2.3009,-2.3259,-2.3444,-2.33,-2.3346,-2.3682,-2.3865,-2.3937,-2.3937,-2.4103,-2.419,-2.419,-2.4303,-2.4401,-2.4503,-2.4599,-2.4907,-2.5389,-2.5615,-2.6549,0.0,0.0,0.0,0.0,0.0,0.0,0.0,0.0,-2.1257,-2.221,-2.2591,-2.3091,-2.419,-2.4781,-2.5142,-2.5272,-2.5606,-2.5499,-2.4557,-2.3748,-2.348,-2.4156,-2.364,-2.3236,-2.3236,-2.3236,-2.3236,-2.3236,-2.3355,-2.337,-2.3236,-2.3355,-2.3131,-2.2523,-2.2508,-2.2194,-2.1515,-2.0957,-2.0628,-2.0513,-1.9944,-1.9874,-2.0177,-2.0177,-2.0177,-2.0177,-2.0177,-2.0229,-2.035,-2.107,-2.1414,-2.1522,-2.1901,-2.2092,-2.218,-2.2268,-2.2296,-2.2296,-2.2296,-2.2296,-2.2296,-2.2296,-2.2296,-2.2296,-2.2296,-2.2296,-2.2296,-2.2296,-2.2296,-2.2296,-2.2296,-2.2296,-2.2296,-2.2296,-2.2296,-2.2296,-2.2296,-2.2296,-2.2296,-2.2296,-2.2296,-2.2296,-2.2296,-2.2296,-2.2296,-2.2296,-2.2296,-2.2296,-2.2296,-2.2487,-2.2621,-2.2621,-2.2865,-2.3026,-2.3026,-2.3117,-2.3183,-2.3123,-2.3414,-2.3621,-2.3692,-2.3896,-2.4074,-2.4208,-2.4141,-2.421,-2.4435,-2.4435,-2.4528,-2.4685,-2.4685,-2.5506,-1.6539,-1.668,-1.705,-1.8586,-1.8689,-1.8804,0.0,0.0,-2.2362,-2.2392,-2.3291,-2.4142,-2.4275,-2.3935,-2.3865,-2.4498,-2.3777,-2.3283,-2.373,-2.2712,-2.2163,-2.2835,-2.2308,-2.1904,-2.1904,-2.1904,-2.1904,-2.1904,-2.2463,-2.2538,-2.1934,-2.2478,-2.2508,-2.1829,-2.1799,-2.1485,-2.0808,-2.0733,-2.0408,-1.9813,-1.9738,-1.9711,-1.9764,-1.9764,-1.9764,-1.9764,-1.9764,-1.9965,-2.0314,-2.0416,-2.0699,-2.1071,-2.1118,-2.1353,-2.1718,-2.2152,-2.2296,-2.2296,-2.2296,-2.2296,-2.2296,-2.2296,-2.2296,-2.2296,-2.2296,-2.2296,-2.2296,-2.2296,-2.2296,-2.2296,-2.2296,-2.2296,-2.2296,-2.2296,-2.2296,-2.2296,-2.2296,-2.2296,-2.2296,-2.2296,-2.2296,-2.2296,-2.2296,-2.2296,-2.2296,-2.2296,-2.2296,-2.2296,-2.2296,-2.2338,-2.2349,-2.2349,-2.2391,-2.2405,-2.2405,-2.2895,-2.3099,-2.2867,-2.3099,-2.3392,-2.3692,-2.3448,-2.3588,-2.418,-2.3907,-2.3917,-2.4237,-2.4237,-2.4247,-2.4275,-2.4275,-2.4857,-1.6756,-1.725,-1.7735,0.0,-1.9081,-1.9401,-2.0502,-2.1121,-2.1577,-2.181,-2.2283,-2.2673,-2.2673,-2.2817,-2.2897,0.0,-2.2754,-2.2547,-2.2132,-2.126,-2.0763,-2.1044,-2.0826,-2.0931,-2.163,-2.1695,-2.1695,-2.1695,-2.1949,-2.1994,-2.171,-2.1984,-2.1799,-2.1141,-2.1126,-2.0797,-2.0124,-2.0124,-1.9974,-1.9708,-1.9708,-1.9708,-1.9708,-1.9708,-1.9708,-1.9708,-1.9708,-1.98,-1.9965,-2.0195,-2.0416,-2.0616,-2.0894,-2.1102,-2.1291,-2.1735,-2.2077,-2.2296,-2.2296,-2.2296,-2.2296,-2.2296,-2.2296,-2.2296,-2.2296,-2.2296,-2.2296,-2.2296,-2.2296,-2.2296,-2.2296,-2.2296,-2.2296,-2.2296,-2.2296,-2.2296,-2.2296,-2.2296,-2.2296,-2.2296,-2.2296,-2.2296,-2.2296,-2.2296,-2.2296,-2.2296,-2.2296,-2.2296,-2.2296,-2.2296,-2.2296,-2.2296,-2.2296,-2.2296,-2.2296,-2.2535,-2.2638,-2.2525,-2.2755,-2.2972,-2.3105,-2.3165,-2.3335,-2.361,-2.3671,-2.3774,-2.3907,-2.4103,-2.419,-2.419,-2.419,-2.4431,-1.662,-1.7186,-1.7655,-1.8382,-1.8857,-1.9321,-2.0075,-2.0352,-2.0616,-2.1142,-2.1408,-2.1493,-2.1493,-2.1825,-2.1916,-2.1433,-2.1661,-2.1616,-2.0762,-2.0057,-1.9706,-1.989,-1.9752,-2.0036,-2.1067,-2.1337,-2.135,-2.1156,-2.1321,-2.1425,-2.1425,-2.1425,-2.1201,-2.0718,-2.0509,-2.0183,-1.9708,-1.9708,-1.9708,-1.9708,-1.9708,-1.9708,-1.9708,-1.9708,-1.9708,-1.9708,-1.9708,-1.9708,-1.9711,-2.0017,-2.0141,-2.0176,-2.0499,-2.0715,-2.0845,-2.1134,-2.1613,-2.2106,-2.2106,-2.2194,-2.2296,-2.2296,-2.2296,-2.2296,-2.2296,-2.2296,-2.2296,-2.2296,-2.2209,-2.2106,-2.2106,-2.2017,-2.193,-2.193,-2.2034,-2.2077,-2.1976,-2.2034,-2.2077,-2.1959,-2.193,-2.193,-2.193,-2.193,-2.193,-2.193,-2.193,-2.2034,-2.2268,-2.2296,-2.2296,-2.2296,-2.2296,-2.2296,-2.2296,-2.2296,-2.2296,-2.2296,-2.2473,-2.2621,-2.2695,-2.2865,-2.3026,-2.3189,-2.3357,-2.3459,-2.3566,-2.3806,-2.3976,-2.4064,-2.4064,-2.4103,-1.55,-1.5668,-1.5957,-1.714,-1.7461,-1.7762,-1.8807,-1.9434,-1.9987,-2.0591,-2.1144,-2.1493,-2.1493,-2.1108,-2.0758,-2.0718,-2.0266,-1.9927,-2.0017,-1.9436,-1.9234,-1.983,-1.9341,-1.9168,0.0,-2.0396,-2.0468,-1.9813,-2.0363,-2.0718,-2.0718,-2.0718,-2.0718,-2.0703,-2.0064,-1.9723,-1.9708,-1.9708,-1.9708,-1.9708,-1.9708,-1.9708,-1.9708,-1.9708,-1.9708,-1.9708,-1.9708,-1.9708,-1.9708,-1.9711,-1.9711,-1.9711,-1.9729,-1.9965,-2.0331,-2.0316,-2.0878,-2.1612,-2.1612,-2.1913,-2.2296,-2.2296,-2.2296,-2.2296,-2.2296,-2.2296,-2.2296,-2.2296,-2.1957,-2.1612,-2.1612,-2.1322,-2.1039,-2.1039,-2.1337,-2.1506,-2.1118,-2.1354,-2.1522,-2.1134,-2.1039,-2.1039,-2.1039,-2.1039,-2.1039,-2.1039,-2.1039,-2.1338,-2.2194,-2.2296,-2.2296,-2.2296,-2.2296,-2.2296,-2.2296,-2.2296,-2.2296,-2.2296,-2.231,-2.2426,-2.2682,-2.245,-2.2611,-2.3177,-2.2898,-2.2898,-2.323,-2.3242,-2.3392,-2.3714,-2.3714,-2.3896,-1.5277,-1.5532,-1.5729,-1.6536,-1.675,-1.6832,-1.7185,-1.7617,-1.8133,-1.8818,-1.9332,-1.9778,-2.0284,-2.0213,-2.0087,-2.0087,-1.9635,-1.917,-1.8842,-1.8316,-1.8148,-1.8705,-1.894,0.0,0.0,0.0,0.0,-2.0311,-2.0245,-2.0313,-2.0669,-2.0703,-2.0513,-2.0049,-1.9828,-1.953,-1.9169,-1.9169,-1.9169,-1.9169,-1.953,-1.9708,-1.9708,-1.9708,-1.9708,-1.9708,-1.9708,-1.9708,-1.9708,-1.9708,-1.9708,-1.9708,-1.9708,-1.9782,-1.9909,-1.9909,-2.0261,-2.0781,-2.1102,-2.1307,-2.1493,-2.1749,-2.184,-2.1899,-2.2209,-2.2092,-2.184,-2.184,-2.1538,-2.1197,-2.1197,-2.1102,-2.0991,-2.0991,-2.1102,-2.1166,-2.1039,-2.1102,-2.115,-2.1039,-2.0991,-2.0991,-2.0991,-2.0991,-2.0991,-2.0991,-2.0991,-2.1197,-2.1764,-2.184,-2.184,-2.184,-2.184,-2.184,-2.184,-2.184,-2.1974,-2.2282,-2.2296,-2.2335,-2.244,-2.2349,-2.2405,-2.2598,-2.2678,-2.2759,-2.2873,-2.3093,-2.3247,-2.3369,-2.3369,-2.3426,-1.464,-1.4884,-1.5043,-1.5631,-1.5794,-1.5839,-1.6033,-1.6401,-1.6911,-1.7559,-1.8043,-1.8528,-1.9281,-1.9397,-1.9501,-1.9747,-1.9522,-1.9096,-1.8556,-1.8191,-1.8105,-1.8448,-1.8838,-1.9342,0.0,0.0,0.0,-2.0323,-2.0255,-2.0344,-2.0691,-2.0523,-2.0309,-2.0064,-1.945,-1.9043,-1.8893,-1.8708,-1.8612,-1.8612,-1.8968,-1.9132,-1.9132,-1.9132,-1.9225,-1.9406,-1.9406,-1.953,-1.9708,-1.9708,-1.9708,-1.9708,-1.9708,-1.9708,-1.9708,-1.9708,-1.9856,-2.0141,-2.0599,-2.0862,-2.1039,-2.1291,-2.1384,-2.143,-2.1751,-2.1613,-2.1384,-2.1384,-2.1086,-2.0764,-2.0764,-2.0649,-2.0548,-2.0548,-2.0649,-2.0715,-2.0581,-2.0649,-2.0715,-2.0565,-2.0548,-2.0548,-2.0548,-2.0548,-2.0548,-2.0548,-2.0548,-2.0747,-2.1306,-2.1384,-2.1384,-2.1384,-2.1384,-2.1384,-2.1384,-2.1384,-2.1583,-2.2017,-2.2046,-2.212,-2.2296,-2.2296,-2.2296,-2.2296,-2.2477,-2.2563,-2.2563,-2.2768,-2.2928,-2.3021,-2.3021,-2.3081,-1.36,-1.3755,-1.3886,-1.4468,-1.4617,-1.4729,-1.5244,-1.5733,-1.626,-1.6808,-1.7259,-1.777,-1.8501,0.0,-1.8975,-1.9681,-1.9798,-1.9623,-1.9108,-1.8995,-1.897,0.0,0.0,0.0,0.0,0.0,0.0,-1.9749,0.0,-2.0697,-2.0704,-2.0185,-2.0127,-2.0593,-1.8972,-1.8341,-1.8817,-1.8322,-1.8066,-1.8066,-1.8086,-1.8106,-1.8106,-1.8106,-1.838,-1.8855,-1.8855,-1.9169,-1.9657,-1.9657,-1.969,-1.9708,-1.9708,-1.9708,-1.9708,-1.9708,-1.9708,-1.9747,-2.0141,-2.055,-2.0942,-2.0975,-2.0959,-2.0959,-2.0991,-2.0975,-2.0959,-2.0959,-2.0616,-2.0263,-2.0263,-1.9982,-1.9708,-1.9708,-2.0,-2.016,-1.9782,-2.0,-2.0158,-1.9764,-1.9708,-1.9708,-1.9708,-1.9708,-1.9708,-1.9708,-1.9708,-1.9997,-2.0861,-2.0959,-2.0959,-2.0959,-2.0959,-2.0959,-2.0959,-2.0959,-2.1134,-2.1536,-2.1567,-2.1764,-2.2225,-2.2237,-2.2268,-2.2268,-2.2282,-2.2296,-2.2296,-2.2296,-2.244,-2.2669,-2.2669,-2.2848,-1.3079,-1.3128,-1.3176,-1.331,-1.3368,-1.3388,-1.3524,-1.4119,-1.4829,-1.5525,-1.6261,-1.7006,-1.7731,-1.8694,0.0,-1.9634,-1.9721,0.0,-1.9623,-1.892,0.0,-1.8958,0.0,-1.9259,-1.9962,-1.9773,0.0,0.0,-2.0033,-2.0357,-2.074,-2.0221,-1.9726,-1.9381,-1.8544,-1.7967,-1.7706,-1.7565,-1.7504,-1.7504,-1.7907,-1.8106,-1.8106,-1.8106,-1.8185,-1.8302,-1.8302,-1.8612,-1.9114,-1.9114,-1.935,-1.9708,-1.9708,-1.9708,-1.9708,-1.9708,-1.9708,-1.9711,-1.9836,-1.9927,-2.0085,-2.0381,-2.0483,-2.0533,-2.0894,-2.0764,-2.0483,-2.0483,-2.0191,-1.9856,-1.9856,-1.9782,-1.9708,-1.9708,-1.9782,-1.9821,-1.9711,-1.9782,-1.9836,-1.9711,-1.9708,-1.9708,-1.9708,-1.9708,-1.9708,-1.9708,-1.9708,-1.9892,-2.0399,-2.0483,-2.0483,-2.0483,-2.0483,-2.0483,-2.0483,-2.0483,-2.0666,-2.1118,-2.115,-2.1213,-2.1323,-2.1613,-2.1779,-2.1779,-2.212,-2.2296,-2.2296,-2.2296,-2.2335,-2.2398,-2.2398,-2.244,-1.2905,-1.2905,-1.2905,-1.2905,-1.2905,-1.2954,-1.3115,-1.3662,-1.4287,-1.4884,-1.5538,-1.6226,-1.6978,-1.8216,-1.9216,0.0,0.0,0.0,-2.0239,-1.9686,-1.9309,0.0,-1.9334,0.0,-2.0125,-1.9949,-1.9911,0.0,-2.0279,-2.0346,-2.0361,-1.9845,-1.9345,-1.8913,-1.7914,-1.725,-1.6951,-1.6951,-1.6951,-1.6951,-1.725,-1.7415,-1.7415,-1.7415,-1.7524,-1.7767,0.0,-1.84,-1.893,-1.9151,-1.9424,-1.9708,-1.9708,-1.9708,-1.9708,-1.9708,-1.9708,-1.9708,-1.9708,-1.9708,-1.9729,-1.9947,-2.0052,-2.0087,-2.0362,-2.026,-2.0052,-2.0052,-1.9874,-1.9708,-1.9708,-1.9708,-1.9708,-1.9708,-1.9708,-1.9708,-1.9708,-1.9708,-1.9708,-1.9708,-1.9708,-1.9708,-1.9708,-1.9708,-1.9708,-1.9708,-1.9708,-1.9782,-2.0017,-2.0052,-2.0052,-2.0052,-2.0052,-2.0052,-2.0052,-2.0052,-2.0227,-2.0666,-2.0682,-2.0797,-2.0991,-2.1213,-2.1414,-2.1613,-2.169,-2.1811,-2.2003,-2.2003,-2.2003,-2.2003,-2.2209,-2.2296,-1.2905,-1.2905,-1.2905,-1.2905,-1.2905,-1.3003,-1.334,-1.3763,-1.4211,-1.4619,0.0,-1.5613,-1.6236,-1.7463,-1.8617,-1.9422,0.0,-2.1259,-2.0941,-2.0779,-2.0503,-1.9974,-1.9849,-1.9999,-2.0528,-2.01,-1.9987,-2.044,-2.054,-2.0308,-1.9714,-1.9232,-1.8857,-1.8595,-1.723,-1.65,-1.65,-1.65,-1.65,-1.65,-1.65,-1.65,-1.65,-1.65,-1.6752,-1.7209,-1.7686,0.0,-1.8727,-1.9262,-1.953,-1.9603,-1.9672,-1.9708,-1.9708,-1.9708,-1.9708,-1.9708,-1.9708,-1.9708,-1.9708,-1.9708,-1.9708,-1.9708,-1.9708,-1.9708,-1.9708,-1.9708,-1.9708,-1.9708,-1.9708,-1.9708,-1.9708,-1.9708,-1.9708,-1.9708,-1.9708,-1.9708,-1.9708,-1.9708,-1.9708,-1.9708,-1.9708,-1.9708,-1.9708,-1.9708,-1.9708,-1.9708,-1.9708,-1.9708,-1.9708,-1.9708,-1.9708,-1.9708,-1.9708,-1.9708,-1.9839,-2.0195,-2.0212,-2.0399,-2.0813,-2.0878,-2.1071,-2.143,-2.115,-2.1166,-2.1521,-2.1521,-2.1521,-2.1521,-2.1945,-2.2166,-1.2905,-1.2905,-1.2905,-1.2905,-1.2905,-1.2925,-1.2993,-1.3584,0.0,0.0,-1.4835,-1.5439,-1.5584,-1.6684,-1.7984,-1.9168,-2.0046,-2.0929,-2.1884,-2.127,-2.0654,0.0,-2.0087,-1.9849,0.0,0.0,0.0,0.0,0.0,-1.9269,-1.9143,-1.8624,-1.7908,-1.6952,-1.6645,-1.65,-1.65,-1.65,-1.65,-1.65,-1.65,-1.65,-1.65,-1.65,-1.6552,-1.6637,-1.6731,0.0,-1.7626,-1.8165,-1.8631,-1.908,-1.953,-1.9708,-1.9708,-1.9708,-1.9708,-1.9708,-1.9708,-1.9708,-1.9708,-1.9708,-1.9708,-1.9708,-1.9708,-1.9708,-1.9708,-1.9708,-1.9708,-1.9708,-1.9708,-1.9708,-1.9708,-1.9708,-1.9708,-1.9708,-1.9708,-1.9708,-1.9708,-1.9708,-1.9708,-1.9708,-1.9708,-1.9708,-1.9708,-1.9708,-1.9708,-1.9708,-1.9708,-1.9708,-1.9708,-1.9708,-1.9708,-1.9708,-1.9708,-1.9708,-1.9744,-1.98,-1.9803,-1.9854,-1.9909,-2.0244,-2.0451,-2.0517,-2.0845,-2.1023,-2.1102,-2.1102,-2.1102,-2.1102,-2.1197,-2.14,-1.2905,-1.2905,-1.2905,-1.2905,-1.2905,-1.2964,-1.3154,0.0,0.0,0.0,-1.4971,-1.541,-1.541,-1.6509,0.0,-1.8199,-1.9483,-2.0605,-2.1218,-2.1194,0.0,-2.0729,-2.0453,-2.0125,0.0,0.0,0.0,0.0,0.0,-1.8882,-1.8594,-1.8078,-1.7388,-1.6525,-1.65,-1.65,-1.65,-1.65,-1.65,-1.65,-1.65,-1.65,-1.65,-1.65,-1.65,-1.6522,-1.6795,0.0,-1.7353,-1.7887,-1.8419,-1.893,-1.9188,-1.9442,-1.9708,-1.9708,-1.9708,-1.9708,-1.9708,-1.9708,-1.9708,-1.9708,-1.9708,-1.9708,-1.9708,-1.9708,-1.9708,-1.9708,-1.9708,-1.9708,-1.9708,-1.9708,-1.9708,-1.9708,-1.9708,-1.9708,-1.9708,-1.9708,-1.9708,-1.9708,-1.9708,-1.9708,-1.9708,-1.9708,-1.9708,-1.9708,-1.9708,-1.9708,-1.9708,-1.9708,-1.9708,-1.9708,-1.9708,-1.9708,-1.9708,-1.9708,-1.9708,-1.9708,-1.9708,-1.9708,-1.9708,-1.9892,-2.0089,-2.0297,-2.0313,-2.0431,-2.0633,-2.0633,-2.0633,-2.0633,-2.0878,-2.1102,-1.2905,-1.2905,-1.2905,-1.2905,-1.2905,-1.3013,-1.3408,-1.3802,0.0,-1.4697,-1.5117,-1.541,-1.541,-1.6262,-1.7076,0.0,-1.8962,-2.0257,-2.0521,-2.1219,-2.1506,0.0,-2.083,0.0,0.0,0.0,0.0,0.0,0.0,0.0,-1.8053,-1.7501,-1.6986,-1.6513,-1.65,-1.65,-1.65,-1.65,-1.65,-1.65,-1.65,-1.65,-1.65,-1.65,-1.65,-1.6522,-1.6951,0.0,0.0,-1.7706,-1.8185,-1.8574,-1.8817,-1.9169,-1.9548,-1.9657,-1.9708,-1.9708,-1.9708,-1.9708,-1.9708,-1.9708,-1.9708,-1.9708,-1.9708,-1.9708,-1.9708,-1.9708,-1.9708,-1.9708,-1.9708,-1.9708,-1.9708,-1.9708,-1.9708,-1.9708,-1.9708,-1.9708,-1.9708,-1.9708,-1.9708,-1.9708,-1.9708,-1.9708,-1.9708,-1.9708,-1.9708,-1.9708,-1.9708,-1.9708,-1.9708,-1.9708,-1.9708,-1.9708,-1.9708,-1.9708,-1.9708,-1.9708,-1.9708,-1.9708,-1.9708,-1.9708,-1.9839,-2.0176,-1.9856,-1.9856,-2.0176,-2.0176,-2.0176,-2.0193,-2.0549,-2.0764,-1.2905,-1.2905,-1.2905,-1.2905,-1.2905,-1.3013,-1.3408,0.0,-1.4231,-1.4697,-1.5117,-1.541,-1.541,-1.5498,-1.5996,-1.7206,0.0,-1.9828,-2.095,-2.1743,-2.2221,-2.2171,0.0,0.0,0.0,0.0,0.0,0.0,0.0,0.0,-1.7486,-1.6911,-1.655,-1.65,-1.65,-1.65,-1.65,-1.65,-1.65,-1.65,-1.65,-1.65,-1.65,-1.65,-1.65,-1.65,-1.6552,0.0,0.0,-1.7146,-1.7415,-1.7544,-1.8516,-1.893,-1.9024,-1.953,-1.9708,-1.9708,-1.9708,-1.9708,-1.9708,-1.9708,-1.9708,-1.9708,-1.9708,-1.9708,-1.9708,-1.9708,-1.9708,-1.9708,-1.9708,-1.9708,-1.9708,-1.9708,-1.9708,-1.9708,-1.9708,-1.9708,-1.9708,-1.9708,-1.9708,-1.9708,-1.9708,-1.9708,-1.9708,-1.9708,-1.9708,-1.9708,-1.9708,-1.9708,-1.9708,-1.9708,-1.9708,-1.9708,-1.9708,-1.9708,-1.9708,-1.9708,-1.9708,-1.9708,-1.9708,-1.9708,-1.9711,-1.9747,-1.9711,-1.9711,-1.9747,-1.9747,-1.9747,-1.9747,-1.98,-2.0017,-1.2905,-1.2905,-1.2905,-1.2905,-1.3066,-1.3301,-1.3467,-1.4033,-1.458,-1.4746,-1.5117,-1.541,-1.541,-1.541,-1.5576,-1.6124,-1.6988,-1.7995,-1.9121,-2.034,-2.1246,-2.1491,0.0,0.0,0.0,0.0,0.0,0.0,0.0,0.0,-1.6898,-1.6626,-1.65,-1.65,-1.65,-1.65,-1.65,-1.65,-1.65,-1.65,-1.65,-1.65,-1.65,-1.65,-1.65,-1.65,-1.65,0.0,0.0,-1.6731,-1.7013,-1.7353,-1.7767,-1.8341,-1.893,-1.9151,-1.9424,-1.9708,-1.9708,-1.9708,-1.9708,-1.9708,-1.9708,-1.9708,-1.9708,-1.9708,-1.9708,-1.9708,-1.9708,-1.9708,-1.9708,-1.9708,-1.9708,-1.9708,-1.9708,-1.9708,-1.9708,-1.9708,-1.9708,-1.9708,-1.9708,-1.9708,-1.9708,-1.9708,-1.9708,-1.9708,-1.9708,-1.9708,-1.9708,-1.9708,-1.9708,-1.9708,-1.9708,-1.9708,-1.9708,-1.9708,-1.9708,-1.9708,-1.9708,-1.9708,-1.9708,-1.9708,-1.9708,-1.9708,-1.9708,-1.9708,-1.9708,-1.9708,-1.9708,-1.9708,-1.9708,-1.9782,-1.3066,-1.3066,-1.3066,-1.3066,-1.3291,-1.3574,-1.3828,-1.4346,-1.4814,-1.4941,-1.5205,-1.541,-1.541,-1.541,-1.541,-1.541,-1.626,-1.7189,-1.7901,-1.964,-2.0962,0.0,0.0,0.0,0.0,0.0,0.0,0.0,0.0,0.0,-1.6823,-1.6588,-1.65,-1.65,-1.65,-1.65,-1.65,-1.65,-1.65,-1.65,-1.65,-1.65,-1.65,-1.65,-1.65,-1.65,-1.65,0.0,0.0,-1.65,-1.671,-1.7076,-1.7229,-1.7767,-1.8458,-1.8593,-1.9006,-1.946,-1.946,-1.9566,-1.9708,-1.9708,-1.9708,-1.9708,-1.9708,-1.9708,-1.9708,-1.9708,-1.9708,-1.9708,-1.9708,-1.9708,-1.9708,-1.9708,-1.9708,-1.9708,-1.9708,-1.9708,-1.9708,-1.9708,-1.9708,-1.9708,-1.9708,-1.9708,-1.9708,-1.9708,-1.9708,-1.9708,-1.9708,-1.9566,-1.953,-1.969,-1.9566,-1.953,-1.969,-1.9708,-1.9708,-1.9708,-1.9708,-1.9708,-1.9708,-1.9708,-1.9708,-1.9708,-1.9708,-1.9708,-1.9708,-1.9708,-1.9708,-1.9708,-1.9708,-1.9708,-1.3496,-1.3496,-1.3496,-1.3496,-1.3506,-1.373,-1.458,-1.4775,-1.4902,-1.5322,-1.541,-1.541,-1.541,-1.541,-1.541,-1.541,-1.6838,-1.7975,-1.7996,-2.0242,0.0,0.0,0.0,0.0,0.0,0.0,0.0,0.0,0.0,0.0,-1.7423,-1.6823,-1.65,-1.65,-1.65,-1.65,-1.65,-1.65,-1.65,-1.65,-1.65,-1.65,-1.65,-1.65,-1.65,0.0,0.0,0.0,0.0,-1.65,-1.65,-1.6552,-1.7097,-1.7312,-1.7394,-1.7907,-1.8458,-1.8912,-1.8912,-1.9262,-1.9708,-1.9708,-1.9708,-1.9708,-1.9708,-1.9708,-1.9708,-1.9708,-1.9708,-1.9708,-1.9708,-1.9708,-1.9708,-1.9708,-1.9708,-1.9708,-1.9708,-1.9708,-1.9708,-1.9708,-1.9708,-1.9708,-1.9708,-1.9708,-1.9708,-1.9708,-1.9708,-1.9708,-1.9708,-1.9244,-1.9114,-1.9639,-1.9225,-1.9132,-1.9639,-1.9708,-1.9708,-1.9708,-1.9708,-1.9708,-1.9708,-1.9708,-1.9708,-1.9708,-1.9708,-1.9708,-1.9708,-1.9708,-1.9708,-1.9708,-1.9708,-1.9708,-1.3831,-1.3909,-1.3909,-1.3909,-1.416,-1.4453,-1.4754,-1.501,-1.5254,-1.5381,-1.541,-1.541,-1.541,-1.541,-1.5615,-1.618,-1.6751,0.0,0.0,0.0,0.0,0.0,0.0,0.0,0.0,0.0,0.0,0.0,0.0,0.0,-1.7436,-1.6835,-1.65,-1.65,-1.65,-1.65,-1.65,-1.65,-1.65,-1.65,-1.65,-1.65,-1.65,-1.65,-1.65,0.0,0.0,0.0,0.0,-1.65,-1.65,-1.6522,-1.6701,-1.6972,-1.7333,-1.7483,-1.7887,-1.8419,-1.8765,-1.9006,-1.9207,-1.9584,-1.9708,-1.9708,-1.9708,-1.9708,-1.9708,-1.9708,-1.9708,-1.9708,-1.9708,-1.9708,-1.9708,-1.9708,-1.9708,-1.9708,-1.9708,-1.9708,-1.9708,-1.9708,-1.9708,-1.9708,-1.9708,-1.9708,-1.9708,-1.9708,-1.9708,-1.9708,-1.9708,-1.9225,-1.8968,-1.9151,-1.9006,-1.9132,-1.9639,-1.9369,-1.9314,-1.969,-1.9369,-1.9332,-1.969,-1.9708,-1.9708,-1.9708,-1.9708,-1.9708,-1.9708,-1.9708,-1.9708,-1.9708,-1.9708,-1.9708,-1.4219,-1.4358,-1.4358,-1.4358,-1.458,-1.4852,-1.498,-1.5225,-1.541,-1.541,-1.541,-1.541,-1.541,-1.541,-1.5644,-1.6367,-1.659,0.0,0.0,0.0,0.0,0.0,0.0,0.0,0.0,0.0,0.0,0.0,0.0,0.0,-1.7436,-1.6835,-1.65,-1.65,-1.65,-1.65,-1.65,-1.65,-1.65,-1.65,-1.65,-1.65,-1.65,-1.65,-1.65,0.0,0.0,0.0,0.0,-1.65,-1.65,-1.65,-1.65,-1.6689,-1.6993,-1.6993,-1.7353,-1.7847,-1.8185,-1.8438,-1.865,-1.8987,-1.9225,-1.9442,-1.9639,-1.9708,-1.9708,-1.9708,-1.9708,-1.9708,-1.9708,-1.9708,-1.9708,-1.9708,-1.9708,-1.9708,-1.9708,-1.9708,-1.9708,-1.9708,-1.9708,-1.9708,-1.9708,-1.9708,-1.9708,-1.9708,-1.9708,-1.9621,-1.9424,-1.893,-1.8593,-1.8593,-1.8419,-1.8516,-1.9043,-1.8987,-1.9043,-1.9387,-1.8893,-1.8836,-1.9387,-1.9406,-1.9479,-1.9708,-1.9708,-1.9708,-1.9708,-1.9708,-1.9708,-1.9708,-1.9708,-1.9708,0.0,-1.4813,-1.4813,-1.4813,-1.4805,-1.4932,-1.5322,-1.541,0.0,-1.541,-1.541,-1.542,-1.5449,-1.5459,-1.5625,-1.6153,-1.6553,0.0,0.0,0.0,0.0,0.0,0.0,0.0,0.0,0.0,0.0,0.0,0.0,0.0,-1.7436,-1.6835,-1.65,-1.65,-1.65,-1.65,-1.65,-1.65,-1.65,-1.65,-1.65,-1.65,-1.65,-1.65,-1.65,0.0,0.0,0.0,0.0,-1.65,-1.65,-1.65,-1.65,-1.65,-1.65,-1.65,-1.6816,-1.725,-1.7291,-1.7626,-1.8046,-1.8086,-1.8438,-1.8949,-1.9479,-1.9672,-1.9708,-1.9708,-1.9708,-1.9708,-1.9708,-1.9708,-1.9708,-1.9708,-1.9708,-1.9708,-1.9708,-1.9708,-1.9708,-1.9708,-1.9708,-1.9708,-1.9708,-1.9708,-1.9708,-1.9708,-1.9672,-1.946,-1.8968,-1.84,-1.8046,-1.8046,-1.7605,-1.7504,-1.8007,-1.8496,-1.8798,-1.8836,-1.8341,-1.8283,-1.8817,-1.8836,-1.9114,-1.9621,-1.9639,-1.9639,-1.9639,-1.9639,-1.9657,-1.9708,-1.9708,-1.9708,-1.4551,0.0,-1.4813,-1.4813,-1.5029,-1.5293,0.0,-1.541,-1.541,-1.541,-1.541,-1.5508,-1.588,-1.5938,-1.63,-1.7373,0.0,0.0,0.0,0.0,0.0,0.0,0.0,0.0,0.0,0.0,0.0,0.0,0.0,-1.7513,-1.741,-1.6835,-1.65,-1.65,-1.65,-1.65,-1.65,-1.65,-1.65,-1.65,-1.65,-1.65,-1.65,-1.65,-1.65,0.0,0.0,0.0,-1.65,-1.65,-1.65,-1.65,-1.65,-1.65,-1.65,-1.65,-1.6573,-1.6752,-1.7146,-1.7394,-1.7565,-1.7967,-1.8204,-1.84,-1.893,-1.9369,-1.9708,-1.9708,-1.9708,-1.9708,-1.9708,-1.9708,-1.9708,-1.9708,-1.9708,-1.9708,-1.9708,-1.9708,-1.9708,-1.9708,-1.9708,-1.9708,-1.9708,-1.9708,-1.9708,-1.9708,-1.935,-1.9043,-1.893,-1.8066,-1.7483,-1.7483,-1.7394,-1.7353,-1.7483,-1.7605,-1.7847,-1.8263,-1.7787,-1.7727,-1.8283,-1.8302,-1.8535,-1.908,-1.9095,-1.9095,-1.9095,-1.9095,-1.9299,-1.9708,-1.9708,-1.9708,-1.3815,-1.4482,-1.5127,-1.5351,-1.5576,-1.5703,-1.5703,-1.5557,-1.541,-1.541,-1.541,-1.5547,-1.6007,-1.6095,-1.6457,0.0,-1.7725,0.0,0.0,0.0,0.0,0.0,0.0,0.0,0.0,0.0,0.0,0.0,0.0,-1.7285,-1.6999,-1.6685,-1.65,-1.65,-1.65,-1.65,-1.65,-1.65,-1.65,-1.65,-1.65,-1.65,-1.65,-1.65,-1.65,0.0,0.0,0.0,-1.65,-1.65,-1.65,-1.65,-1.65,-1.65,-1.65,-1.65,-1.65,-1.6531,-1.6837,-1.693,-1.7013,-1.7565,-1.7727,-1.7827,-1.838,-1.8727,-1.9062,-1.9566,-1.9708,-1.9639,-1.9406,-1.953,-1.9639,-1.9387,-1.9332,-1.9406,-1.9639,-1.9314,-1.9043,-1.9281,-1.9132,-1.8968,-1.8968,-1.8968,-1.8968,-1.8968,-1.8708,-1.8438,-1.8204,-1.7666,-1.7209,-1.6951,-1.693,-1.693,-1.693,-1.693,-1.7146,-1.7706,-1.7229,-1.7167,-1.7706,-1.7727,-1.7987,-1.8516,-1.8535,-1.8535,-1.8535,-1.8535,-1.8817,-1.9332,-1.9332,-1.946,-1.314,-1.4268,-1.5469,-1.5743,-1.5948,-1.6075,-1.6007,-1.5684,-1.541,-1.541,0.0,-1.5644,-1.6114,-1.6251,0.0,0.0,0.0,0.0,0.0,0.0,0.0,0.0,0.0,0.0,0.0,0.0,0.0,0.0,0.0,-1.7036,-1.6525,-1.65,-1.65,-1.65,-1.65,-1.65,-1.65,-1.65,-1.65,-1.65,-1.65,-1.65,-1.65,-1.65,-1.65,-1.65,0.0,0.0,-1.65,-1.65,-1.65,-1.65,-1.65,-1.65,-1.65,-1.65,-1.65,-1.65,-1.65,-1.65,-1.6573,-1.7034,-1.7167,-1.7271,-1.7827,-1.7987,-1.8185,-1.9188,-1.946,-1.935,-1.8893,-1.9132,-1.935,-1.8893,-1.8779,-1.8893,-1.9369,-1.8727,-1.8243,-1.8688,-1.8477,-1.8204,-1.8125,-1.8185,-1.8204,-1.8125,-1.8027,-1.7807,-1.7374,-1.7229,-1.6993,-1.6552,-1.65,-1.65,-1.65,-1.65,-1.6701,-1.7146,-1.6752,-1.6689,-1.7146,-1.725,-1.7483,-1.7847,-1.7947,-1.7987,-1.7987,-1.7987,-1.8263,-1.8779,-1.8855,-1.9151,-1.4226,-1.4941,-1.5225,-1.4562,-1.5254,-1.5997,-1.5596,-1.5459,-1.541,0.0,0.0,0.0,0.0,-1.6934,-1.7376,0.0,0.0,0.0,0.0,0.0,0.0,0.0,0.0,0.0,0.0,0.0,0.0,0.0,0.0,-1.6588,-1.65,-1.65,-1.65,-1.65,-1.65,-1.65,-1.65,-1.65,-1.65,-1.65,-1.65,-1.65,-1.65,-1.65,-1.65,-1.65,0.0,-1.65,-1.65,-1.65,-1.65,-1.65,-1.65,-1.65,-1.65,-1.65,-1.65,-1.65,-1.65,-1.65,-1.6522,-1.6595,-1.6616,-1.671,-1.725,-1.7435,-1.7544,-1.8185,-1.8361,-1.8341,-1.8243,-1.8283,-1.8322,-1.8243,-1.8224,-1.8263,-1.8341,-1.8224,-1.8125,-1.8224,-1.8516,-1.8631,-1.8185,-1.8477,-1.8612,-1.8185,-1.7706,-1.7394,-1.7312,-1.6888,-1.6595,-1.6522,-1.65,-1.65,-1.65,-1.65,-1.6531,-1.6616,-1.6552,-1.6531,-1.6616,-1.7055,-1.7126,-1.6752,-1.7188,-1.7435,-1.7435,-1.7435,-1.7706,-1.8243,-1.8688,-1.8949,-1.3619,-1.4404,-1.498,-1.458,-1.5635,-1.675,-1.6523,-1.6299,-1.6093,0.0,0.0,0.0,0.0,0.0,-1.7519,-1.7939,0.0,0.0,0.0,0.0,0.0,0.0,0.0,0.0,0.0,0.0,0.0,0.0,0.0,0.0,-1.65,-1.65,-1.65,-1.65,-1.65,-1.65,-1.65,-1.65,-1.65,-1.65,-1.65,-1.65,-1.65,-1.65,-1.65,-1.65,0.0,-1.65,-1.65,-1.65,-1.65,-1.65,-1.65,-1.65,-1.65,-1.65,-1.65,-1.65,-1.65,-1.65,-1.65,-1.65,-1.65,-1.6552,-1.6795,-1.6879,-1.6909,-1.7167,-1.7646,-1.8027,-1.7747,-1.7887,-1.8027,-1.7747,-1.7666,-1.7747,-1.8046,-1.7646,-1.7333,-1.7605,-1.7626,-1.7524,-1.7271,-1.7442,-1.7524,-1.7271,-1.7034,-1.6879,-1.6879,-1.6659,-1.65,-1.65,-1.65,-1.65,-1.65,-1.65,-1.65,-1.65,-1.65,-1.65,-1.65,-1.6731,-1.6752,-1.65,-1.6731,-1.6879,-1.6879,-1.6879,-1.7126,-1.7666,-1.7927,-1.8361,-1.3125,-1.3965,-1.4862,-1.5058,-1.6114,-1.7132,-1.7207,-1.6894,-1.6602,-1.6677,0.0,0.0,0.0,-1.7461,0.0,0.0,0.0,0.0,0.0,0.0,0.0,0.0,0.0,0.0,0.0,0.0,0.0,0.0,0.0,0.0,-1.65,-1.65,-1.65,-1.65,-1.65,-1.65,-1.65,-1.65,-1.65,-1.65,-1.65,-1.65,-1.65,-1.65,-1.65,-1.65,-1.65,-1.65,-1.65,-1.65,-1.65,-1.65,-1.65,-1.65,-1.65,-1.65,-1.65,-1.65,-1.65,-1.65,-1.65,-1.65,-1.65,-1.65,-1.65,-1.65,-1.65,-1.65,-1.7097,-1.7626,-1.7209,-1.7435,-1.7626,-1.7209,-1.7118,-1.7229,-1.7646,-1.7076,-1.6616,-1.7034,-1.6879,-1.6659,-1.6522,-1.6595,-1.6637,-1.6522,-1.65,-1.65,-1.65,-1.65,-1.65,-1.65,-1.65,-1.65,-1.65,-1.65,-1.65,-1.65,-1.65,-1.65,-1.65,-1.65,-1.65,-1.65,-1.65,-1.65,-1.65,-1.65,-1.671,-1.7105,-1.7229,-1.7747,-1.3802,-1.4404,-1.4999,-1.5801,-1.6095,-1.63,-1.6658,-1.6436,-1.6261,-1.6619,0.0,0.0,0.0,-1.7705,0.0,0.0,0.0,0.0,0.0,0.0,0.0,0.0,0.0,0.0,0.0,0.0,0.0,0.0,0.0,0.0,-1.6466,-1.65,-1.65,-1.65,-1.65,-1.65,-1.65,-1.65,-1.65,-1.65,-1.65,-1.65,-1.65,-1.65,-1.65,-1.65,-1.65,-1.65,-1.65,-1.65,-1.65,-1.65,-1.65,-1.65,-1.65,-1.65,-1.65,-1.65,-1.65,-1.65,-1.65,-1.65,-1.65,-1.65,-1.65,-1.65,-1.65,-1.65,-1.6552,-1.6616,-1.6573,-1.6595,-1.6616,-1.6573,-1.6552,-1.6573,-1.6616,-1.6552,-1.6522,-1.6552,-1.693,-1.7076,-1.6595,-1.6909,-1.7076,-1.6573,-1.65,-1.65,-1.65,-1.65,-1.65,-1.65,-1.65,-1.65,-1.65,-1.65,-1.65,-1.65,-1.65,-1.65,-1.65,-1.65,-1.65,-1.65,-1.65,-1.65,-1.65,-1.65,-1.6522,-1.6573,-1.7076,-1.7353,-1.3271,-1.4053,-1.4891,-1.5214,-1.5694,-1.6281,-1.6973,-1.7012,-1.7012,-1.7441,-1.7656,0.0,0.0,0.0,0.0,0.0,0.0,0.0,0.0,0.0,0.0,0.0,0.0,0.0,0.0,0.0,0.0,0.0,0.0,0.0,0.0,-1.6293,-1.65,-1.65,-1.65,-1.65,-1.65,-1.65,-1.65,-1.65,-1.65,-1.65,-1.65,-1.65,-1.65,-1.65,-1.65,-1.65,-1.65,-1.65,-1.65,-1.65,-1.65,-1.65,-1.65,-1.65,-1.65,-1.65,-1.65,-1.65,-1.65,-1.65,-1.65,-1.65,-1.65,-1.65,-1.65,-1.65,-1.65,-1.65,-1.65,-1.65,-1.65,-1.65,-1.65,-1.65,-1.65,-1.65,-1.65,-1.65,-1.6659,-1.6731,-1.6543,-1.668,-1.6731,-1.6543,-1.65,-1.65,-1.65,-1.65,-1.65,-1.65,-1.65,-1.65,-1.65,-1.65,-1.65,-1.65,-1.65,-1.65,-1.65,-1.65,-1.65,-1.65,-1.65,-1.65,-1.65,-1.65,-1.65,-1.65,-1.671,-1.6972,-1.3076,-1.3942,-1.4814,-1.4951,-1.5557,-1.632,-1.721,-1.7275,-1.7334,-1.79,-1.79,-1.7686,-1.7256,0.0,0.0,0.0,0.0,0.0,0.0,0.0,0.0,0.0,0.0,0.0,0.0,0.0,0.0,0.0,0.0,0.0,0.0,-1.5986,-1.6303,-1.6488,-1.65,-1.65,-1.65,-1.65,-1.65,-1.65,-1.65,-1.65,-1.65,-1.65,-1.65,-1.65,-1.65,-1.65,-1.65,-1.65,-1.65,-1.65,-1.65,-1.65,-1.65,-1.65,-1.65,-1.65,-1.65,-1.65,-1.65,-1.65,-1.65,-1.65,-1.65,-1.65,-1.65,-1.65,-1.65,-1.65,-1.65,-1.65,-1.65,-1.65,-1.65,-1.65,-1.65,-1.65,-1.65,-1.65,-1.65,-1.65,-1.65,-1.65,-1.65,-1.65,-1.65,-1.65,-1.65,-1.65,-1.65,-1.65,-1.65,-1.65,-1.65,-1.65,-1.65,-1.65,-1.65,-1.65,-1.65,-1.65,-1.65,-1.65,-1.65,-1.65,-1.65,-1.65,-1.65,-1.65,-1.65,-1.6689,-1.3506,-1.4131,-1.4893,-1.5312,0.0,0.0,-1.721,-1.7041,-1.6941,-1.7822,-1.7666,-1.7246,-1.6775,0.0,0.0,0.0,0.0,0.0,0.0,0.0,0.0,0.0,0.0,0.0,0.0,0.0,0.0,0.0,0.0,0.0,0.0,-1.5576,-1.5864,-1.6466,-1.65,-1.65,-1.65,-1.65,-1.65,-1.65,-1.65,-1.65,-1.65,-1.65,-1.65,-1.65,-1.65,-1.65,-1.65,-1.65,-1.65,-1.65,-1.65,-1.65,-1.65,-1.65,-1.65,-1.65,-1.65,-1.65,-1.65,-1.65,-1.65,-1.65,-1.65,-1.65,-1.65,-1.65,-1.65,-1.65,-1.65,-1.65,-1.65,-1.65,-1.65,-1.65,-1.65,-1.65,-1.65,-1.65,-1.65,-1.65,-1.65,-1.65,-1.65,-1.65,-1.65,-1.65,-1.65,-1.65,-1.65,-1.65,-1.65,-1.65,-1.65,-1.65,-1.65,-1.65,-1.65,-1.65,-1.65,-1.65,-1.65,-1.65,-1.65,-1.65,-1.65,-1.65,-1.65,-1.65,-1.65,-1.65,-1.3584,-1.4346,0.0,-1.5381,0.0,0.0,0.0,-1.6794,0.0,0.0,-1.698,-1.6787,-1.6378,0.0,0.0,0.0,0.0,0.0,0.0,0.0,0.0,0.0,0.0,0.0,0.0,0.0,0.0,0.0,0.0,0.0,0.0,-1.5129,-1.5676,-1.5864,-1.6281,-1.65,-1.65,-1.65,-1.65,-1.65,-1.65,-1.65,-1.65,-1.65,-1.65,-1.65,-1.65,-1.65,-1.65,-1.65,-1.65,-1.65,-1.65,-1.65,-1.65,-1.65,-1.65,-1.65,-1.65,-1.65,-1.65,-1.65,-1.65,-1.65,-1.65,-1.65,-1.65,-1.65,-1.65,-1.65,-1.65,-1.65,-1.65,-1.65,-1.65,-1.65,-1.65,-1.65,-1.65,-1.65,-1.65,-1.65,-1.65,-1.65,-1.65,-1.65,-1.65,-1.65,-1.65,-1.65,-1.65,-1.65,-1.65,-1.65,-1.65,-1.65,-1.65,-1.65,-1.65,-1.65,-1.65,-1.65,-1.65,-1.65,-1.65,-1.65,-1.65,-1.65,-1.65,-1.65,-1.65,-1.65,-1.4043,-1.4697,0.0,-1.5625,-1.6074,-1.6465,-1.6465,0.0,0.0,0.0,-1.656,-1.6387,-1.6144,0.0,0.0,0.0,0.0,0.0,0.0,0.0,0.0,0.0,0.0,0.0,0.0,0.0,0.0,0.0,0.0,0.0,0.0,-1.4618,-1.5197,-1.593,-1.6073,-1.6259,-1.65,-1.65,-1.65,-1.65,-1.65,-1.65,-1.65,-1.65,-1.65,-1.65,-1.65,-1.65,-1.65,-1.65,-1.65,-1.65,-1.65,-1.65,-1.65,-1.65,-1.65,-1.65,-1.65,-1.65,-1.65,-1.65,-1.65,-1.65,-1.65,-1.65,-1.65,-1.65,-1.65,-1.65,-1.65,-1.65,-1.65,-1.65,-1.65,-1.65,-1.65,-1.65,-1.65,-1.65,-1.65,-1.65,-1.65,-1.65,-1.65,-1.65,-1.65,-1.65,-1.65,-1.65,-1.65,-1.65,-1.65,-1.65,-1.65,-1.65,-1.65,-1.65,-1.65,-1.65,-1.65,-1.65,-1.65,-1.65,-1.65,-1.65,-1.65,-1.65,-1.65,-1.65,-1.65,-1.65,-1.4687,-1.5088,-1.5518,-1.5987,-1.6095,0.0,-1.6095,-1.6348,-1.658,-1.658,0.0,-1.6036,0.0,0.0,0.0,0.0,0.0,0.0,0.0,0.0,0.0,0.0,0.0,0.0,0.0,0.0,0.0,0.0,0.0,0.0,0.0,-1.412,-1.4641,-1.6281,-1.5908,-1.5964,-1.6488,-1.65,-1.65,-1.65,-1.65,-1.65,-1.65,-1.65,-1.65,-1.65,-1.65,-1.65,-1.65,-1.65,-1.65,-1.65,-1.65,-1.65,-1.65,-1.65,-1.65,-1.65,-1.65,-1.65,-1.65,-1.65,-1.65,-1.65,-1.65,-1.65,-1.65,-1.65,-1.65,-1.65,-1.65,-1.65,-1.65,-1.65,-1.65,-1.65,-1.65,-1.65,-1.65,-1.65,-1.65,-1.65,-1.65,-1.65,-1.65,-1.65,-1.65,-1.65,-1.65,-1.65,-1.65,-1.65,-1.65,-1.65,-1.65,-1.65,-1.65,-1.65,-1.65,-1.65,-1.65,-1.65,-1.65,-1.65,-1.65,-1.65,-1.65,-1.65,-1.65,-1.65,-1.65,-1.65,-1.4844,-1.5088,0.0,-1.5987,-1.6095,-1.6095,-1.6095,-1.5869,-1.5693,-1.5693,-1.5615,0.0,0.0,0.0,0.0,0.0,0.0,0.0,0.0,0.0,0.0,0.0,0.0,0.0,0.0,0.0,0.0,0.0,0.0,0.0,-1.3272,-1.4061,-1.4675,-1.5062,-1.5876,-1.638,-1.65,-1.65,-1.65,0.0,-1.65,-1.65,-1.65,-1.65,-1.65,-1.65,-1.65,-1.65,-1.65,-1.65,-1.65,-1.65,-1.65,-1.65,-1.65,-1.65,-1.65,-1.65,-1.65,-1.65,-1.65,-1.65,-1.65,-1.65,-1.65,-1.65,-1.65,-1.65,-1.65,-1.65,-1.65,-1.65,-1.65,-1.65,-1.65,-1.65,-1.65,-1.65,-1.65,-1.65,-1.65,-1.65,-1.65,-1.65,-1.65,-1.65,-1.65,-1.65,-1.65,-1.65,-1.65,-1.65,-1.65,-1.65,-1.65,-1.65,-1.65,-1.65,-1.65,-1.65,-1.65,-1.65,-1.65,-1.65,-1.65,-1.65,-1.65,-1.65,-1.65,-1.65,-1.65,-1.65,-1.5088,0.0,0.0,-1.5693,0.0,-1.5752,-1.5752,-1.5576,-1.541,-1.541,-1.5254,0.0,0.0,0.0,0.0,0.0,0.0,0.0,0.0,0.0,0.0,0.0,0.0,0.0,0.0,0.0,0.0,0.0,0.0,-1.3041,-1.331,-1.392,-1.4537,-1.5096,-1.5732,-1.6216,-1.65,-1.65,-1.65,-1.65,-1.65,-1.65,-1.65,-1.65,-1.65,-1.65,-1.65,-1.65,-1.65,-1.65,-1.65,-1.65,-1.65,-1.65,-1.65,-1.65,-1.65,-1.65,-1.65,-1.65,-1.65,-1.65,-1.65,-1.65,-1.65,-1.65,-1.65,-1.65,-1.65,-1.65,-1.65,-1.65,-1.65,-1.65,-1.65,-1.65,-1.65,-1.65,-1.65,-1.65,-1.65,-1.65,-1.65,-1.65,-1.65,-1.65,-1.65,-1.65,-1.65,-1.65,-1.65,-1.65,-1.65,-1.65,-1.65,-1.65,-1.65,-1.65,-1.65,-1.65,-1.65,-1.65,-1.65,-1.65,-1.65,-1.65,-1.65,-1.65,-1.65,-1.65,-1.65,-1.65,-1.5288,0.0,-1.5322,-1.5391,-1.541,0.0,-1.541,-1.541,-1.541,-1.541,0.0,0.0,0.0,0.0,0.0,0.0,0.0,0.0,0.0,0.0,0.0,0.0,0.0,0.0,0.0,0.0,0.0,0.0,0.0,-1.3128,-1.3613,-1.3745,-1.4318,-1.541,-1.5543,-1.5886,-1.6488,-1.65,-1.65,-1.65,-1.65,-1.65,-1.65,-1.65,-1.65,-1.65,-1.65,-1.65,-1.65,-1.65,-1.65,-1.65,-1.65,-1.65,-1.65,-1.65,-1.65,-1.65,-1.65,-1.65,-1.65,-1.65,-1.65,-1.65,-1.65,-1.65,-1.65,-1.65,-1.65,-1.65,-1.65,-1.65,-1.65,-1.65,-1.65,-1.65,-1.65,-1.65,-1.65,-1.65,-1.65,-1.65,-1.65,-1.65,-1.65,-1.65,-1.65,-1.65,-1.65,-1.65,-1.65,-1.65,-1.65,-1.65,-1.65,-1.65,-1.65,-1.65,-1.65,-1.65,-1.65,-1.65,-1.65,-1.65,-1.65,-1.65,-1.65,-1.65,-1.65,-1.65,-1.65,-1.65,-1.5219,0.0,-1.4951,0.0,-1.541,-1.541,0.0,0.0,-1.541,0.0,0.0,0.0,0.0,0.0,0.0,0.0,0.0,0.0,0.0,0.0,0.0,0.0,0.0,0.0,0.0,0.0,0.0,0.0,-1.2905,-1.2954,-1.3017,-1.3529,-1.412,-1.4789,-1.532,-1.5886,-1.6488,-1.65,-1.65,-1.65,-1.65,-1.65,-1.65,-1.65,-1.65,-1.65,-1.65,-1.65,-1.65,-1.65,-1.65,-1.65,-1.65,-1.65,-1.65,-1.65,-1.65,-1.65,-1.65,-1.65,-1.65,-1.65,-1.65,-1.65,-1.65,-1.65,-1.65,-1.65,-1.65,-1.65,-1.65,-1.65,-1.65,-1.65,-1.65,-1.65,-1.65,-1.65,-1.65,-1.65,-1.65,-1.65,-1.65,-1.65,-1.65,-1.65,-1.65,-1.65,-1.65,-1.65,-1.65,-1.65,-1.65,-1.65,-1.65,-1.65,-1.65,-1.65,-1.65,-1.65,-1.65,-1.65,-1.65,-1.65,-1.65,-1.65,-1.65,-1.65,-1.65,-1.65,-1.65,-1.65,-1.584,-1.5679,-1.5576,0.0,-1.5781,-1.5713,-1.5469,0.0,-1.541,0.0,0.0,0.0,0.0,0.0,0.0,0.0,0.0,0.0,0.0,0.0,0.0,0.0,0.0,0.0,0.0,0.0,0.0,0.0,-1.2905,-1.2905,-1.2905,-1.3457,-1.3909,-1.419,-1.5118,-1.5732,-1.5986,-1.6324,-1.65,-1.65,-1.65,-1.65,-1.65,-1.65,-1.65,-1.65,-1.65,-1.65,-1.65,-1.65,-1.65,-1.65,-1.65,-1.65,-1.65,-1.65,-1.65,-1.65,-1.65,-1.65,-1.65,-1.65,-1.65,-1.65,-1.65,-1.65,-1.65,-1.65,-1.65,-1.65,-1.65,-1.65,-1.65,-1.65,-1.65,-1.65,-1.65,-1.65,-1.65,-1.65,-1.65,-1.6595,-1.6888,-1.6689,-1.6595,-1.6888,-1.6701,-1.65,-1.65,-1.65,-1.65,-1.65,-1.65,-1.65,-1.65,-1.681,-1.6861,-1.6513,-1.6823,-1.6861,-1.6513,-1.65,-1.65,-1.65,-1.65,-1.65,-1.65,-1.65,-1.65,-1.65,-1.65,-1.65,0.0,0.0,-1.6019,-1.6066,-1.6183,-1.6113,0.0,0.0,0.0,0.0,0.0,0.0,0.0,0.0,0.0,0.0,0.0,0.0,0.0,0.0,0.0,0.0,0.0,0.0,0.0,0.0,0.0,0.0,-1.2905,-1.2905,-1.2905,-1.3334,-1.3708,-1.4027,-1.4892,-1.5521,-1.582,-1.6281,-1.65,-1.65,-1.65,-1.65,-1.65,-1.65,-1.65,-1.65,-1.65,-1.65,-1.65,-1.65,-1.65,-1.65,-1.65,-1.65,-1.65,-1.65,-1.65,-1.65,-1.65,-1.65,-1.65,-1.65,-1.65,-1.65,-1.65,-1.65,-1.65,-1.65,-1.65,-1.65,-1.65,-1.65,-1.65,-1.65,-1.65,-1.65,-1.65,-1.65,-1.65,-1.65,-1.65,-1.6637,-1.7034,-1.6752,-1.6637,-1.7034,-1.6752,-1.655,-1.6722,-1.6735,-1.6763,-1.6914,-1.6926,-1.6926,-1.6926,-1.7338,-1.74,-1.6951,-1.735,-1.74,-1.6939,-1.681,-1.6735,-1.6735,-1.6575,-1.65,-1.65,-1.65,-1.65,-1.65,-1.65,-1.65,0.0,-1.5728,0.0,-1.6039,-1.6387,0.0,0.0,0.0,0.0,0.0,0.0,0.0,0.0,0.0,0.0,0.0,0.0,0.0,0.0,0.0,0.0,0.0,0.0,0.0,0.0,0.0,0.0,0.0,-1.2905,-1.2905,-1.2905,-1.2929,-1.3478,-1.4617,-1.4698,-1.5299,-1.6445,-1.6466,-1.65,-1.65,-1.65,-1.65,-1.65,-1.65,-1.65,-1.65,-1.65,-1.65,-1.65,-1.65,-1.65,-1.65,-1.65,-1.65,-1.65,-1.65,-1.65,-1.65,-1.65,-1.65,-1.65,-1.65,-1.65,-1.65,-1.65,-1.65,-1.65,-1.65,-1.65,-1.65,-1.65,-1.65,-1.65,-1.65,-1.65,-1.65,-1.65,-1.65,-1.65,-1.65,-1.65,-1.6522,-1.6531,-1.6522,-1.6522,-1.6531,-1.6522,-1.6722,-1.7285,-1.736,-1.7561,-1.8066,-1.8116,-1.8116,-1.8116,-1.8141,-1.8141,-1.8116,-1.8141,-1.8141,-1.8116,-1.7614,-1.736,-1.736,-1.6798,-1.65,-1.65,-1.65,-1.65,-1.65,-1.65,-1.65,0.0,0.0,0.0,-1.63,-1.6596,-1.6658,-1.5831,0.0,0.0,0.0,0.0,0.0,0.0,0.0,0.0,0.0,0.0,0.0,0.0,0.0,0.0,0.0,0.0,0.0,0.0,0.0,0.0,0.0,0.0,-1.2905,-1.2905,-1.2905,-1.3272,-1.4097,-1.4491,-1.5265,-1.65,-1.65,-1.65,-1.65,-1.65,-1.65,-1.65,-1.65,-1.65,-1.65,-1.65,-1.65,-1.65,-1.65,-1.65,-1.65,-1.65,-1.65,-1.65,-1.65,-1.65,-1.65,-1.65,-1.65,-1.65,-1.65,-1.65,-1.65,-1.65,-1.65,-1.65,-1.65,-1.65,-1.65,-1.65,-1.65,-1.65,-1.65,-1.65,-1.65,-1.65,-1.65,-1.65,-1.65,-1.6774,-1.7105,-1.7463,-1.7229,-1.7126,-1.7483,-1.7265,-1.7149,-1.7373,-1.7689,-1.799,-1.8179,-1.8204,-1.8204,-1.8204,-1.853,-1.8556,-1.8229,-1.8506,-1.8393,-1.7725,-1.7511,-1.7212,-1.6835,-1.66,-1.65,-1.65,-1.65,-1.65,-1.65,-1.65,-1.65,-1.6645,0.0,0.0,0.0,0.0,-1.7149,-1.6396,0.0,0.0,0.0,0.0,0.0,0.0,0.0,0.0,0.0,0.0,0.0,0.0,0.0,0.0,0.0,0.0,0.0,0.0,0.0,0.0,0.0,0.0,0.0,-1.2905,-1.3079,-1.3576,-1.4388,-1.4983,-1.5678,-1.65,-1.65,-1.65,-1.65,-1.65,-1.65,-1.65,-1.65,-1.65,-1.65,-1.65,-1.65,-1.65,-1.65,-1.65,-1.65,-1.65,-1.65,-1.65,-1.65,-1.65,-1.65,-1.65,-1.65,-1.65,-1.65,-1.65,-1.65,-1.65,-1.65,-1.65,-1.65,-1.65,-1.65,-1.65,-1.65,-1.65,-1.65,-1.65,-1.65,-1.65,-1.65,-1.65,-1.65,-1.6795,-1.7188,-1.7747,-1.7394,-1.7209,-1.7747,-1.7414,-1.7162,-1.7373,-1.7865,-1.8279,-1.8455,-1.8643,-1.8744,-1.8744,-1.9058,-1.9033,-1.8494,-1.8795,-1.8594,-1.7725,-1.7511,-1.72,-1.681,-1.6588,-1.65,-1.65,-1.65,-1.65,-1.65,-1.65,-1.65,0.0,0.0,0.0,0.0,0.0,0.0,-1.7806,0.0,0.0,0.0,0.0,0.0,0.0,0.0,0.0,0.0,0.0,0.0,0.0,0.0,0.0,0.0,0.0,0.0,0.0,0.0,0.0,0.0,-1.2905,-1.2905,-1.2905,-1.3481,-1.4365,-1.5565,-1.6194,-1.65,-1.65,-1.65,-1.65,-1.65,-1.65,-1.65,-1.65,-1.65,-1.65,-1.65,-1.65,-1.65,-1.65,-1.65,-1.65,-1.65,-1.65,-1.65,-1.65,-1.65,-1.65,-1.65,-1.65,-1.65,-1.65,-1.65,-1.65,-1.65,-1.65,-1.65,-1.65,-1.65,-1.65,-1.65,-1.65,-1.65,-1.65,-1.65,-1.65,-1.65,-1.65,-1.65,-1.65,-1.65,-1.6522,-1.6701,-1.7209,-1.6892,-1.6714,-1.7209,-1.6876,-1.6763,-1.736,-1.789,-1.8406,-1.8945,-1.9472,-1.9773,-1.9773,-1.9773,-1.956,-1.9033,-1.8995,-1.8732,-1.8204,-1.7664,-1.7398,-1.7373,-1.681,-1.65,-1.65,-1.6466,-1.6466,-1.6466,-1.6466,-1.6466,-1.6679,0.0,0.0,0.0,0.0,0.0,0.0,0.0,0.0,0.0,0.0,0.0,0.0,0.0,0.0,0.0,0.0,0.0,0.0,0.0,0.0,0.0,0.0,0.0,0.0,0.0,0.0,0.0,-1.2905,-1.2905,-1.2905,-1.3884,-1.4801,-1.5588,-1.6194,-1.65,-1.65,-1.65,-1.65,-1.65,-1.65,-1.65,-1.65,-1.65,-1.65,-1.65,-1.65,-1.65,-1.65,-1.65,-1.65,-1.65,-1.65,-1.65,-1.65,-1.65,-1.65,-1.65,-1.65,-1.65,-1.65,-1.65,-1.65,-1.65,-1.65,-1.65,-1.65,-1.65,-1.65,-1.65,-1.65,-1.65,-1.65,-1.65,-1.65,-1.65,-1.65,-1.65,-1.65,-1.65,-1.6816,-1.7126,-1.7271,-1.7534,-1.7635,-1.7337,-1.7888,-1.8218,-1.8003,-1.8455,-1.8832,-1.8983,-1.9133,-1.9221,-1.9221,-1.9221,-1.9158,-1.9008,-1.8632,-1.8191,-1.7626,-1.7486,-1.7187,-1.6773,-1.6597,-1.65,-1.65,-1.6051,-1.5842,-1.5842,-1.5842,-1.6073,-1.7839,-1.7852,0.0,0.0,0.0,0.0,0.0,-1.7649,0.0,0.0,0.0,0.0,0.0,0.0,0.0,0.0,0.0,0.0,0.0,0.0,0.0,0.0,0.0,0.0,0.0,-1.3013,-1.2905,-1.2905,-1.2905,-1.3017,-1.3262,-1.4177,-1.4994,-1.5588,-1.6194,-1.65,-1.65,-1.65,-1.65,-1.65,-1.65,-1.65,-1.65,-1.65,-1.65,-1.65,-1.65,-1.65,-1.65,-1.65,-1.65,-1.65,-1.65,-1.65,-1.65,-1.65,-1.65,-1.65,-1.65,-1.65,-1.65,-1.65,-1.65,-1.65,-1.65,-1.65,-1.65,-1.65,-1.65,-1.65,-1.65,-1.65,-1.65,-1.65,-1.65,-1.65,-1.65,-1.65,-1.65,-1.65,-1.6752,-1.7034,-1.725,-1.7405,-1.7458,-1.7323,-1.7661,-1.7842,-1.7516,-1.8168,-1.8569,-1.8367,-1.8732,-1.8907,-1.8682,-1.8657,-1.8556,-1.8355,-1.8041,-1.7601,-1.7049,-1.7024,-1.6861,-1.65,-1.65,-1.625,-1.5744,-1.5666,-1.561,-1.561,-1.561,-1.593,-1.9414,-1.9301,0.0,0.0,0.0,0.0,-1.908,-1.8845,-1.8493,0.0,0.0,0.0,0.0,0.0,0.0,0.0,0.0,0.0,0.0,0.0,0.0,0.0,0.0,0.0,-1.3477,-1.3174,-1.2954,-1.2905,-1.2905,-1.3152,-1.3779,-1.4376,-1.4994,-1.5588,-1.6194,-1.65,-1.65,-1.65,-1.65,-1.65,-1.65,-1.65,-1.65,-1.65,-1.65,-1.65,-1.65,-1.65,-1.65,-1.65,-1.65,-1.65,-1.65,-1.65,-1.65,-1.65,-1.65,-1.65,-1.65,-1.65,-1.65,-1.65,-1.65,-1.65,-1.65,-1.65,-1.65,-1.65,-1.65,-1.65,-1.65,-1.65,-1.65,-1.65,-1.65,-1.65,-1.65,-1.65,-1.65,-1.65,-1.65,-1.6659,-1.7126,-1.6867,-1.6744,-1.7139,-1.6897,-1.6663,-1.66,-1.7488,-1.7953,-1.7513,-1.8355,-1.8719,-1.8242,-1.8204,-1.7965,-1.7436,-1.7348,-1.7049,-1.6513,-1.65,-1.65,-1.65,-1.65,-1.591,-1.4698,-1.5163,-1.542,-1.5499,-1.542,-1.5754,-2.0176,-2.0602,-2.0877,-1.8932,0.0,0.0,-1.8205,-1.8052,-1.8264,0.0,0.0,0.0,0.0,0.0,0.0,0.0,0.0,0.0,0.0,0.0,0.0,0.0,0.0,0.0,-1.3525,-1.3437,-1.3242,-1.2925,-1.2905,-1.3152,-1.3779,-1.4376,-1.4994,-1.5588,-1.6194,-1.65,-1.65,-1.65,-1.65,-1.65,-1.65,-1.65,-1.65,-1.65,-1.65,-1.65,-1.65,-1.65,-1.65,-1.65,-1.65,-1.65,-1.65,-1.65,-1.65,-1.65,-1.65,-1.65,-1.65,-1.65,-1.65,-1.65,-1.65,-1.65,-1.65,-1.65,-1.65,-1.65,-1.65,-1.65,-1.65,-1.65,-1.65,-1.65,-1.65,-1.65,-1.65,-1.65,-1.65,-1.65,-1.65,-1.6543,-1.6637,-1.6964,-1.7106,-1.6701,-1.7355,-1.7714,-1.7285,-1.7423,-1.7664,-1.8003,-1.8242,-1.8317,-1.8216,-1.8204,-1.7965,-1.7436,-1.6936,-1.6613,-1.65,-1.65,-1.65,-1.65,-1.65,-1.591,-1.4698,-1.4318,-1.4388,-1.4858,-1.4376,-1.4721,-2.1611,-2.1846,-2.1926,-2.0375,0.0,0.0,0.0,-1.9288,-1.9134,-1.9427,0.0,0.0,0.0,0.0,0.0,0.0,0.0,0.0,0.0,0.0,0.0,0.0,0.0,0.0,-1.415,-1.3945,-1.3617,-1.3223,-1.2998,-1.3041,-1.3324,-1.4201,-1.4835,-1.5141,-1.6042,-1.65,-1.65,-1.65,-1.65,-1.65,-1.65,-1.65,-1.65,-1.65,-1.65,-1.65,-1.65,-1.65,-1.65,-1.65,-1.65,-1.65,-1.65,-1.65,-1.65,-1.65,-1.65,-1.65,-1.65,-1.65,-1.65,-1.65,-1.65,-1.65,-1.65,-1.65,-1.65,-1.65,-1.65,-1.65,-1.65,-1.65,-1.65,-1.65,-1.65,-1.65,-1.65,-1.65,-1.65,-1.65,-1.65,-1.65,-1.65,-1.6999,-1.731,-1.6986,-1.7664,-1.8103,-1.7827,-1.8028,-1.8103,-1.7827,-1.8041,-1.7978,-1.739,-1.7626,-1.7551,-1.6986,-1.6948,-1.6823,-1.65,-1.65,-1.65,-1.65,-1.6194,-1.5754,-1.5141,-1.4226,-1.3956,-1.426,-1.426,-1.4583,0.0,0.0,0.0,0.0,0.0,-2.1551,0.0,0.0,0.0,-2.0435,0.0,0.0,0.0,0.0,0.0,0.0,0.0,0.0,0.0,0.0,0.0,0.0,0.0,0.0,0.0,-1.4673,-1.4195,-1.3848,-1.3307,-1.3023,-1.3023,-1.4091,-1.4698,-1.4698,-1.5876,-1.65,-1.65,-1.65,-1.65,-1.65,-1.65,-1.65,-1.65,-1.65,-1.65,-1.65,-1.65,-1.65,-1.65,-1.65,-1.65,-1.65,-1.65,-1.65,-1.65,-1.65,-1.65,-1.65,-1.65,-1.65,-1.65,-1.65,-1.65,-1.65,-1.65,-1.65,-1.65,-1.65,-1.65,-1.65,-1.65,-1.65,-1.65,-1.65,-1.65,-1.65,-1.65,-1.65,-1.6525,-1.6638,-1.6663,-1.6647,-1.6513,-1.6999,-1.741,-1.741,-1.7852,-1.8204,-1.8204,-1.8569,-1.8506,-1.7662,-1.794,-1.784,-1.6901,-1.7174,-1.7187,-1.6688,-1.7024,-1.6999,-1.6513,-1.65,-1.65,-1.65,-1.603,-1.572,-1.561,-1.4618,-1.4097,-1.398,-1.4236,-1.4433,0.0,0.0,0.0,0.0,-2.2999,0.0,0.0,0.0,-2.1075,-1.959,0.0,0.0,0.0,0.0,0.0,0.0,0.0,0.0,0.0,0.0,0.0,0.0,0.0,0.0,0.0,-1.5721,-1.506,-1.5007,-1.4037,-1.3437,-1.3437,-1.4238,-1.4698,-1.4698,-1.5876,-1.65,-1.65,-1.65,-1.65,-1.65,-1.65,-1.65,-1.65,-1.65,-1.65,-1.65,-1.65,-1.65,-1.65,-1.65,-1.65,-1.65,-1.65,-1.65,-1.65,-1.65,-1.65,-1.65,-1.65,-1.65,-1.65,-1.65,-1.65,-1.65,-1.65,-1.65,-1.65,-1.65,-1.65,-1.65,-1.65,-1.65,-1.65,-1.65,-1.65,-1.65,-1.65,-1.65,-1.6651,-1.7187,-1.731,-1.7124,-1.6588,-1.6999,-1.741,-1.741,-1.7852,-1.8204,-1.8204,-1.8254,-1.8254,-1.8129,-1.8166,-1.8154,-1.8028,-1.7626,-1.7373,-1.731,-1.6861,-1.6563,-1.65,-1.65,-1.65,-1.65,-1.6423,-1.6139,-1.561,-1.5477,-1.5118,-1.456,-1.3563,-1.3406,0.0,0.0,0.0,0.0,0.0,0.0,-2.1886,0.0,-2.1024,0.0,0.0,0.0,0.0,0.0,0.0,0.0,0.0,0.0,0.0,0.0,0.0,0.0,0.0,0.0,0.0,0.0,0.0,0.0,-1.5023,-1.4471,-1.4048,-1.5082,-1.5544,-1.522,-1.6051,-1.65,-1.65,-1.65,-1.65,-1.65,-1.65,-1.65,-1.65,-1.65,-1.65,-1.65,-1.65,-1.65,-1.65,-1.65,-1.65,-1.65,-1.65,-1.65,-1.65,-1.65,-1.65,-1.65,-1.65,-1.65,-1.65,-1.65,-1.65,-1.65,-1.65,-1.65,-1.65,-1.65,-1.65,-1.65,-1.65,-1.65,-1.65,-1.65,-1.65,-1.6588,-1.6948,-1.676,-1.6685,-1.7285,-1.741,-1.72,-1.66,-1.7262,-1.7852,-1.7852,-1.8053,-1.8317,-1.8619,-1.8405,-1.8078,-1.7765,-1.7727,-1.7589,-1.7227,-1.7325,-1.726,-1.6898,-1.6638,-1.65,-1.65,-1.65,-1.65,-1.65,-1.65,-1.638,-1.6117,-1.5776,-1.5477,-1.5208,-1.434,-1.3884,-2.334,0.0,0.0,0.0,0.0,0.0,0.0,0.0,0.0,0.0,0.0,0.0,0.0,0.0,0.0,0.0,0.0,0.0,0.0,0.0,0.0,0.0,0.0,0.0,0.0,0.0,0.0,0.0,0.0,-1.5523,-1.5121,-1.5946,-1.6217,-1.5836,-1.6268,-1.65,-1.65,-1.65,-1.65,-1.65,-1.65,-1.65,-1.65,-1.65,-1.65,-1.65,-1.65,-1.65,-1.65,-1.65,-1.65,-1.65,-1.65,-1.65,-1.65,-1.65,-1.65,-1.65,-1.65,-1.65,-1.65,-1.65,-1.65,-1.65,-1.65,-1.65,-1.65,-1.65,-1.65,-1.65,-1.65,-1.65,-1.65,-1.65,-1.65,-1.6672,-1.7262,-1.7049,-1.6923,-1.7524,-1.7624,-1.7426,-1.6861,-1.7551,-1.8154,-1.8003,-1.8103,-1.8355,-1.8719,-1.8455,-1.799,-1.7461,-1.741,-1.7212,-1.6763,-1.6999,-1.6974,-1.6525,-1.65,-1.65,-1.65,-1.65,-1.65,-1.65,-1.65,-1.65,-1.65,-1.6051,-1.5842,-1.582,-1.4892,-1.4213,0.0,0.0,0.0,-2.1889,0.0,0.0,0.0,0.0,-2.2463,0.0,0.0,0.0,0.0,0.0,0.0,0.0,0.0,0.0,0.0,0.0,0.0,0.0,0.0,0.0,0.0,0.0,0.0,0.0,0.0,0.0,-1.689,-1.6581,-1.6384,-1.636,-1.6465,-1.65,-1.65,-1.65,-1.65,-1.65,-1.65,-1.65,-1.65,-1.65,-1.65,-1.65,-1.65,-1.65,-1.65,-1.65,-1.65,-1.65,-1.65,-1.65,-1.65,-1.65,-1.65,-1.65,-1.65,-1.65,-1.65,-1.65,-1.65,-1.65,-1.65,-1.65,-1.65,-1.65,-1.65,-1.65,-1.65,-1.65,-1.65,-1.65,-1.65,-1.6672,-1.7262,-1.7385,-1.7513,-1.8078,-1.8179,-1.8003,-1.7473,-1.7827,-1.8028,-1.7511,-1.7865,-1.8216,-1.8229,-1.8216,-1.799,-1.7461,-1.741,-1.7398,-1.7373,-1.6861,-1.6513,-1.65,-1.65,-1.65,-1.65,-1.65,-1.65,-1.65,-1.65,-1.65,-1.65,-1.6466,-1.6466,-1.6423,-1.4641,-1.3815,0.0,0.0,-2.1874,-2.1216,0.0,0.0,0.0,0.0,0.0,0.0,0.0,0.0,0.0,0.0,0.0,0.0,0.0,0.0,0.0,0.0,0.0,0.0,0.0,0.0,0.0,0.0,0.0,0.0,-1.7676,0.0,0.0,-1.7593,-1.7425,-1.7055,-1.6701,-1.65,-1.65,-1.65,-1.65,-1.65,-1.65,-1.65,-1.65,-1.65,-1.65,-1.65,-1.65,-1.65,-1.65,-1.65,-1.65,-1.65,-1.65,-1.65,-1.65,-1.65,-1.65,-1.65,-1.65,-1.65,-1.65,-1.65,-1.65,-1.65,-1.65,-1.65,-1.65,-1.65,-1.65,-1.65,-1.65,-1.65,-1.65,-1.65,-1.65,-1.6672,-1.7262,-1.7087,-1.6986,-1.7551,-1.7664,-1.7488,-1.6911,-1.7287,-1.7624,-1.7436,-1.7212,-1.7225,-1.7614,-1.7325,-1.7024,-1.6823,-1.681,-1.681,-1.681,-1.6613,-1.65,-1.65,-1.65,-1.65,-1.65,-1.65,-1.65,-1.65,-1.65,-1.65,-1.65,-1.65,-1.65,-1.6479,-1.5454,-1.4778,-2.135,-2.135,0.0,-2.0513,-2.0509,0.0,-2.0408,0.0,0.0,0.0,0.0,0.0,0.0,0.0,0.0,0.0,0.0,0.0,0.0,0.0,0.0,0.0,0.0,0.0,0.0,0.0,-1.7343,-1.7957,0.0,0.0,0.0,0.0,-1.8041,-1.7712,-1.6923,-1.65,-1.65,-1.65,-1.65,-1.65,-1.65,-1.65,-1.65,-1.65,-1.65,-1.65,-1.65,-1.65,-1.65,-1.65,-1.65,-1.65,-1.65,-1.65,-1.65,-1.65,-1.65,-1.65,-1.65,-1.65,-1.65,-1.65,-1.65,-1.65,-1.65,-1.65,-1.65,-1.65,-1.65,-1.65,-1.65,-1.65,-1.65,-1.65,-1.65,-1.6672,-1.7262,-1.7237,-1.7225,-1.7601,-1.784,-1.7727,-1.6961,-1.7137,-1.7335,-1.7099,-1.676,-1.6638,-1.7024,-1.6748,-1.65,-1.65,-1.65,-1.65,-1.65,-1.65,-1.65,-1.65,-1.65,-1.65,-1.65,-1.65,-1.65,-1.65,-1.65,-1.65,-1.65,-1.65,-1.65,-1.65,-1.6095,-1.5599]},{"header":{"parameterUnit":"m.s-1","parameterCategory":1,"la1":30.6,"la2":29.2853,"lo1":-89.7004,"lo2":-87.6739,"dy":0.0162,"dx":0.0183,"nx":112,"ny":82,"refTime":"2024-07-23T06:00:00:Z","depth":0,"parameterNumber":3,"parameterNumberName":"V-component_of_WINDS"},"data":[0.0,0.0,0.0,0.0,0.0,0.0,0.0,0.0,0.0,0.0,0.0,0.0,0.0,0.0,0.0,0.0,0.0,0.0,0.0,0.0,0.0,0.0,0.0,0.0,0.0,0.0,0.0,0.0,0.0,0.0,0.0,0.0,0.0,0.0,0.0,0.0,0.0,0.0,0.0,0.0,0.0,0.0,0.0,0.0,0.0,0.0,0.0,0.0,0.0,0.0,0.0,0.0,0.0,0.0,0.0,0.0,0.0,0.0,0.0,0.0,0.0,0.0,0.0,0.0,0.0,0.0,0.0,0.0,0.0,0.0,0.0,0.0,0.0,0.0,0.0,0.0,0.0,0.0,0.0,0.0,0.0,0.0,0.0,0.0,0.0,0.0,0.0,0.0,0.0,0.0,0.0,0.4657,0.4566,0.4491,0.4491,0.4491,0.4491,0.4491,0.0,0.0,0.0,0.0,0.0,0.0,0.0,0.0,0.0,0.0,0.0,0.0,0.0,0.0,0.0,0.0,0.0,0.0,0.0,0.0,0.0,0.0,0.0,0.0,0.0,0.0,0.0,0.0,0.0,0.0,0.0,0.0,0.0,0.0,0.0,0.0,0.0,0.0,0.0,0.0,0.0,0.0,0.0,0.0,0.0,0.0,0.0,0.0,0.0,0.0,0.0,0.0,0.0,0.0,0.0,0.0,0.0,0.0,0.0,0.0,0.0,0.0,0.0,0.0,0.0,0.0,0.0,0.0,0.0,0.0,0.0,0.0,0.0,0.0,0.0,0.0,0.0,0.0,0.0,0.0,0.0,0.0,0.0,0.0,0.0,0.0,0.0,0.0,0.0,0.0,0.0,0.0,0.0,0.0,0.0,0.0,0.0,0.0,0.0,0.0,0.0,0.0,0.0,0.0,0.4525,0.4525,0.4505,0.4491,0.4491,0.4491,0.4491,0.4491,0.0,0.0,0.0,0.0,0.0,0.0,0.0,0.0,0.0,0.0,0.0,0.0,0.0,0.0,0.0,0.0,0.0,0.0,0.0,0.0,0.0,0.0,0.0,0.0,0.0,0.0,0.0,0.0,0.0,0.0,0.0,0.0,0.0,0.0,0.0,0.0,0.0,0.0,0.0,0.0,0.0,0.0,0.0,0.0,0.0,0.0,0.0,0.0,0.0,0.0,0.0,0.0,0.0,0.0,0.0,0.0,0.0,0.0,0.0,0.0,0.0,0.0,0.0,0.0,0.0,0.0,0.0,0.0,0.0,0.0,0.0,0.0,0.0,0.0,0.0,0.0,0.0,0.0,0.0,0.0,0.0,0.0,0.0,0.0,0.0,0.0,0.0,0.0,0.0,0.0,0.0,0.0,0.0,0.0,0.0,0.0,0.0,0.0,0.0,0.0,0.0,0.0,0.0,0.5498,0.5162,0.5066,0.503,0.4893,0.4543,0.4491,0.4491,0.4491,0.4491,0.0,0.0,0.0,0.0,0.0,0.0,0.0,0.0,0.0,0.0,0.0,0.0,0.0,0.0,0.0,0.0,0.0,0.0,0.0,0.0,0.0,0.0,0.0,0.0,0.0,0.0,0.0,0.0,0.0,0.0,0.0,0.0,0.0,0.0,0.0,0.0,0.0,0.0,0.0,0.0,0.0,0.0,0.0,0.0,0.0,0.0,0.0,0.0,0.0,0.0,0.0,0.0,0.0,0.0,0.0,0.0,0.0,0.0,0.0,0.0,0.0,0.0,0.0,0.0,0.0,0.0,0.0,0.0,0.0,0.0,0.0,0.0,0.0,0.0,0.0,0.0,0.0,0.0,0.0,0.0,0.0,0.0,0.0,0.0,0.0,0.0,0.0,0.0,0.0,0.0,0.0,0.0,0.0,0.0,0.0,0.0,0.0,0.0,0.0,0.0,0.0,0.0,0.6153,0.6284,0.5814,0.5597,0.5296,0.4787,0.4598,0.4491,0.4491,0.4491,0.0,0.0,0.0,0.0,0.0,0.0,0.0,0.0,0.0,0.0,0.0,0.0,0.0,0.0,0.0,0.0,0.0,0.0,0.0,0.0,0.0,0.0,0.0,0.0,0.0,0.0,0.0,0.0,0.0,0.0,0.0,0.0,0.0,0.0,0.0,0.0,0.0,0.0,0.0,0.0,0.0,0.0,0.0,0.0,0.0,0.0,0.0,0.0,0.0,0.0,0.0,0.0,0.0,0.0,0.0,0.0,0.0,0.0,0.0,0.0,0.0,0.0,0.0,0.0,0.0,0.0,0.0,0.0,0.0,0.0,0.0,0.0,0.0,0.0,0.0,0.0,0.0,0.0,0.0,0.0,0.0,0.0,0.0,0.0,0.0,0.0,0.0,0.0,0.0,0.0,0.0,0.0,0.0,0.0,0.0,0.0,0.0,0.0,0.0,0.0,0.0,0.0,0.7216,0.7925,0.6661,0.59,0.5487,0.5433,0.4866,0.4491,0.4491,0.4491,0.0,0.0,0.0,0.0,0.0,0.0,0.0,0.0,0.0,0.0,0.0,0.0,0.0,0.0,0.0,0.0,0.0,0.0,0.0,0.0,0.0,0.0,0.0,0.0,0.0,0.0,0.0,0.0,0.0,0.0,0.0,0.0,0.0,0.0,0.0,0.0,0.0,0.0,0.0,0.0,0.0,0.0,0.0,0.0,0.0,0.0,0.0,0.0,0.0,0.0,0.0,0.0,0.0,0.0,0.0,0.0,0.0,0.0,0.0,0.0,0.0,0.0,0.0,0.0,0.0,0.0,0.0,0.0,0.0,0.0,0.0,0.0,0.0,0.0,0.0,0.0,0.0,0.0,0.0,0.0,0.0,0.0,0.0,0.0,0.0,0.0,0.0,0.0,0.0,0.0,0.0,0.0,0.0,0.0,0.0,0.0,0.0,0.0,0.0,0.0,0.0,0.0,0.7745,0.7892,0.0,0.6772,0.6492,0.5565,0.5273,0.5136,0.5136,0.0,0.0,0.0,0.0,0.0,0.0,0.0,0.0,0.0,0.0,0.0,0.0,0.0,0.0,0.0,0.0,0.0,0.0,0.0,0.0,0.0,0.0,0.0,0.0,0.0,0.0,0.0,0.0,0.0,0.0,0.0,0.0,0.0,0.0,0.0,0.0,0.0,0.0,0.0,0.0,0.0,0.0,0.0,0.0,0.0,0.0,0.0,0.0,0.0,0.0,0.0,0.0,0.0,0.0,0.0,0.0,0.0,0.0,0.0,0.0,0.0,0.0,0.0,0.0,0.0,0.0,0.0,0.0,0.0,0.0,0.0,0.0,0.0,0.0,0.0,0.0,0.0,0.0,0.0,0.0,0.0,0.0,0.0,0.0,0.0,0.0,0.0,0.0,0.0,0.0,0.0,0.0,0.0,0.0,0.0,0.0,0.0,0.0,0.0,0.0,0.0,0.0,0.7672,0.8172,0.8122,0.0,0.7182,0.6853,0.5597,0.53,0.5191,0.5191,0.0,0.0,0.0,0.0,0.0,0.0,0.0,0.0,0.0,0.0,0.0,0.0,0.0,0.0,0.0,0.0,0.0,0.0,0.0,0.0,0.0,0.0,0.0,0.0,0.0,0.0,0.0,0.0,0.0,0.0,0.0,0.0,0.0,0.0,0.0,0.0,0.0,0.0,0.0,0.0,0.0,0.0,0.0,0.0,0.0,0.0,0.0,0.0,0.0,0.0,0.0,0.0,0.0,0.0,0.0,0.0,0.0,0.0,0.0,0.0,0.0,0.0,0.0,0.0,0.0,0.0,0.0,0.0,0.0,0.0,0.0,0.0,0.0,0.0,0.0,0.0,0.0,0.0,0.0,0.0,0.0,0.0,0.0,0.0,0.0,0.0,0.0,0.0,0.0,0.0,0.0,0.0,0.0,0.0,0.0,0.0,0.0,0.0,0.0,0.0,0.0,0.0,0.7758,0.8589,0.8817,0.78,0.7047,0.6312,0.5569,0.4893,0.4519,0.0,0.0,0.0,0.0,0.0,0.0,0.0,0.0,0.0,0.0,0.0,0.0,0.0,0.0,0.0,0.0,0.0,0.0,0.0,0.0,0.0,0.0,0.0,0.0,0.0,0.0,0.0,0.0,0.0,0.0,0.0,0.0,0.0,0.0,0.0,0.0,0.0,0.0,0.0,0.0,0.0,0.0,0.0,0.0,0.0,0.0,0.0,0.0,0.0,0.0,0.0,0.0,0.0,0.0,0.0,0.0,0.0,0.0,0.0,0.0,0.0,0.0,0.0,0.0,0.0,0.0,0.0,0.0,0.0,0.0,0.0,0.0,0.0,0.0,0.0,0.0,0.0,0.0,0.0,0.0,0.0,0.0,0.0,0.0,0.0,0.0,0.0,0.0,0.0,0.0,0.0,0.0,0.0,0.0,0.0,0.0,0.0,0.0,0.0,0.0,0.0,0.0,0.0,0.8519,0.8895,0.8817,0.78,0.7969,0.7637,0.6394,0.6095,0.5769,0.5246,0.0,0.0,0.0,0.0,0.0,0.0,0.0,0.0,0.0,0.0,0.0,0.0,0.0,0.0,0.0,0.0,0.0,0.0,0.0,0.0,0.0,0.0,0.0,0.0,0.0,0.0,0.0,0.0,0.0,0.0,0.0,0.0,0.0,0.0,0.0,0.0,0.0,0.0,0.0,0.0,0.0,0.0,0.0,0.0,0.0,0.0,0.0,0.0,0.0,0.0,0.0,0.0,0.0,0.0,0.0,0.0,0.0,0.0,0.0,0.0,0.0,0.0,0.0,0.0,0.0,0.0,0.0,0.0,0.0,0.0,0.0,0.0,0.0,0.0,0.0,0.0,0.0,0.0,0.0,0.0,0.0,0.0,0.0,0.0,0.0,0.0,0.0,0.0,0.0,0.0,0.0,0.0,0.0,0.0,0.0,0.0,0.0,0.0,0.0,0.0,0.0,0.0,0.8831,0.8931,0.8694,0.7794,0.8103,0.7883,0.6696,0.634,0.5982,0.5538,0.0,0.0,0.0,0.0,0.0,0.0,0.0,0.0,0.0,0.0,0.0,0.0,0.0,0.0,0.0,0.0,0.0,0.0,0.0,0.0,0.0,0.0,0.0,0.0,0.0,0.0,0.0,0.0,0.0,0.0,0.0,0.0,0.0,0.0,0.0,0.0,0.0,0.0,0.0,0.0,0.0,0.0,0.0,0.0,0.0,0.0,0.0,0.0,0.0,0.0,0.0,0.0,0.0,0.0,0.0,0.0,0.0,0.0,0.0,0.0,0.0,0.0,0.0,0.0,0.0,0.0,0.0,0.0,0.0,0.0,0.0,0.0,0.0,0.0,0.0,0.0,0.0,0.0,0.0,0.0,0.0,0.0,0.0,0.0,0.0,0.0,0.0,0.0,0.0,0.0,0.0,0.0,0.0,0.0,0.0,0.0,0.0,0.0,0.0,0.0,0.0,0.0,0.8804,0.8804,0.8533,0.7883,0.7803,0.7503,0.6777,0.6036,0.5569,0.5515,0.0,0.0,0.0,0.0,0.0,0.0,0.0,0.0,0.0,0.0,0.0,0.0,0.0,0.0,0.0,0.0,0.0,0.0,0.0,0.0,0.0,0.0,0.0,0.0,0.0,0.0,0.0,0.0,0.0,0.0,0.0,0.0,0.0,0.0,0.0,0.0,0.0,0.0,0.0,0.0,0.0,0.0,0.0,0.0,0.0,0.0,0.0,0.0,0.0,0.0,0.0,0.0,0.0,0.0,0.0,0.0,0.0,0.0,0.0,0.0,1.3883,0.0,0.0,0.0,0.0,0.0,0.0,0.0,0.0,0.0,0.0,0.0,0.0,0.0,0.0,0.0,0.0,0.0,0.0,0.0,0.0,0.0,0.0,0.0,0.0,0.0,0.0,0.0,0.0,0.0,0.0,0.0,0.0,0.0,0.0,0.0,0.0,0.0,0.0,0.0,0.0,0.0,0.8804,0.8804,0.8725,0.8593,0.856,0.8268,0.7536,0.6804,0.6118,0.5542,0.4869,0.0,0.0,0.0,0.0,0.0,0.0,0.0,0.0,0.0,0.0,0.0,0.0,0.0,0.0,0.0,0.0,0.0,0.0,0.0,0.0,0.0,0.0,0.0,0.0,0.0,0.0,0.0,0.0,0.0,0.0,0.0,0.0,0.0,0.0,0.0,0.0,0.0,0.0,0.0,0.0,0.0,0.0,0.0,0.0,0.0,0.0,0.0,0.0,0.0,0.0,0.0,0.0,0.0,0.0,0.0,0.0,0.0,0.0,0.0,0.0,1.4032,0.0,0.0,0.0,0.0,0.0,0.0,0.0,0.0,0.0,0.0,0.0,0.0,0.0,0.0,0.0,0.0,0.0,0.0,0.0,0.0,0.0,0.0,0.0,0.0,0.0,0.0,0.0,0.0,0.0,0.0,0.0,0.0,0.0,0.0,0.0,0.0,0.0,0.0,0.0,0.0,0.8804,0.8804,0.8804,0.8804,0.8804,0.8646,0.8268,0.7563,0.6799,0.6064,0.5355,0.0,0.0,0.0,0.0,0.0,0.0,0.0,0.0,0.0,0.0,0.0,0.0,0.0,0.0,0.0,0.0,0.0,0.0,0.0,0.0,0.0,0.0,0.0,0.0,0.0,0.0,0.0,0.0,0.0,0.0,0.0,0.0,0.0,0.0,0.0,0.0,0.0,0.0,0.0,0.0,0.0,0.0,0.0,0.0,0.0,0.0,0.0,0.0,0.0,0.0,0.0,0.0,0.0,1.5811,1.5791,1.6065,1.5283,1.5078,1.5371,1.463,1.4561,1.4835,0.0,0.0,0.0,0.0,0.0,0.0,0.0,0.0,0.0,0.0,0.0,0.0,0.0,0.0,0.0,0.0,0.0,0.0,0.0,0.0,0.0,0.0,0.0,0.0,0.0,1.2434,1.2449,0.0,0.0,0.0,0.0,0.0,0.0,0.0,0.0,0.0,0.0,0.0,0.0,0.8811,0.8804,0.8804,0.8804,0.8804,0.8804,0.8804,0.8129,0.7375,0.6642,0.59,0.5191,0.0,0.0,0.0,0.0,0.0,0.0,0.0,0.0,0.0,0.0,0.0,0.0,0.0,0.0,0.0,0.0,0.0,0.0,0.0,0.0,0.0,0.0,0.0,0.0,0.0,0.0,0.0,0.0,0.0,0.0,0.0,0.0,1.4337,1.4909,0.0,0.0,0.0,0.0,0.0,0.0,0.0,0.0,0.0,0.0,0.0,0.0,0.0,1.5823,1.6521,1.7051,1.708,1.6609,1.6551,1.6387,1.6075,1.5557,1.5361,1.5371,1.5293,0.0,1.5235,1.4146,0.0,0.0,0.0,0.0,0.0,0.0,0.0,0.0,0.0,0.0,0.0,0.0,0.0,0.0,0.0,0.0,0.0,0.0,0.0,0.0,0.0,0.0,1.4274,1.393,1.4141,1.4409,0.0,1.2061,0.9962,1.0109,0.9915,0.0,0.0,0.0,0.0,0.0,0.0,0.0,0.8838,0.8804,0.8804,0.8804,0.8804,0.8804,0.8804,0.8129,0.7375,0.6642,0.59,0.5191,0.4515,0.4491,0.0,0.0,0.0,0.0,0.0,0.0,0.0,0.0,0.0,0.0,0.0,0.0,0.0,0.0,0.0,0.0,0.0,0.0,0.0,0.0,0.0,0.0,0.0,0.0,0.0,0.0,0.0,0.0,0.0,1.4474,1.4713,1.4942,1.4891,1.4728,0.0,0.0,0.0,0.0,0.0,0.0,0.0,0.0,0.0,1.6364,1.6522,1.6862,1.7408,1.7412,1.7285,1.709,1.6592,1.6281,1.6075,1.5615,1.541,1.541,1.541,1.541,1.5371,1.4888,1.4223,1.3435,0.0,0.0,0.0,0.0,1.1916,1.1722,1.1661,1.1379,0.0,1.0397,0.0,0.0,0.0,0.0,0.0,0.0,0.0,0.0,0.0,0.0,1.3958,1.44,1.4087,1.384,1.4266,1.2714,1.1422,0.0,1.1465,1.0766,1.0437,0.0,0.0,0.0,0.0,0.9111,0.8844,0.8804,0.8804,0.8804,0.8804,0.8804,0.8804,0.8507,0.783,0.6669,0.6285,0.5632,0.4546,0.4491,0.4491,0.0,0.0,0.0,0.0,0.0,0.0,0.0,0.0,0.0,0.0,0.0,0.0,0.0,0.0,0.0,0.0,0.0,0.0,0.0,0.0,0.0,0.0,0.0,0.0,0.0,0.0,0.0,0.0,1.54,1.5666,1.5279,1.5729,1.583,0.0,0.0,0.0,0.0,0.0,0.0,1.6408,1.6719,1.71,1.7529,1.7539,1.7637,1.7852,1.7539,1.7298,1.7073,1.6408,1.6036,1.5919,1.5557,1.541,1.541,1.541,1.541,1.541,1.541,1.4932,1.4213,1.4213,1.3704,1.3009,1.3213,1.3219,1.3073,1.2798,1.2492,1.2072,1.1192,0.0,1.0043,0.986,0.0,0.0,0.0,0.0,1.1686,1.2857,1.3245,1.355,1.4295,1.3741,1.3214,1.375,1.3258,1.291,0.0,1.2665,1.1646,1.121,0.0,0.0,0.0,0.0,0.9191,0.8851,0.8804,0.8804,0.8804,0.8804,0.8804,0.8804,0.8804,0.8262,0.6966,0.6885,0.6231,0.4814,0.4759,0.468,0.4491,0.0,0.0,0.0,0.0,0.0,0.0,0.0,0.0,0.0,0.0,0.0,0.0,0.0,0.0,0.0,0.0,0.0,0.0,0.0,0.0,0.0,0.0,0.0,0.0,0.0,0.0,0.0,0.0,0.0,1.6592,1.7275,0.0,0.0,0.0,0.0,1.6599,1.6619,1.6824,1.7328,1.7334,1.7539,1.7969,1.7978,1.7803,1.7422,1.7393,1.6995,1.6153,1.6114,1.588,1.5439,1.542,1.541,1.541,1.541,1.541,1.541,1.541,1.4932,1.4213,1.4213,1.3704,1.31,1.3846,1.383,1.3463,1.3935,1.3764,1.3139,1.2088,1.1012,1.0114,1.007,1.0094,0.0,0.0,1.2665,1.3177,1.4393,1.4371,1.3954,1.3636,1.3529,1.3478,1.3517,1.3533,1.3532,0.0,1.2531,1.1788,1.1758,0.0,1.0413,0.9775,0.9659,0.9452,0.8878,0.8804,0.8804,0.8804,0.8804,0.8804,0.8804,0.8804,0.848,0.7696,0.7643,0.6988,0.5515,0.546,0.5164,0.4519,0.4491,0.0,0.0,0.0,0.0,0.0,0.0,0.0,0.0,0.0,0.0,0.0,0.0,0.0,0.0,0.0,0.0,0.0,0.0,0.0,0.0,0.0,0.0,0.0,0.0,0.0,0.0,0.0,0.0,1.8331,1.886,0.0,1.7461,1.7441,1.7427,1.7161,1.7148,1.7334,1.7764,1.7793,1.7852,1.8008,1.7744,1.7539,1.7383,1.6848,1.6408,1.6085,1.5781,1.542,1.501,1.501,1.4853,1.4562,1.4562,1.4718,1.501,1.501,1.4994,1.4962,1.4962,1.4805,1.4569,1.4874,1.484,1.4634,1.4318,1.4054,1.3687,1.2266,1.1543,1.1086,1.0581,1.0791,1.1325,1.1935,1.2706,1.3488,1.3929,1.3869,1.3665,1.3545,1.3301,1.3174,1.3447,1.3506,1.3602,1.381,1.3156,1.242,1.1888,1.1386,1.0747,0.9827,0.9519,0.9224,0.8858,0.8804,0.8804,0.8804,0.8804,0.8804,0.8804,0.8804,0.848,0.775,0.7696,0.7262,0.6253,0.576,0.5378,0.5136,0.4732,0.4491,0.0,0.0,0.0,0.0,0.0,0.0,0.0,0.0,0.0,0.0,0.0,0.0,0.0,0.0,0.0,0.0,0.0,0.0,0.0,0.0,0.0,0.0,0.0,0.0,0.0,0.0,1.9645,1.9349,2.0042,1.9994,1.8497,1.8425,1.8248,1.78,1.7537,1.7568,1.7988,1.7734,1.7646,1.7793,1.7383,1.709,1.6975,1.6388,1.6016,1.587,1.541,1.5049,1.4775,1.4629,1.4377,1.4104,1.4104,1.427,1.4561,1.4561,1.4727,1.4981,1.5303,1.5322,1.5205,1.5205,1.5107,1.4895,1.4335,1.399,1.3575,1.2511,1.1997,1.1699,1.1317,1.1479,1.1871,1.2297,1.2877,1.3401,1.3525,1.352,1.3477,1.333,1.3086,1.2983,1.3232,1.3408,1.3507,1.3489,1.3225,1.2726,1.1968,1.1426,1.0748,0.9687,0.9337,0.9111,0.8844,0.8804,0.8804,0.8804,0.8804,0.8804,0.8804,0.8804,0.8593,0.8103,0.8076,0.775,0.6993,0.6253,0.576,0.5515,0.4842,0.4491,0.4491,0.0,0.0,0.0,0.0,0.0,0.0,0.0,0.0,0.0,0.0,0.0,0.0,0.0,0.0,0.0,0.0,0.0,0.0,0.0,0.0,0.0,0.0,0.0,1.9705,2.1194,2.1575,1.9641,2.0925,2.1216,1.9343,1.9285,1.9121,1.8531,1.7833,1.7572,1.7949,1.7155,1.6892,1.7344,1.6911,1.6504,1.6095,1.6085,1.585,1.5391,1.498,1.4803,1.4727,1.428,1.4075,1.4065,1.4065,1.4075,1.4085,1.4085,1.4094,1.4192,1.502,1.5117,1.4766,1.4766,1.4492,1.4104,1.4104,1.3584,1.2922,1.2895,1.2382,1.1828,1.2262,1.2086,1.2005,1.3237,1.3264,1.3005,1.3407,1.3496,1.3389,1.3003,1.2905,1.2905,1.2905,1.3203,1.3247,1.2463,1.2627,1.2695,1.2006,1.1251,1.0371,0.939,0.9232,0.0,0.8864,0.8804,0.8811,0.8831,0.8804,0.8804,0.8804,0.8804,0.8804,0.8804,0.8804,0.848,0.7777,0.702,0.6281,0.5542,0.4869,0.4543,0.4543,0.0,0.0,0.0,0.0,0.0,0.0,0.0,0.0,0.0,0.0,0.0,0.0,0.0,0.0,0.0,0.0,0.0,0.0,0.0,0.0,0.0,2.1004,2.1584,2.1563,2.2006,2.2251,2.2059,2.2487,2.2165,2.0646,2.0499,1.984,1.8113,1.7812,1.7496,1.707,1.6824,1.6755,1.6882,1.6475,1.6212,1.6095,1.5752,1.5381,1.4951,1.4844,1.4463,1.3857,1.373,1.3516,1.3223,1.3223,1.3398,1.3656,1.3656,1.3831,1.4133,1.4367,1.4387,1.428,1.428,1.4211,1.4104,1.4104,1.397,1.3665,1.3086,1.2749,1.2491,1.2026,1.2217,1.2629,1.2992,1.3211,1.3358,1.3458,1.3281,1.3052,1.2935,1.2905,1.2905,1.2905,1.2993,1.3007,1.2775,1.2811,1.2648,1.1886,1.1406,1.0895,1.0111,0.9792,0.0,0.9524,0.9113,0.8982,0.9458,0.908,0.8804,0.8804,0.8804,0.8804,0.8804,0.8804,0.8699,0.8507,0.7777,0.7047,0.6312,0.5601,0.5218,0.0,0.0,0.0,0.0,0.0,0.0,0.0,0.0,0.0,0.0,0.0,0.0,0.0,0.0,0.0,0.0,0.0,0.0,0.0,0.0,0.0,0.0,2.1744,2.2309,2.2309,2.2309,2.2435,2.2719,2.2556,2.2018,2.0978,2.0734,2.004,1.8567,1.8178,1.7885,1.7637,1.7285,1.7172,1.7368,1.6943,1.6734,1.6734,1.6249,1.5859,1.5628,1.5219,1.4609,1.3882,1.3691,1.3504,0.0,1.3286,1.3403,1.3635,1.3635,1.3621,0.0,0.0,0.0,0.0,0.0,1.3613,1.3613,1.3613,1.3613,1.3526,1.3051,1.2894,1.2844,1.2538,1.2662,1.2932,1.3089,1.3204,1.3242,1.3242,1.3091,1.2905,1.2905,1.2905,1.2905,1.2905,1.2905,1.2905,1.2905,1.2905,0.0,1.2289,1.1826,1.1283,1.0619,1.0343,1.0218,1.0218,0.964,0.9361,0.9762,0.9211,0.8804,0.8804,0.8804,0.0,0.0,0.0,0.8672,0.8348,0.7943,0.0,0.0,0.0,0.0,0.0,0.0,0.0,0.0,0.4782,0.4891,0.0,0.0,0.0,0.0,0.0,0.0,0.0,0.0,0.0,0.0,0.0,0.0,0.0,0.0,0.0,0.0,2.1995,2.2309,2.2309,2.2209,2.2146,2.2209,2.1782,2.1307,2.0742,2.043,2.0015,1.9369,1.8719,1.8444,1.8722,0.0,0.0,0.0,0.0,1.7572,1.7527,1.7038,1.6732,1.6621,1.5742,1.4996,1.443,1.4066,1.3909,1.3909,1.3909,1.3909,1.3897,1.3815,1.3443,1.2983,1.3701,1.3743,1.3389,1.3042,1.2905,1.2905,1.2905,0.0,0.0,1.2905,1.2905,1.2974,1.332,1.3174,1.2959,1.333,1.3164,1.2905,1.2905,1.2905,1.2905,1.2905,1.2905,1.2905,1.2905,1.2905,1.2905,1.2905,1.2905,1.2905,1.2905,1.2369,1.169,1.1015,1.0914,1.0914,1.0914,1.0346,0.9943,1.0012,0.0,0.0,0.891,0.8982,0.8956,0.8811,0.8804,0.8507,0.7857,0.783,0.7509,0.6858,0.6777,0.6389,0.5756,0.5678,0.5393,0.4948,0.4778,0.491,0.0,0.0,0.0,0.0,0.0,0.0,0.0,0.0,0.0,0.0,0.0,0.0,0.0,0.0,0.0,2.2194,2.2246,2.2309,2.2309,2.1543,2.1182,2.1594,2.1556,2.1307,2.0742,2.0644,2.0106,1.8905,1.8708,1.839,1.7874,1.7706,1.765,1.7712,1.765,1.7388,1.6959,1.6859,1.6387,1.5584,0.0,0.0,1.4647,1.4558,1.4525,1.4525,1.4525,1.4525,1.4491,1.4003,1.3443,1.2925,1.3057,1.3076,1.3023,1.2935,1.2905,1.2905,1.2905,1.2905,1.2905,1.2905,1.2905,1.2925,1.3003,1.2964,0.0,1.3003,1.2964,1.2905,1.2905,1.2905,1.2905,1.2905,1.2905,1.2905,1.2905,1.2905,1.2905,1.2905,1.2905,1.2905,1.2905,1.2774,1.2452,1.1715,1.1616,1.1616,1.1616,1.1015,1.0813,1.1366,1.0813,1.0185,0.9666,1.009,0.9961,0.8857,0.8804,0.8725,0.8593,0.8593,0.8507,0.8374,0.7777,0.7423,0.7283,0.6664,0.6418,0.6449,0.5262,0.5236,0.0,0.0,0.0,0.0,0.0,0.0,0.0,0.0,0.0,0.0,0.0,2.2503,2.305,0.0,2.327,2.2902,2.2556,2.2121,2.1556,2.0792,2.0465,2.1031,2.0815,2.0539,2.0289,2.0264,1.9969,1.9305,1.9254,1.9097,1.8715,1.8688,1.8581,1.8306,1.8294,1.8045,1.7498,1.7238,1.6847,1.6349,1.6042,1.5646,1.5141,1.5141,1.5141,1.5141,1.5141,1.5141,1.5073,1.4167,1.3613,1.3324,1.3017,1.2905,1.2905,1.2905,1.2905,1.2905,1.2905,1.2905,1.2905,1.2905,1.2905,1.2905,1.2905,1.2905,1.2905,1.2905,1.2905,1.2905,1.2905,1.2905,1.2905,1.2905,1.2905,1.2905,1.2905,1.2905,1.2905,1.2905,1.2905,1.2905,1.2905,1.2905,1.2774,1.2403,1.2344,1.2344,1.2344,1.1749,1.1441,1.1765,1.1191,1.0661,1.0346,1.0618,1.0517,0.984,0.9491,0.9309,0.9309,0.8982,0.8804,0.8804,0.8427,0.8076,0.7696,0.7316,0.7025,0.6744,0.6002,0.6038,0.0,0.0,0.0,0.0,0.0,0.0,0.0,0.0,2.1774,2.2999,2.3445,2.3859,2.4724,2.4299,2.3755,2.3618,2.2905,2.202,2.102,2.0283,1.9965,2.0314,1.9836,1.9497,1.9497,1.9497,1.9497,1.9497,1.9597,1.961,1.9497,1.9597,1.9409,1.8857,1.8845,1.8581,1.8053,1.7624,1.7348,1.7212,1.6735,1.6238,1.5764,1.5764,1.5764,1.5764,1.5764,1.5698,1.5509,1.4549,1.4073,1.3944,1.3454,1.3176,1.3065,1.2954,1.2905,1.2905,1.2905,1.2905,1.2905,1.2905,1.2905,1.2905,1.2905,1.2905,1.2905,1.2905,1.2905,1.2905,1.2905,1.2905,1.2905,1.2905,1.2905,1.2905,1.2905,1.2905,1.2905,1.2905,1.2905,1.2905,1.2905,1.2905,1.2905,1.2905,1.2905,1.2905,1.2905,1.2369,1.1996,1.1996,1.1525,1.12,1.12,1.0965,1.0872,1.0998,1.0364,0.9935,0.9814,0.9413,0.9061,0.8811,0.8936,0.8633,0.791,0.791,0.7616,0.702,0.702,0.7133,1.9624,1.953,1.9701,2.0506,2.0306,2.0386,0.0,0.0,2.2906,2.4224,2.5362,2.6117,2.6261,2.5723,2.5039,2.4391,2.3315,2.2337,2.1602,2.0631,1.9781,1.9246,1.8719,1.838,1.838,1.838,1.838,1.838,1.8807,1.887,1.8405,1.882,1.8845,1.8317,1.8292,1.8028,1.7498,1.7436,1.7124,1.6588,1.6525,1.6466,1.6402,1.6402,1.6402,1.6402,1.6402,1.6095,1.5588,1.5454,1.5073,1.4583,1.4514,1.4167,1.3637,1.3113,1.2905,1.2905,1.2905,1.2905,1.2905,1.2905,1.2905,1.2905,1.2905,1.2905,1.2905,1.2905,1.2905,1.2905,1.2905,1.2905,1.2905,1.2905,1.2905,1.2905,1.2905,1.2905,1.2905,1.2905,1.2905,1.2905,1.2905,1.2905,1.2905,1.2905,1.2905,1.2905,1.2905,1.2832,1.2774,1.2774,1.27,1.2676,1.2676,1.1509,1.1049,1.1651,1.1049,1.0415,0.9814,1.0287,1.0012,0.8831,0.9387,0.9361,0.8672,0.8672,0.8646,0.8566,0.8566,0.8377,2.0282,2.0557,2.1042,0.0,2.1999,2.2368,2.3533,2.3821,2.4069,2.5035,2.5634,2.5967,2.5967,2.5396,2.4715,0.0,2.3205,2.2254,2.128,2.0441,1.9574,1.8659,1.8345,1.8195,1.819,1.8204,1.8204,1.8204,1.8417,1.8455,1.8216,1.8406,1.8292,1.7739,1.7727,1.7451,1.6886,1.6886,1.676,1.65,1.65,1.65,1.65,1.65,1.65,1.65,1.65,1.6358,1.6095,1.5742,1.5454,1.5186,1.4835,1.4537,1.426,1.3647,1.32,1.2905,1.2905,1.2905,1.2905,1.2905,1.2905,1.2905,1.2905,1.2905,1.2905,1.2905,1.2905,1.2905,1.2905,1.2905,1.2905,1.2905,1.2905,1.2905,1.2905,1.2905,1.2905,1.2905,1.2905,1.2905,1.2905,1.2905,1.2905,1.2905,1.2905,1.2905,1.2905,1.2905,1.2905,1.2905,1.2905,1.2905,1.2905,1.2363,1.2132,1.2421,1.1783,1.1266,1.099,1.0864,1.0542,0.9961,0.9865,0.9666,0.9387,0.8982,0.8804,0.8804,0.8804,0.8711,2.057,2.0941,2.1465,2.2004,2.2473,2.3026,2.3872,2.4201,2.4515,2.5196,2.5457,2.5615,2.5615,2.4996,2.4394,2.4014,2.3331,2.2433,2.122,2.0544,1.9792,1.8792,1.854,1.8521,1.8721,1.8264,1.7915,1.7752,1.789,1.7978,1.7978,1.7978,1.779,1.7423,1.7247,1.6936,1.65,1.65,1.65,1.65,1.65,1.65,1.65,1.65,1.65,1.65,1.65,1.65,1.6466,1.603,1.5842,1.5798,1.5377,1.5085,1.4903,1.4457,1.3802,1.3152,1.3152,1.3041,1.2905,1.2905,1.2905,1.2905,1.2905,1.2905,1.2905,1.2905,1.3017,1.3152,1.3152,1.3262,1.3406,1.3406,1.3272,1.32,1.3368,1.3272,1.32,1.3358,1.3406,1.3406,1.3406,1.3406,1.3406,1.3406,1.3406,1.3272,1.2954,1.2905,1.2905,1.2905,1.2905,1.2905,1.2905,1.2905,1.2905,1.2905,1.2393,1.1996,1.1814,1.1525,1.12,1.0813,1.0491,1.0261,1.0064,0.9588,0.9263,0.9087,0.9087,0.8982,2.043,2.0326,2.0424,2.07,2.0763,2.1122,2.2463,2.3212,2.3819,2.4485,2.5143,2.5615,2.5615,2.5045,2.4574,2.4582,2.3992,2.3126,2.1845,2.1211,2.0626,1.9917,1.9384,1.9336,0.0,1.8446,1.7174,1.6588,1.7087,1.7423,1.7423,1.7423,1.7423,1.741,1.6835,1.6513,1.65,1.65,1.65,1.65,1.65,1.65,1.65,1.65,1.65,1.65,1.65,1.65,1.65,1.6466,1.6466,1.6466,1.6445,1.6095,1.5565,1.5554,1.479,1.3768,1.3768,1.3396,1.2905,1.2905,1.2905,1.2905,1.2905,1.2905,1.2905,1.2905,1.3324,1.3768,1.3768,1.4213,1.4663,1.4663,1.419,1.3933,1.4514,1.4201,1.3944,1.4525,1.4663,1.4663,1.4663,1.4663,1.4663,1.4663,1.4663,1.4224,1.3041,1.2905,1.2905,1.2905,1.2905,1.2905,1.2905,1.2905,1.2905,1.2905,1.2881,1.2559,1.1839,1.2476,1.2181,1.0838,1.1416,1.1416,1.0771,1.0745,1.0415,0.9762,0.9762,0.9413,2.1418,2.1427,2.155,2.2095,2.2228,2.2337,2.2805,2.3432,2.39,2.3764,2.4304,2.4698,2.4335,2.4088,2.3939,2.3939,2.34,2.2694,2.1819,2.1163,2.0558,1.9971,2.0046,0.0,0.0,0.0,0.0,1.8248,1.803,1.7775,1.742,1.741,1.7212,1.6823,1.66,1.668,1.7034,1.7034,1.7034,1.7034,1.668,1.65,1.65,1.65,1.65,1.65,1.65,1.65,1.65,1.65,1.65,1.65,1.65,1.638,1.6194,1.6194,1.5688,1.4926,1.4537,1.4271,1.4025,1.3624,1.3515,1.342,1.3017,1.3176,1.3515,1.3515,1.392,1.4399,1.4399,1.4537,1.4698,1.4698,1.4537,1.4445,1.4663,1.4537,1.4468,1.4663,1.4698,1.4698,1.4698,1.4698,1.4698,1.4698,1.4698,1.4399,1.36,1.3515,1.3515,1.3515,1.3515,1.3515,1.3515,1.3515,1.3334,1.2929,1.2905,1.2798,1.2535,1.2774,1.2676,1.2206,1.1931,1.169,1.1466,1.1015,1.0686,1.0466,1.0466,1.0338,2.1859,2.1859,2.1939,2.2221,2.2297,2.2361,2.2582,2.3207,2.3708,2.3622,2.4163,2.4532,2.397,2.39,2.3815,2.3638,2.3266,2.2808,2.2164,2.168,2.1292,2.0944,2.1199,2.1481,0.0,0.0,0.0,1.9498,1.8888,1.8358,1.8026,1.7801,1.7422,1.6835,1.6982,1.7146,1.7312,1.7483,1.7585,1.7585,1.7229,1.7076,1.7076,1.7076,1.6972,1.6795,1.6795,1.668,1.65,1.65,1.65,1.65,1.65,1.65,1.65,1.65,1.6259,1.5842,1.5242,1.488,1.4629,1.426,1.412,1.405,1.3658,1.3802,1.412,1.412,1.456,1.5017,1.5017,1.5175,1.5344,1.5344,1.5175,1.5085,1.5299,1.5175,1.5085,1.5287,1.5344,1.5344,1.5344,1.5344,1.5344,1.5344,1.5344,1.5039,1.4236,1.412,1.412,1.412,1.412,1.412,1.412,1.412,1.3849,1.3262,1.3214,1.3128,1.2905,1.2905,1.2905,1.2905,1.2427,1.2187,1.2187,1.1758,1.14,1.1166,1.1166,1.104,2.1764,2.1643,2.1536,2.115,2.1071,2.1231,2.1872,2.2626,2.333,2.3948,2.4705,2.5086,2.4552,0.0,2.4287,2.3769,2.3646,2.3385,2.2823,2.2688,2.2658,0.0,0.0,0.0,0.0,0.0,0.0,2.0407,0.0,1.9216,1.918,1.8618,1.8044,1.751,1.7886,1.7867,1.7394,1.7887,1.8145,1.8145,1.8125,1.8106,1.8106,1.8106,1.7827,1.7353,1.7353,1.7034,1.6531,1.6531,1.6522,1.65,1.65,1.65,1.65,1.65,1.65,1.6423,1.5842,1.5276,1.4801,1.4755,1.4744,1.4744,1.4698,1.4721,1.4744,1.4744,1.5186,1.5654,1.5654,1.6073,1.65,1.65,1.6051,1.5786,1.638,1.6051,1.582,1.6402,1.65,1.65,1.65,1.65,1.65,1.65,1.65,1.6086,1.4915,1.4744,1.4744,1.4744,1.4744,1.4744,1.4744,1.4744,1.4491,1.3886,1.3839,1.36,1.3027,1.2968,1.2954,1.2954,1.2929,1.2905,1.2905,1.2905,1.2535,1.1864,1.1864,1.1516,2.2149,2.212,2.2092,2.1988,2.1976,2.2009,2.2178,2.3211,2.4081,2.3849,2.4861,2.5633,2.5089,2.5091,0.0,2.4961,2.4191,0.0,2.3385,2.2547,0.0,2.2643,0.0,2.3002,2.3789,2.3565,0.0,0.0,2.1671,2.0851,2.047,1.9828,1.9216,1.8675,1.8302,1.8243,1.8496,1.8631,1.8688,1.8688,1.8302,1.8106,1.8106,1.8106,1.8027,1.7907,1.7907,1.7585,1.7097,1.7097,1.6858,1.65,1.65,1.65,1.65,1.65,1.65,1.6466,1.6315,1.6173,1.5976,1.5533,1.5365,1.5298,1.4835,1.5017,1.5365,1.5365,1.581,1.6259,1.6259,1.638,1.65,1.65,1.638,1.6303,1.6466,1.638,1.6315,1.6466,1.65,1.65,1.65,1.65,1.65,1.65,1.65,1.6216,1.5477,1.5365,1.5365,1.5365,1.5365,1.5365,1.5365,1.5365,1.5118,1.4514,1.4468,1.441,1.4247,1.3802,1.3576,1.3576,1.3128,1.2905,1.2905,1.2905,1.2798,1.2608,1.2608,1.2535,2.2296,2.2296,2.2296,2.2296,2.2296,2.2381,2.2716,2.3663,2.4498,2.4529,2.548,2.6157,2.5652,2.5656,2.5675,0.0,0.0,0.0,2.4066,2.3409,2.3011,0.0,2.3092,0.0,2.3984,2.3774,2.3729,0.0,2.2871,2.1914,2.1363,2.064,1.9901,1.9121,1.8919,1.8949,1.9244,1.9244,1.9244,1.9244,1.8949,1.8798,1.8798,1.8798,1.8669,1.8438,0.0,1.7807,1.7271,1.7055,1.6774,1.65,1.65,1.65,1.65,1.65,1.65,1.65,1.65,1.65,1.6445,1.6117,1.5986,1.5942,1.5589,1.5722,1.5986,1.5986,1.6238,1.65,1.65,1.65,1.65,1.65,1.65,1.65,1.65,1.65,1.65,1.65,1.65,1.65,1.65,1.65,1.65,1.65,1.65,1.638,1.603,1.5986,1.5986,1.5986,1.5986,1.5986,1.5986,1.5986,1.5732,1.5118,1.5096,1.4971,1.4698,1.4376,1.4073,1.3802,1.3718,1.3563,1.3286,1.3286,1.3286,1.3286,1.3017,1.2905,2.2296,2.2296,2.2296,2.2296,2.2296,2.2465,2.3105,2.3898,2.4677,2.5321,0.0,2.6573,2.6174,2.6197,2.6161,2.5716,0.0,2.5505,2.4956,2.4709,2.438,2.3804,2.3655,2.3834,2.441,2.3954,2.3819,2.4306,2.3318,2.2504,2.204,2.1265,2.031,1.9214,1.9518,1.9708,1.9708,1.9708,1.9708,1.9708,1.9708,1.9708,1.9708,1.9708,1.9442,1.8987,1.8516,0.0,1.7463,1.693,1.668,1.6595,1.6543,1.65,1.65,1.65,1.65,1.65,1.65,1.65,1.65,1.65,1.65,1.65,1.65,1.65,1.65,1.65,1.65,1.65,1.65,1.65,1.65,1.65,1.65,1.65,1.65,1.65,1.65,1.65,1.65,1.65,1.65,1.65,1.65,1.65,1.65,1.65,1.65,1.65,1.65,1.65,1.65,1.65,1.65,1.65,1.6281,1.5742,1.572,1.5477,1.4949,1.4858,1.4583,1.405,1.4468,1.4445,1.3909,1.3909,1.3909,1.3909,1.3382,1.3089,2.2296,2.2296,2.2296,2.2296,2.2296,2.233,2.2448,2.3528,0.0,0.0,2.576,2.6674,2.659,2.67,2.6789,2.6872,2.6542,2.6253,2.6255,2.5292,2.456,0.0,2.3939,2.3655,0.0,0.0,0.0,0.0,0.0,2.2661,2.2563,2.1902,2.0921,1.9631,1.9662,1.9708,1.9708,1.9708,1.9708,1.9708,1.9708,1.9708,1.9708,1.9708,1.9639,1.9566,1.946,0.0,1.8574,1.8046,1.7565,1.7105,1.668,1.65,1.65,1.65,1.65,1.65,1.65,1.65,1.65,1.65,1.65,1.65,1.65,1.65,1.65,1.65,1.65,1.65,1.65,1.65,1.65,1.65,1.65,1.65,1.65,1.65,1.65,1.65,1.65,1.65,1.65,1.65,1.65,1.65,1.65,1.65,1.65,1.65,1.65,1.65,1.65,1.65,1.65,1.65,1.6457,1.6358,1.6324,1.6293,1.6194,1.571,1.5376,1.5286,1.4903,1.4652,1.4537,1.4537,1.4537,1.4537,1.4433,1.4131,2.2296,2.2296,2.2296,2.2296,2.2296,2.2398,2.2784,0.0,0.0,0.0,2.593,2.6691,2.6691,2.6809,0.0,2.7044,2.6693,2.6433,2.6497,2.5711,0.0,2.4649,2.4321,2.3984,0.0,0.0,0.0,0.0,0.0,2.2553,2.2209,2.1545,2.0722,1.9738,1.9708,1.9708,1.9708,1.9708,1.9708,1.9708,1.9708,1.9708,1.9708,1.9708,1.9708,1.969,1.9406,0.0,1.8855,1.8322,1.7787,1.7271,1.7013,1.6752,1.65,1.65,1.65,1.65,1.65,1.65,1.65,1.65,1.65,1.65,1.65,1.65,1.65,1.65,1.65,1.65,1.65,1.65,1.65,1.65,1.65,1.65,1.65,1.65,1.65,1.65,1.65,1.65,1.65,1.65,1.65,1.65,1.65,1.65,1.65,1.65,1.65,1.65,1.65,1.65,1.65,1.65,1.65,1.65,1.65,1.65,1.65,1.6216,1.5908,1.561,1.5622,1.5466,1.5163,1.5163,1.5163,1.5163,1.4858,1.4537,2.2296,2.2296,2.2296,2.2296,2.2296,2.2482,2.3224,2.3966,0.0,2.5456,2.6184,2.6691,2.6691,2.6799,2.6869,0.0,2.6707,2.6579,2.6622,2.6145,2.563,0.0,2.4769,0.0,0.0,0.0,0.0,0.0,0.0,0.0,2.1515,2.0857,2.0243,1.9723,1.9708,1.9708,1.9708,1.9708,1.9708,1.9708,1.9708,1.9708,1.9708,1.9708,1.9708,1.969,1.9244,0.0,0.0,1.8496,1.8027,1.7626,1.7394,1.7034,1.6659,1.6531,1.65,1.65,1.65,1.65,1.65,1.65,1.65,1.65,1.65,1.65,1.65,1.65,1.65,1.65,1.65,1.65,1.65,1.65,1.65,1.65,1.65,1.65,1.65,1.65,1.65,1.65,1.65,1.65,1.65,1.65,1.65,1.65,1.65,1.65,1.65,1.65,1.65,1.65,1.65,1.65,1.65,1.65,1.65,1.65,1.65,1.65,1.6281,1.5798,1.6259,1.6259,1.5798,1.5798,1.5798,1.5776,1.531,1.5017,2.2296,2.2296,2.2296,2.2296,2.2296,2.2482,2.3224,0.0,2.4711,2.5456,2.6184,2.6691,2.6691,2.6708,2.6754,2.6879,0.0,2.7166,2.7302,2.6851,2.6482,2.6422,0.0,0.0,0.0,0.0,0.0,0.0,0.0,0.0,2.0793,2.0154,1.9768,1.9708,1.9708,1.9708,1.9708,1.9708,1.9708,1.9708,1.9708,1.9708,1.9708,1.9708,1.9708,1.9708,1.9639,0.0,0.0,1.9043,1.8798,1.865,1.7686,1.7271,1.7167,1.668,1.65,1.65,1.65,1.65,1.65,1.65,1.65,1.65,1.65,1.65,1.65,1.65,1.65,1.65,1.65,1.65,1.65,1.65,1.65,1.65,1.65,1.65,1.65,1.65,1.65,1.65,1.65,1.65,1.65,1.65,1.65,1.65,1.65,1.65,1.65,1.65,1.65,1.65,1.65,1.65,1.65,1.65,1.65,1.65,1.65,1.65,1.6466,1.6423,1.6466,1.6466,1.6423,1.6423,1.6423,1.6423,1.6358,1.603,2.2296,2.2296,2.2296,2.2296,2.2632,2.3038,2.3325,2.4306,2.5253,2.5541,2.6184,2.6691,2.6691,2.6691,2.6708,2.6769,2.6601,2.6805,2.7692,2.7054,2.665,2.7078,0.0,0.0,0.0,0.0,0.0,0.0,0.0,0.0,2.0139,1.9857,1.9708,1.9708,1.9708,1.9708,1.9708,1.9708,1.9708,1.9708,1.9708,1.9708,1.9708,1.9708,1.9708,1.9708,1.9708,0.0,0.0,1.946,1.9188,1.8855,1.8438,1.7867,1.7271,1.7055,1.6774,1.65,1.65,1.65,1.65,1.65,1.65,1.65,1.65,1.65,1.65,1.65,1.65,1.65,1.65,1.65,1.65,1.65,1.65,1.65,1.65,1.65,1.65,1.65,1.65,1.65,1.65,1.65,1.65,1.65,1.65,1.65,1.65,1.65,1.65,1.65,1.65,1.65,1.65,1.65,1.65,1.65,1.65,1.65,1.65,1.65,1.65,1.65,1.65,1.65,1.65,1.65,1.65,1.65,1.65,1.638,2.2632,2.2632,2.2632,2.2632,2.3021,2.3511,2.3951,2.4847,2.5659,2.5879,2.6336,2.6691,2.6691,2.6691,2.6691,2.6691,2.6664,2.6982,2.7964,2.7471,2.7195,0.0,0.0,0.0,0.0,0.0,0.0,0.0,0.0,0.0,2.0049,1.9813,1.9708,1.9708,1.9708,1.9708,1.9708,1.9708,1.9708,1.9708,1.9708,1.9708,1.9708,1.9708,1.9708,1.9708,1.9708,0.0,0.0,1.9708,1.9479,1.9132,1.8968,1.8438,1.7747,1.7605,1.7188,1.6731,1.6731,1.6637,1.65,1.65,1.65,1.65,1.65,1.65,1.65,1.65,1.65,1.65,1.65,1.65,1.65,1.65,1.65,1.65,1.65,1.65,1.65,1.65,1.65,1.65,1.65,1.65,1.65,1.65,1.65,1.65,1.65,1.6637,1.668,1.6522,1.6637,1.668,1.6522,1.65,1.65,1.65,1.65,1.65,1.65,1.65,1.65,1.65,1.65,1.65,1.65,1.65,1.65,1.65,1.65,1.65,2.3376,2.3376,2.3376,2.3376,2.3393,2.3782,2.5253,2.5592,2.5812,2.6539,2.6691,2.6691,2.6691,2.6691,2.6691,2.6691,2.7478,2.8079,2.8112,2.8313,0.0,0.0,0.0,0.0,0.0,0.0,0.0,0.0,0.0,0.0,2.0718,2.0049,1.9708,1.9708,1.9708,1.9708,1.9708,1.9708,1.9708,1.9708,1.9708,1.9708,1.9708,1.9708,1.9708,0.0,0.0,0.0,0.0,1.9708,1.9708,1.9639,1.9114,1.8893,1.8817,1.8302,1.7747,1.7291,1.7291,1.693,1.65,1.65,1.65,1.65,1.65,1.65,1.65,1.65,1.65,1.65,1.65,1.65,1.65,1.65,1.65,1.65,1.65,1.65,1.65,1.65,1.65,1.65,1.65,1.65,1.65,1.65,1.65,1.65,1.65,1.6951,1.7097,1.6552,1.6972,1.7076,1.6552,1.65,1.65,1.65,1.65,1.65,1.65,1.65,1.65,1.65,1.65,1.65,1.65,1.65,1.65,1.65,1.65,1.65,2.4017,2.4152,2.4152,2.4152,2.4526,2.5033,2.5491,2.5998,2.642,2.664,2.6691,2.6691,2.6691,2.6691,2.7046,2.8096,2.8509,0.0,0.0,0.0,0.0,0.0,0.0,0.0,0.0,0.0,0.0,0.0,0.0,0.0,2.0733,2.0064,1.9708,1.9708,1.9708,1.9708,1.9708,1.9708,1.9708,1.9708,1.9708,1.9708,1.9708,1.9708,1.9708,0.0,0.0,0.0,0.0,1.9708,1.9708,1.969,1.9512,1.9225,1.8874,1.8708,1.8322,1.7787,1.7422,1.7188,1.6993,1.6616,1.65,1.65,1.65,1.65,1.65,1.65,1.65,1.65,1.65,1.65,1.65,1.65,1.65,1.65,1.65,1.65,1.65,1.65,1.65,1.65,1.65,1.65,1.65,1.65,1.65,1.65,1.65,1.6972,1.7229,1.7055,1.7188,1.7076,1.6552,1.6837,1.69,1.6522,1.6837,1.6879,1.6522,1.65,1.65,1.65,1.65,1.65,1.65,1.65,1.65,1.65,1.65,1.65,2.4628,2.4931,2.4931,2.4931,2.5253,2.566,2.5947,2.637,2.6691,2.6691,2.6691,2.6691,2.6691,2.6691,2.7097,2.8349,2.8807,0.0,0.0,0.0,0.0,0.0,0.0,0.0,0.0,0.0,0.0,0.0,0.0,0.0,2.0733,2.0064,1.9708,1.9708,1.9708,1.9708,1.9708,1.9708,1.9708,1.9708,1.9708,1.9708,1.9708,1.9708,1.9708,0.0,0.0,0.0,0.0,1.9708,1.9708,1.9708,1.9708,1.9497,1.9207,1.9207,1.8855,1.8361,1.8027,1.7767,1.7544,1.7209,1.6972,1.6752,1.6552,1.65,1.65,1.65,1.65,1.65,1.65,1.65,1.65,1.65,1.65,1.65,1.65,1.65,1.65,1.65,1.65,1.65,1.65,1.65,1.65,1.65,1.65,1.6573,1.6774,1.7271,1.7605,1.7605,1.7787,1.7686,1.7146,1.7209,1.7146,1.6816,1.7312,1.7374,1.6816,1.6795,1.671,1.65,1.65,1.65,1.65,1.65,1.65,1.65,1.65,1.65,0.0,2.5592,2.5592,2.5592,2.5642,2.5862,2.6539,2.6691,0.0,2.6691,2.6691,2.6708,2.6759,2.6776,2.7063,2.7908,2.867,0.0,0.0,0.0,0.0,0.0,0.0,0.0,0.0,0.0,0.0,0.0,0.0,0.0,2.0733,2.0064,1.9708,1.9708,1.9708,1.9708,1.9708,1.9708,1.9708,1.9708,1.9708,1.9708,1.9708,1.9708,1.9708,0.0,0.0,0.0,0.0,1.9708,1.9708,1.9708,1.9708,1.9708,1.9708,1.9708,1.9387,1.8949,1.8912,1.8574,1.8165,1.8125,1.7767,1.725,1.671,1.6543,1.65,1.65,1.65,1.65,1.65,1.65,1.65,1.65,1.65,1.65,1.65,1.65,1.65,1.65,1.65,1.65,1.65,1.65,1.65,1.65,1.6543,1.6731,1.7229,1.7807,1.8165,1.8165,1.8593,1.8688,1.8204,1.7706,1.7415,1.7374,1.7867,1.7927,1.7394,1.7374,1.7097,1.6573,1.6552,1.6552,1.6552,1.6552,1.6531,1.65,1.65,1.65,2.5203,0.0,2.5592,2.5592,2.6031,2.6488,0.0,2.6691,2.6691,2.6691,2.6691,2.686,2.7435,2.7536,2.8162,3.0091,0.0,0.0,0.0,0.0,0.0,0.0,0.0,0.0,0.0,0.0,0.0,0.0,0.0,2.0872,2.0703,2.0064,1.9708,1.9708,1.9708,1.9708,1.9708,1.9708,1.9708,1.9708,1.9708,1.9708,1.9708,1.9708,1.9708,0.0,0.0,0.0,1.9708,1.9708,1.9708,1.9708,1.9708,1.9708,1.9708,1.9708,1.9621,1.9442,1.9043,1.8817,1.8631,1.8243,1.8007,1.7807,1.7271,1.6837,1.65,1.65,1.65,1.65,1.65,1.65,1.65,1.65,1.65,1.65,1.65,1.65,1.65,1.65,1.65,1.65,1.65,1.65,1.65,1.65,1.6858,1.7146,1.7271,1.8145,1.8708,1.8708,1.8817,1.8855,1.8708,1.8593,1.8361,1.7947,1.8419,1.8477,1.7927,1.7907,1.7666,1.7105,1.7118,1.7118,1.7118,1.7118,1.6888,1.65,1.65,1.65,2.3868,2.5084,2.6201,2.6522,2.6911,2.7199,2.7199,2.6945,2.6691,2.6691,2.6691,2.6928,2.7655,2.7807,2.8432,0.0,3.07,0.0,0.0,0.0,0.0,0.0,0.0,0.0,0.0,0.0,0.0,0.0,0.0,2.0554,2.0258,1.9884,1.9708,1.9708,1.9708,1.9708,1.9708,1.9708,1.9708,1.9708,1.9708,1.9708,1.9708,1.9708,1.9708,0.0,0.0,0.0,1.9708,1.9708,1.9708,1.9708,1.9708,1.9708,1.9708,1.9708,1.9708,1.9657,1.9369,1.9262,1.9188,1.8631,1.8477,1.838,1.7827,1.7463,1.7126,1.6637,1.65,1.6552,1.6795,1.668,1.6552,1.6816,1.6879,1.6795,1.6552,1.69,1.7146,1.6909,1.7076,1.7229,1.7229,1.7229,1.7229,1.7229,1.7483,1.7767,1.8007,1.8535,1.8987,1.9244,1.9262,1.9262,1.9262,1.9262,1.9043,1.8496,1.8968,1.9024,1.8496,1.8477,1.8224,1.7686,1.7666,1.7666,1.7666,1.7666,1.7394,1.6879,1.6879,1.6731,2.2702,2.4712,2.6793,2.7198,2.7553,2.7773,2.7655,2.7165,2.6691,2.6691,0.0,2.7097,2.7841,2.8077,0.0,0.0,0.0,0.0,0.0,0.0,0.0,0.0,0.0,0.0,0.0,0.0,0.0,0.0,0.0,2.0303,1.9738,1.9708,1.9708,1.9708,1.9708,1.9708,1.9708,1.9708,1.9708,1.9708,1.9708,1.9708,1.9708,1.9708,1.9708,1.9708,0.0,0.0,1.9708,1.9708,1.9708,1.9708,1.9708,1.9708,1.9708,1.9708,1.9708,1.9708,1.9708,1.9708,1.9621,1.9169,1.9024,1.893,1.838,1.8224,1.8027,1.7013,1.6731,1.6858,1.7312,1.7076,1.6858,1.7312,1.7435,1.7312,1.6837,1.7463,1.7967,1.7504,1.7727,1.8007,1.8086,1.8027,1.8007,1.8086,1.8185,1.84,1.8836,1.8968,1.9207,1.9639,1.9708,1.9708,1.9708,1.9708,1.9512,1.9043,1.9442,1.9497,1.9043,1.8949,1.8708,1.8361,1.8263,1.8224,1.8224,1.8224,1.7947,1.7435,1.7353,1.7055,2.4578,2.5879,2.6437,2.5286,2.642,2.7638,2.7012,2.6776,2.6691,0.0,0.0,0.0,0.0,2.933,3.0021,0.0,0.0,0.0,0.0,0.0,0.0,0.0,0.0,0.0,0.0,0.0,0.0,0.0,0.0,1.9813,1.9708,1.9708,1.9708,1.9708,1.9708,1.9708,1.9708,1.9708,1.9708,1.9708,1.9708,1.9708,1.9708,1.9708,1.9708,1.9708,0.0,1.9708,1.9708,1.9708,1.9708,1.9708,1.9708,1.9708,1.9708,1.9708,1.9708,1.9708,1.9708,1.9708,1.969,1.9603,1.9584,1.9479,1.8949,1.8779,1.865,1.8027,1.7847,1.7867,1.7967,1.7927,1.7887,1.7967,1.7987,1.7947,1.7867,1.7987,1.8086,1.7987,1.7686,1.7565,1.8027,1.7727,1.7585,1.8027,1.8496,1.8817,1.8893,1.9299,1.9603,1.969,1.9708,1.9708,1.9708,1.9708,1.9657,1.9584,1.9639,1.9657,1.9584,1.9151,1.9062,1.9442,1.9006,1.8779,1.8779,1.8779,1.8496,1.7967,1.7504,1.725,2.353,2.4949,2.5947,2.5253,2.708,2.8939,2.8619,2.823,2.7943,0.0,0.0,0.0,0.0,0.0,3.0345,3.1072,0.0,0.0,0.0,0.0,0.0,0.0,0.0,0.0,0.0,0.0,0.0,0.0,0.0,0.0,1.9708,1.9708,1.9708,1.9708,1.9708,1.9708,1.9708,1.9708,1.9708,1.9708,1.9708,1.9708,1.9708,1.9708,1.9708,1.9708,0.0,1.9708,1.9708,1.9708,1.9708,1.9708,1.9708,1.9708,1.9708,1.9708,1.9708,1.9708,1.9708,1.9708,1.9708,1.9708,1.9708,1.9639,1.9406,1.9332,1.9281,1.9024,1.8554,1.8185,1.8458,1.8322,1.8185,1.8458,1.8535,1.8458,1.8165,1.8554,1.8874,1.8593,1.8574,1.8669,1.893,1.8746,1.8669,1.893,1.9169,1.9332,1.9332,1.9548,1.9708,1.9708,1.9708,1.9708,1.9708,1.9708,1.9708,1.9708,1.9708,1.9708,1.9708,1.946,1.9442,1.9708,1.946,1.9332,1.9332,1.9332,1.9062,1.8535,1.8283,1.7847,2.2733,2.4188,2.5677,2.6015,2.7841,2.9599,2.9803,2.9262,2.8755,2.8959,0.0,0.0,0.0,3.0243,0.0,0.0,0.0,0.0,0.0,0.0,0.0,0.0,0.0,0.0,0.0,0.0,0.0,0.0,0.0,0.0,1.9708,1.9708,1.9708,1.9708,1.9708,1.9708,1.9708,1.9708,1.9708,1.9708,1.9708,1.9708,1.9708,1.9708,1.9708,1.9708,1.9708,1.9708,1.9708,1.9708,1.9708,1.9708,1.9708,1.9708,1.9708,1.9708,1.9708,1.9708,1.9708,1.9708,1.9708,1.9708,1.9708,1.9708,1.9708,1.9708,1.9708,1.9708,1.9114,1.8574,1.8987,1.8779,1.8574,1.8987,1.9095,1.8968,1.8554,1.9132,1.9584,1.9169,1.9332,1.9548,1.969,1.9603,1.9566,1.969,1.9708,1.9708,1.9708,1.9708,1.9708,1.9708,1.9708,1.9708,1.9708,1.9708,1.9708,1.9708,1.9708,1.9708,1.9708,1.9708,1.9708,1.9708,1.9708,1.9708,1.9708,1.9708,1.9479,1.908,1.8968,1.8458,2.3966,2.4949,2.5914,2.73,2.7807,2.8162,2.8925,2.8467,2.8094,2.8857,0.0,0.0,0.0,3.0666,0.0,0.0,0.0,0.0,0.0,0.0,0.0,0.0,0.0,0.0,0.0,0.0,0.0,0.0,0.0,0.0,1.9711,1.9708,1.9708,1.9708,1.9708,1.9708,1.9708,1.9708,1.9708,1.9708,1.9708,1.9708,1.9708,1.9708,1.9708,1.9708,1.9708,1.9708,1.9708,1.9708,1.9708,1.9708,1.9708,1.9708,1.9708,1.9708,1.9708,1.9708,1.9708,1.9708,1.9708,1.9708,1.9708,1.9708,1.9708,1.9708,1.9708,1.9708,1.9639,1.9584,1.9621,1.9603,1.9584,1.9621,1.9639,1.9621,1.9584,1.9639,1.969,1.9639,1.9262,1.9132,1.9603,1.9281,1.9132,1.9621,1.9708,1.9708,1.9708,1.9708,1.9708,1.9708,1.9708,1.9708,1.9708,1.9708,1.9708,1.9708,1.9708,1.9708,1.9708,1.9708,1.9708,1.9708,1.9708,1.9708,1.9708,1.9708,1.969,1.9621,1.9132,1.8855,2.2987,2.434,2.5728,2.6285,2.7114,2.8128,2.9397,2.9465,2.9465,3.0209,3.0581,0.0,0.0,0.0,0.0,0.0,0.0,0.0,0.0,0.0,0.0,0.0,0.0,0.0,0.0,0.0,0.0,0.0,0.0,0.0,0.0,1.9854,1.9708,1.9708,1.9708,1.9708,1.9708,1.9708,1.9708,1.9708,1.9708,1.9708,1.9708,1.9708,1.9708,1.9708,1.9708,1.9708,1.9708,1.9708,1.9708,1.9708,1.9708,1.9708,1.9708,1.9708,1.9708,1.9708,1.9708,1.9708,1.9708,1.9708,1.9708,1.9708,1.9708,1.9708,1.9708,1.9708,1.9708,1.9708,1.9708,1.9708,1.9708,1.9708,1.9708,1.9708,1.9708,1.9708,1.9708,1.9708,1.9548,1.946,1.9672,1.953,1.946,1.9672,1.9708,1.9708,1.9708,1.9708,1.9708,1.9708,1.9708,1.9708,1.9708,1.9708,1.9708,1.9708,1.9708,1.9708,1.9708,1.9708,1.9708,1.9708,1.9708,1.9708,1.9708,1.9708,1.9708,1.9708,1.9479,1.9225,2.2649,2.4088,2.5659,2.5896,2.6877,2.8196,2.9734,2.9922,3.0023,3.1004,3.1004,3.0632,2.9888,0.0,0.0,0.0,0.0,0.0,0.0,0.0,0.0,0.0,0.0,0.0,0.0,0.0,0.0,0.0,0.0,0.0,0.0,2.0052,1.9821,1.9693,1.9708,1.9708,1.9708,1.9708,1.9708,1.9708,1.9708,1.9708,1.9708,1.9708,1.9708,1.9708,1.9708,1.9708,1.9708,1.9708,1.9708,1.9708,1.9708,1.9708,1.9708,1.9708,1.9708,1.9708,1.9708,1.9708,1.9708,1.9708,1.9708,1.9708,1.9708,1.9708,1.9708,1.9708,1.9708,1.9708,1.9708,1.9708,1.9708,1.9708,1.9708,1.9708,1.9708,1.9708,1.9708,1.9708,1.9708,1.9708,1.9708,1.9708,1.9708,1.9708,1.9708,1.9708,1.9708,1.9708,1.9708,1.9708,1.9708,1.9708,1.9708,1.9708,1.9708,1.9708,1.9708,1.9708,1.9708,1.9708,1.9708,1.9708,1.9708,1.9708,1.9708,1.9708,1.9708,1.9708,1.9708,1.9497,2.3393,2.4475,2.5795,2.6522,0.0,0.0,2.9734,2.9516,2.9416,3.0869,3.0598,2.9871,2.9128,0.0,0.0,0.0,0.0,0.0,0.0,0.0,0.0,0.0,0.0,0.0,0.0,0.0,0.0,0.0,0.0,0.0,0.0,2.0299,2.0124,1.9711,1.9708,1.9708,1.9708,1.9708,1.9708,1.9708,1.9708,1.9708,1.9708,1.9708,1.9708,1.9708,1.9708,1.9708,1.9708,1.9708,1.9708,1.9708,1.9708,1.9708,1.9708,1.9708,1.9708,1.9708,1.9708,1.9708,1.9708,1.9708,1.9708,1.9708,1.9708,1.9708,1.9708,1.9708,1.9708,1.9708,1.9708,1.9708,1.9708,1.9708,1.9708,1.9708,1.9708,1.9708,1.9708,1.9708,1.9708,1.9708,1.9708,1.9708,1.9708,1.9708,1.9708,1.9708,1.9708,1.9708,1.9708,1.9708,1.9708,1.9708,1.9708,1.9708,1.9708,1.9708,1.9708,1.9708,1.9708,1.9708,1.9708,1.9708,1.9708,1.9708,1.9708,1.9708,1.9708,1.9708,1.9708,1.9708,2.3528,2.4847,0.0,2.664,0.0,0.0,0.0,2.9162,0.0,0.0,2.9484,2.9076,2.8297,0.0,0.0,0.0,0.0,0.0,0.0,0.0,0.0,0.0,0.0,0.0,0.0,0.0,0.0,0.0,0.0,0.0,0.0,2.0634,2.0246,2.0124,1.9839,1.9708,1.9708,1.9708,1.9708,1.9708,1.9708,1.9708,1.9708,1.9708,1.9708,1.9708,1.9708,1.9708,1.9708,1.9708,1.9708,1.9708,1.9708,1.9708,1.9708,1.9708,1.9708,1.9708,1.9708,1.9708,1.9708,1.9708,1.9708,1.9708,1.9708,1.9708,1.9708,1.9708,1.9708,1.9708,1.9708,1.9708,1.9708,1.9708,1.9708,1.9708,1.9708,1.9708,1.9708,1.9708,1.9708,1.9708,1.9708,1.9708,1.9708,1.9708,1.9708,1.9708,1.9708,1.9708,1.9708,1.9708,1.9708,1.9708,1.9708,1.9708,1.9708,1.9708,1.9708,1.9708,1.9708,1.9708,1.9708,1.9708,1.9708,1.9708,1.9708,1.9708,1.9708,1.9708,1.9708,1.9708,2.4323,2.5456,0.0,2.7063,2.7841,2.8518,2.8518,0.0,0.0,0.0,2.8756,2.8383,2.7891,0.0,0.0,0.0,0.0,0.0,0.0,0.0,0.0,0.0,0.0,0.0,0.0,0.0,0.0,0.0,0.0,0.0,0.0,2.1023,2.0584,2.0072,1.9982,1.9856,1.9708,1.9708,1.9708,1.9708,1.9708,1.9708,1.9708,1.9708,1.9708,1.9708,1.9708,1.9708,1.9708,1.9708,1.9708,1.9708,1.9708,1.9708,1.9708,1.9708,1.9708,1.9708,1.9708,1.9708,1.9708,1.9708,1.9708,1.9708,1.9708,1.9708,1.9708,1.9708,1.9708,1.9708,1.9708,1.9708,1.9708,1.9708,1.9708,1.9708,1.9708,1.9708,1.9708,1.9708,1.9708,1.9708,1.9708,1.9708,1.9708,1.9708,1.9708,1.9708,1.9708,1.9708,1.9708,1.9708,1.9708,1.9708,1.9708,1.9708,1.9708,1.9708,1.9708,1.9708,1.9708,1.9708,1.9708,1.9708,1.9708,1.9708,1.9708,1.9708,1.9708,1.9708,1.9708,1.9708,2.5439,2.6133,2.6877,2.7621,2.7807,0.0,2.7807,2.8315,2.879,2.879,0.0,2.7705,0.0,0.0,0.0,0.0,0.0,0.0,0.0,0.0,0.0,0.0,0.0,0.0,0.0,0.0,0.0,0.0,0.0,0.0,0.0,2.1384,2.1007,1.9839,2.0089,2.007,1.9693,1.9708,1.9708,1.9708,1.9708,1.9708,1.9708,1.9708,1.9708,1.9708,1.9708,1.9708,1.9708,1.9708,1.9708,1.9708,1.9708,1.9708,1.9708,1.9708,1.9708,1.9708,1.9708,1.9708,1.9708,1.9708,1.9708,1.9708,1.9708,1.9708,1.9708,1.9708,1.9708,1.9708,1.9708,1.9708,1.9708,1.9708,1.9708,1.9708,1.9708,1.9708,1.9708,1.9708,1.9708,1.9708,1.9708,1.9708,1.9708,1.9708,1.9708,1.9708,1.9708,1.9708,1.9708,1.9708,1.9708,1.9708,1.9708,1.9708,1.9708,1.9708,1.9708,1.9708,1.9708,1.9708,1.9708,1.9708,1.9708,1.9708,1.9708,1.9708,1.9708,1.9708,1.9708,1.9708,2.571,2.6133,0.0,2.7621,2.7807,2.7807,2.7807,2.7486,2.7182,2.7182,2.7046,0.0,0.0,0.0,0.0,0.0,0.0,0.0,0.0,0.0,0.0,0.0,0.0,0.0,0.0,0.0,0.0,0.0,0.0,0.0,2.2034,2.1446,2.1007,2.0731,2.0139,1.9782,1.9708,1.9708,1.9708,0.0,1.9708,1.9708,1.9708,1.9708,1.9708,1.9708,1.9708,1.9708,1.9708,1.9708,1.9708,1.9708,1.9708,1.9708,1.9708,1.9708,1.9708,1.9708,1.9708,1.9708,1.9708,1.9708,1.9708,1.9708,1.9708,1.9708,1.9708,1.9708,1.9708,1.9708,1.9708,1.9708,1.9708,1.9708,1.9708,1.9708,1.9708,1.9708,1.9708,1.9708,1.9708,1.9708,1.9708,1.9708,1.9708,1.9708,1.9708,1.9708,1.9708,1.9708,1.9708,1.9708,1.9708,1.9708,1.9708,1.9708,1.9708,1.9708,1.9708,1.9708,1.9708,1.9708,1.9708,1.9708,1.9708,1.9708,1.9708,1.9708,1.9708,1.9708,1.9708,1.9708,2.6133,0.0,0.0,2.7182,0.0,2.7283,2.7283,2.6979,2.6691,2.6691,2.642,0.0,0.0,0.0,0.0,0.0,0.0,0.0,0.0,0.0,0.0,0.0,0.0,0.0,0.0,0.0,0.0,0.0,0.0,2.2194,2.1988,2.1538,2.1102,2.0682,2.0227,1.9892,1.9708,1.9708,1.9708,1.9708,1.9708,1.9708,1.9708,1.9708,1.9708,1.9708,1.9708,1.9708,1.9708,1.9708,1.9708,1.9708,1.9708,1.9708,1.9708,1.9708,1.9708,1.9708,1.9708,1.9708,1.9708,1.9708,1.9708,1.9708,1.9708,1.9708,1.9708,1.9708,1.9708,1.9708,1.9708,1.9708,1.9708,1.9708,1.9708,1.9708,1.9708,1.9708,1.9708,1.9708,1.9708,1.9708,1.9708,1.9708,1.9708,1.9708,1.9708,1.9708,1.9708,1.9708,1.9708,1.9708,1.9708,1.9708,1.9708,1.9708,1.9708,1.9708,1.9708,1.9708,1.9708,1.9708,1.9708,1.9708,1.9708,1.9708,1.9708,1.9708,1.9708,1.9708,1.9708,1.9708,2.6084,0.0,2.6539,2.6657,2.6691,0.0,2.6691,2.6691,2.6691,2.6691,0.0,0.0,0.0,0.0,0.0,0.0,0.0,0.0,0.0,0.0,0.0,0.0,0.0,0.0,0.0,0.0,0.0,0.0,0.0,2.212,2.1733,2.1627,2.1228,2.0449,2.0348,2.0106,1.9693,1.9708,1.9708,1.9708,1.9708,1.9708,1.9708,1.9708,1.9708,1.9708,1.9708,1.9708,1.9708,1.9708,1.9708,1.9708,1.9708,1.9708,1.9708,1.9708,1.9708,1.9708,1.9708,1.9708,1.9708,1.9708,1.9708,1.9708,1.9708,1.9708,1.9708,1.9708,1.9708,1.9708,1.9708,1.9708,1.9708,1.9708,1.9708,1.9708,1.9708,1.9708,1.9708,1.9708,1.9708,1.9708,1.9708,1.9708,1.9708,1.9708,1.9708,1.9708,1.9708,1.9708,1.9708,1.9708,1.9708,1.9708,1.9708,1.9708,1.9708,1.9708,1.9708,1.9708,1.9708,1.9708,1.9708,1.9708,1.9708,1.9708,1.9708,1.9708,1.9708,1.9708,1.9708,1.9708,2.4415,0.0,2.5896,0.0,2.6691,2.6691,0.0,0.0,2.6691,0.0,0.0,0.0,0.0,0.0,0.0,0.0,0.0,0.0,0.0,0.0,0.0,0.0,0.0,0.0,0.0,0.0,0.0,0.0,2.2296,2.2268,2.2209,2.1809,2.1384,2.0926,2.0516,2.0106,1.9693,1.9708,1.9708,1.9708,1.9708,1.9708,1.9708,1.9708,1.9708,1.9708,1.9708,1.9708,1.9708,1.9708,1.9708,1.9708,1.9708,1.9708,1.9708,1.9708,1.9708,1.9708,1.9708,1.9708,1.9708,1.9708,1.9708,1.9708,1.9708,1.9708,1.9708,1.9708,1.9708,1.9708,1.9708,1.9708,1.9708,1.9708,1.9708,1.9708,1.9708,1.9708,1.9708,1.9708,1.9708,1.9708,1.9708,1.9708,1.9708,1.9708,1.9708,1.9708,1.9708,1.9708,1.9708,1.9708,1.9708,1.9708,1.9708,1.9708,1.9708,1.9708,1.9708,1.9708,1.9708,1.9708,1.9708,1.9708,1.9708,1.9708,1.9708,1.9708,1.9708,1.9708,1.9708,1.9708,2.4924,2.5965,2.6911,0.0,2.7334,2.7215,2.6793,0.0,2.6691,0.0,0.0,0.0,0.0,0.0,0.0,0.0,0.0,0.0,0.0,0.0,0.0,0.0,0.0,0.0,0.0,0.0,0.0,0.0,2.2296,2.2296,2.2296,2.1853,2.1521,2.1337,2.0666,2.0227,2.0052,1.9803,1.9708,1.9708,1.9708,1.9708,1.9708,1.9708,1.9708,1.9708,1.9708,1.9708,1.9708,1.9708,1.9708,1.9708,1.9708,1.9708,1.9708,1.9708,1.9708,1.9708,1.9708,1.9708,1.9708,1.9708,1.9708,1.9708,1.9708,1.9708,1.9708,1.9708,1.9708,1.9708,1.9708,1.9708,1.9708,1.9708,1.9708,1.9708,1.9708,1.9708,1.9708,1.9708,1.9708,1.9603,1.9299,1.9497,1.9603,1.9299,1.9512,1.9708,1.9708,1.9708,1.9708,1.9708,1.9708,1.9708,1.9708,2.0034,2.0094,1.9723,2.0049,2.0094,1.9723,1.9708,1.9708,1.9708,1.9708,1.9708,1.9708,1.9708,1.9708,1.9708,1.9708,1.9708,0.0,0.0,2.7195,2.7688,2.7959,2.7909,0.0,0.0,0.0,0.0,0.0,0.0,0.0,0.0,0.0,0.0,0.0,0.0,0.0,0.0,0.0,0.0,0.0,0.0,0.0,0.0,0.0,0.0,2.2296,2.2296,2.2296,2.1974,2.1673,2.1445,2.083,2.0365,2.0158,1.9839,1.9708,1.9708,1.9708,1.9708,1.9708,1.9708,1.9708,1.9708,1.9708,1.9708,1.9708,1.9708,1.9708,1.9708,1.9708,1.9708,1.9708,1.9708,1.9708,1.9708,1.9708,1.9708,1.9708,1.9708,1.9708,1.9708,1.9708,1.9708,1.9708,1.9708,1.9708,1.9708,1.9708,1.9708,1.9708,1.9708,1.9708,1.9708,1.9708,1.9708,1.9708,1.9708,1.9708,1.9566,1.9169,1.9442,1.9566,1.9169,1.9442,1.9768,1.9929,1.9944,2.0022,2.0202,2.0217,2.0217,2.0217,2.0662,2.0737,2.0247,2.0677,2.0737,2.0232,2.0034,1.9944,1.9944,1.9798,1.9708,1.9708,1.9708,1.9708,1.9708,1.9708,1.9708,0.0,2.511,0.0,2.7365,2.8383,0.0,0.0,0.0,0.0,0.0,0.0,0.0,0.0,0.0,0.0,0.0,0.0,0.0,0.0,0.0,0.0,0.0,0.0,0.0,0.0,0.0,0.0,0.0,2.2296,2.2296,2.2296,2.2282,2.1886,2.1071,2.0991,2.0581,1.9729,1.9711,1.9708,1.9708,1.9708,1.9708,1.9708,1.9708,1.9708,1.9708,1.9708,1.9708,1.9708,1.9708,1.9708,1.9708,1.9708,1.9708,1.9708,1.9708,1.9708,1.9708,1.9708,1.9708,1.9708,1.9708,1.9708,1.9708,1.9708,1.9708,1.9708,1.9708,1.9708,1.9708,1.9708,1.9708,1.9708,1.9708,1.9708,1.9708,1.9708,1.9708,1.9708,1.9708,1.9708,1.969,1.9657,1.969,1.969,1.9657,1.969,1.9929,2.0554,2.0643,2.0882,2.153,2.159,2.159,2.159,2.162,2.162,2.159,2.162,2.162,2.159,2.0991,2.0643,2.0643,2.0019,1.9708,1.9708,1.9708,1.9708,1.9708,1.9708,1.9708,0.0,0.0,0.0,2.6341,2.7282,2.7724,2.7215,0.0,0.0,0.0,0.0,0.0,0.0,0.0,0.0,0.0,0.0,0.0,0.0,0.0,0.0,0.0,0.0,0.0,0.0,0.0,0.0,0.0,0.0,2.2296,2.2296,2.2296,2.2034,2.1399,2.1134,2.0582,1.9708,1.9708,1.9708,1.9708,1.9708,1.9708,1.9708,1.9708,1.9708,1.9708,1.9708,1.9708,1.9708,1.9708,1.9708,1.9708,1.9708,1.9708,1.9708,1.9708,1.9708,1.9708,1.9708,1.9708,1.9708,1.9708,1.9708,1.9708,1.9708,1.9708,1.9708,1.9708,1.9708,1.9708,1.9708,1.9708,1.9708,1.9708,1.9708,1.9708,1.9708,1.9708,1.9708,1.9708,1.9424,1.908,1.8727,1.8968,1.9062,1.8708,1.9644,2.0438,2.0658,2.1081,2.144,2.1665,2.1695,2.1695,2.1695,2.2084,2.2164,2.1724,2.2104,2.1969,2.1077,2.0823,2.0513,2.0064,1.9828,1.9708,1.9708,1.9708,1.9708,1.9708,1.9708,1.9708,2.1989,0.0,0.0,0.0,0.0,2.6984,2.7153,0.0,0.0,0.0,0.0,0.0,0.0,0.0,0.0,0.0,0.0,0.0,0.0,0.0,0.0,0.0,0.0,0.0,0.0,0.0,0.0,0.0,0.0,0.0,2.2296,2.2149,2.1779,2.1181,2.0764,2.0294,1.9708,1.9708,1.9708,1.9708,1.9708,1.9708,1.9708,1.9708,1.9708,1.9708,1.9708,1.9708,1.9708,1.9708,1.9708,1.9708,1.9708,1.9708,1.9708,1.9708,1.9708,1.9708,1.9708,1.9708,1.9708,1.9708,1.9708,1.9708,1.9708,1.9708,1.9708,1.9708,1.9708,1.9708,1.9708,1.9708,1.9708,1.9708,1.9708,1.9708,1.9708,1.9708,1.9708,1.9708,1.9406,1.9006,1.8458,1.8817,1.8987,1.8458,1.9511,2.0453,2.0658,2.1291,2.1784,2.1994,2.2218,2.2338,2.2338,2.2763,2.2733,2.2089,2.2448,2.2209,2.1077,2.0823,2.0498,2.0034,1.9813,1.9708,1.9708,1.9708,1.9708,1.9708,1.9708,1.9708,0.0,0.0,0.0,0.0,0.0,0.0,2.7816,0.0,0.0,0.0,0.0,0.0,0.0,0.0,0.0,0.0,0.0,0.0,0.0,0.0,0.0,0.0,0.0,0.0,0.0,0.0,0.0,0.0,2.2296,2.2296,2.2296,2.1838,2.1197,2.0331,1.9909,1.9708,1.9708,1.9708,1.9708,1.9708,1.9708,1.9708,1.9708,1.9708,1.9708,1.9708,1.9708,1.9708,1.9708,1.9708,1.9708,1.9708,1.9708,1.9708,1.9708,1.9708,1.9708,1.9708,1.9708,1.9708,1.9708,1.9708,1.9708,1.9708,1.9708,1.9708,1.9708,1.9708,1.9708,1.9708,1.9708,1.9708,1.9708,1.9708,1.9708,1.9708,1.9708,1.9708,1.9708,1.9708,1.969,1.9512,1.8987,1.9347,1.9527,1.8987,1.9413,2.0022,2.0643,2.1321,2.1984,2.2628,2.3206,2.3565,2.3565,2.3565,2.331,2.2733,2.2688,2.2373,2.1695,2.1051,2.0688,2.0658,2.0034,1.9708,1.9708,1.9711,1.9711,1.9711,1.9711,1.9711,2.0143,0.0,0.0,0.0,0.0,0.0,0.0,0.0,0.0,0.0,0.0,0.0,0.0,0.0,0.0,0.0,0.0,0.0,0.0,0.0,0.0,0.0,0.0,0.0,0.0,0.0,0.0,0.0,2.2296,2.2296,2.2296,2.1584,2.0894,2.0314,1.9909,1.9708,1.9708,1.9708,1.9708,1.9708,1.9708,1.9708,1.9708,1.9708,1.9708,1.9708,1.9708,1.9708,1.9708,1.9708,1.9708,1.9708,1.9708,1.9708,1.9708,1.9708,1.9708,1.9708,1.9708,1.9708,1.9708,1.9708,1.9708,1.9708,1.9708,1.9708,1.9708,1.9708,1.9708,1.9708,1.9708,1.9708,1.9708,1.9708,1.9708,1.9708,1.9708,1.9708,1.9708,1.9708,1.9387,1.9062,1.893,1.943,1.9628,1.9003,2.0578,2.1759,2.1455,2.1994,2.2493,2.2673,2.2853,2.2957,2.2957,2.2957,2.2882,2.2703,2.2254,2.168,2.1006,2.0793,2.0483,1.9989,1.9779,1.9708,1.9708,2.0,2.0141,2.0141,2.0141,1.9982,2.0075,2.0401,0.0,0.0,0.0,0.0,0.0,2.4572,0.0,0.0,0.0,0.0,0.0,0.0,0.0,0.0,0.0,0.0,0.0,0.0,0.0,0.0,0.0,0.0,0.0,2.2482,2.2296,2.2296,2.2296,2.2209,2.2017,2.1369,2.078,2.0314,1.9909,1.9708,1.9708,1.9708,1.9708,1.9708,1.9708,1.9708,1.9708,1.9708,1.9708,1.9708,1.9708,1.9708,1.9708,1.9708,1.9708,1.9708,1.9708,1.9708,1.9708,1.9708,1.9708,1.9708,1.9708,1.9708,1.9708,1.9708,1.9708,1.9708,1.9708,1.9708,1.9708,1.9708,1.9708,1.9708,1.9708,1.9708,1.9708,1.9708,1.9708,1.9708,1.9708,1.9708,1.9708,1.9708,1.9442,1.9169,1.8949,1.9415,1.9603,1.8988,2.0361,2.131,2.0921,2.1699,2.2179,2.1889,2.2373,2.2583,2.2313,2.2283,2.2164,2.1874,2.15,2.0976,2.0318,2.0288,2.0094,1.9708,1.9708,1.9889,2.0243,2.0278,2.0297,2.0297,2.0297,2.0072,2.0458,2.0698,0.0,0.0,0.0,0.0,2.4477,2.456,2.4485,0.0,0.0,0.0,0.0,0.0,0.0,0.0,0.0,0.0,0.0,0.0,0.0,0.0,0.0,0.0,2.3342,2.2818,2.2381,2.2296,2.2296,2.2106,2.1628,2.1213,2.078,2.0314,1.9909,1.9708,1.9708,1.9708,1.9708,1.9708,1.9708,1.9708,1.9708,1.9708,1.9708,1.9708,1.9708,1.9708,1.9708,1.9708,1.9708,1.9708,1.9708,1.9708,1.9708,1.9708,1.9708,1.9708,1.9708,1.9708,1.9708,1.9708,1.9708,1.9708,1.9708,1.9708,1.9708,1.9708,1.9708,1.9708,1.9708,1.9708,1.9708,1.9708,1.9708,1.9708,1.9708,1.9708,1.9708,1.9708,1.9708,1.9548,1.9062,1.9446,1.9604,1.9076,1.9524,1.9902,1.9828,2.0842,2.1395,2.0872,2.1874,2.2358,2.1739,2.1695,2.141,2.0733,2.0628,2.0318,1.9723,1.9708,1.9708,1.9708,1.9708,2.0137,2.0991,2.0633,2.0417,2.0382,2.0417,2.021,1.9957,2.0692,2.1244,2.0481,0.0,0.0,2.1744,2.1948,2.2304,0.0,0.0,0.0,0.0,0.0,0.0,0.0,0.0,0.0,0.0,0.0,0.0,0.0,0.0,0.0,2.3427,2.3274,2.2936,2.233,2.2296,2.2106,2.1628,2.1213,2.078,2.0314,1.9909,1.9708,1.9708,1.9708,1.9708,1.9708,1.9708,1.9708,1.9708,1.9708,1.9708,1.9708,1.9708,1.9708,1.9708,1.9708,1.9708,1.9708,1.9708,1.9708,1.9708,1.9708,1.9708,1.9708,1.9708,1.9708,1.9708,1.9708,1.9708,1.9708,1.9708,1.9708,1.9708,1.9708,1.9708,1.9708,1.9708,1.9708,1.9708,1.9708,1.9708,1.9708,1.9708,1.9708,1.9708,1.9708,1.9708,1.9672,1.9566,2.0083,2.0296,1.9641,2.0546,2.1111,2.0554,2.0718,2.1051,2.1455,2.1739,2.1829,2.171,2.1695,2.141,2.0733,2.0183,1.9842,1.9708,1.9708,1.9708,1.9708,1.9708,2.0137,2.0991,2.1228,2.1181,2.0878,2.1213,2.0927,2.0241,2.0731,2.1128,2.0779,0.0,0.0,0.0,2.1003,2.1064,2.2007,0.0,0.0,0.0,0.0,0.0,0.0,0.0,0.0,0.0,0.0,0.0,0.0,0.0,0.0,2.4509,2.4154,2.3644,2.2902,2.2513,2.2194,2.1957,2.1354,2.0894,2.0649,2.0032,1.9708,1.9708,1.9708,1.9708,1.9708,1.9708,1.9708,1.9708,1.9708,1.9708,1.9708,1.9708,1.9708,1.9708,1.9708,1.9708,1.9708,1.9708,1.9708,1.9708,1.9708,1.9708,1.9708,1.9708,1.9708,1.9708,1.9708,1.9708,1.9708,1.9708,1.9708,1.9708,1.9708,1.9708,1.9708,1.9708,1.9708,1.9708,1.9708,1.9708,1.9708,1.9708,1.9708,1.9708,1.9708,1.9708,1.9708,1.9708,2.0258,2.0583,2.0243,2.1051,2.1575,2.1246,2.1485,2.1575,2.1246,2.15,2.1425,2.0771,2.1006,2.0917,2.0243,2.0198,2.0049,1.9708,1.9708,1.9708,1.9708,1.9909,2.021,2.0649,2.129,2.1491,2.1291,2.1291,2.1071,0.0,0.0,0.0,0.0,0.0,2.1178,0.0,0.0,0.0,2.1723,0.0,0.0,0.0,0.0,0.0,0.0,0.0,0.0,0.0,0.0,0.0,0.0,0.0,0.0,0.0,2.4724,2.4099,2.351,2.2876,2.2499,2.2499,2.1543,2.0991,2.0991,2.0139,1.9708,1.9708,1.9708,1.9708,1.9708,1.9708,1.9708,1.9708,1.9708,1.9708,1.9708,1.9708,1.9708,1.9708,1.9708,1.9708,1.9708,1.9708,1.9708,1.9708,1.9708,1.9708,1.9708,1.9708,1.9708,1.9708,1.9708,1.9708,1.9708,1.9708,1.9708,1.9708,1.9708,1.9708,1.9708,1.9708,1.9708,1.9708,1.9708,1.9708,1.9708,1.9708,1.9708,1.9738,1.9872,1.9902,1.9839,1.9723,2.0258,2.0703,2.0703,2.1276,2.1695,2.1695,2.2179,2.2104,2.1002,2.138,2.1261,2.0187,2.0468,2.0483,1.9932,2.0288,2.0258,1.9723,1.9708,1.9708,1.9708,2.0017,2.0212,2.0297,2.1023,2.1399,2.1476,2.1306,2.1197,0.0,0.0,0.0,0.0,2.1214,0.0,0.0,0.0,2.1075,1.9632,0.0,0.0,0.0,0.0,0.0,0.0,0.0,0.0,0.0,0.0,0.0,0.0,0.0,0.0,0.0,2.3978,2.3753,2.3671,2.342,2.3274,2.3274,2.182,2.0991,2.0991,2.0139,1.9708,1.9708,1.9708,1.9708,1.9708,1.9708,1.9708,1.9708,1.9708,1.9708,1.9708,1.9708,1.9708,1.9708,1.9708,1.9708,1.9708,1.9708,1.9708,1.9708,1.9708,1.9708,1.9708,1.9708,1.9708,1.9708,1.9708,1.9708,1.9708,1.9708,1.9708,1.9708,1.9708,1.9708,1.9708,1.9708,1.9708,1.9708,1.9708,1.9708,1.9708,1.9708,1.9708,1.9887,2.0483,2.0583,2.0408,1.9813,2.0258,2.0703,2.0703,2.1276,2.1695,2.1695,2.1754,2.1754,2.1605,2.165,2.1635,2.1485,2.1006,2.0658,2.0583,2.0094,1.9783,1.9708,1.9708,1.9708,1.9708,1.9747,1.9929,2.0297,2.0399,2.0666,2.1086,2.1811,2.193,0.0,0.0,0.0,0.0,0.0,0.0,1.9534,0.0,1.9265,0.0,0.0,0.0,0.0,0.0,0.0,0.0,0.0,0.0,0.0,0.0,0.0,0.0,0.0,0.0,0.0,0.0,0.0,0.0,2.3244,2.2716,2.298,2.1842,2.1007,2.0615,2.0,1.9708,1.9708,1.9708,1.9708,1.9708,1.9708,1.9708,1.9708,1.9708,1.9708,1.9708,1.9708,1.9708,1.9708,1.9708,1.9708,1.9708,1.9708,1.9708,1.9708,1.9708,1.9708,1.9708,1.9708,1.9708,1.9708,1.9708,1.9708,1.9708,1.9708,1.9708,1.9708,1.9708,1.9708,1.9708,1.9708,1.9708,1.9708,1.9708,1.9708,1.9813,2.0198,1.9974,1.9884,2.0554,2.0703,2.0498,1.9828,2.0572,2.1276,2.1276,2.1515,2.1829,2.2239,2.1934,2.1545,2.1171,2.1126,2.0961,2.0576,2.0647,2.0524,2.0139,1.9872,1.9708,1.9708,1.9708,1.9708,1.9708,1.9708,1.9782,1.9947,2.0193,2.0399,2.06,2.126,2.1584,1.9585,0.0,0.0,0.0,0.0,0.0,0.0,0.0,0.0,0.0,0.0,0.0,0.0,0.0,0.0,0.0,0.0,0.0,0.0,0.0,0.0,0.0,0.0,0.0,0.0,0.0,0.0,0.0,0.0,2.2534,2.3063,2.1948,2.1087,2.0591,2.0,1.9708,1.9708,1.9708,1.9708,1.9708,1.9708,1.9708,1.9708,1.9708,1.9708,1.9708,1.9708,1.9708,1.9708,1.9708,1.9708,1.9708,1.9708,1.9708,1.9708,1.9708,1.9708,1.9708,1.9708,1.9708,1.9708,1.9708,1.9708,1.9708,1.9708,1.9708,1.9708,1.9708,1.9708,1.9708,1.9708,1.9708,1.9708,1.9708,1.9708,1.9869,2.0572,2.0318,2.0168,2.0838,2.0957,2.0767,2.0094,2.0917,2.1635,2.1455,2.1575,2.1874,2.2358,2.1994,2.144,2.0763,2.0703,2.0513,2.0022,2.0258,2.0228,1.9738,1.9708,1.9708,1.9708,1.9708,1.9708,1.9708,1.9708,1.9708,1.9708,2.0,2.0141,2.0158,2.083,2.1322,0.0,0.0,0.0,1.8367,0.0,0.0,0.0,0.0,1.8807,0.0,0.0,0.0,0.0,0.0,0.0,0.0,0.0,0.0,0.0,0.0,0.0,0.0,0.0,0.0,0.0,0.0,0.0,0.0,0.0,0.0,2.401,2.2305,2.1303,2.1272,2.0243,1.9708,1.9708,1.9708,1.9708,1.9708,1.9708,1.9708,1.9708,1.9708,1.9708,1.9708,1.9708,1.9708,1.9708,1.9708,1.9708,1.9708,1.9708,1.9708,1.9708,1.9708,1.9708,1.9708,1.9708,1.9708,1.9708,1.9708,1.9708,1.9708,1.9708,1.9708,1.9708,1.9708,1.9708,1.9708,1.9708,1.9708,1.9708,1.9708,1.9708,1.9869,2.0572,2.0673,2.0872,2.1545,2.1665,2.1455,2.0778,2.1246,2.1485,2.0823,2.1291,2.171,2.1724,2.171,2.144,2.0763,2.0703,2.0688,2.0658,2.0094,1.9723,1.9708,1.9708,1.9708,1.9708,1.9708,1.9708,1.9708,1.9708,1.9708,1.9708,1.9711,1.9711,1.9747,2.1007,2.1582,0.0,0.0,1.8355,1.7802,0.0,0.0,0.0,0.0,0.0,0.0,0.0,0.0,0.0,0.0,0.0,0.0,0.0,0.0,0.0,0.0,0.0,0.0,0.0,0.0,0.0,0.0,0.0,0.0,2.2624,0.0,0.0,2.2317,2.1375,2.0921,2.0125,1.9708,1.9708,1.9708,1.9708,1.9708,1.9708,1.9708,1.9708,1.9708,1.9708,1.9708,1.9708,1.9708,1.9708,1.9708,1.9708,1.9708,1.9708,1.9708,1.9708,1.9708,1.9708,1.9708,1.9708,1.9708,1.9708,1.9708,1.9708,1.9708,1.9708,1.9708,1.9708,1.9708,1.9708,1.9708,1.9708,1.9708,1.9708,1.9708,1.9708,1.9869,2.0572,2.0363,2.0243,2.0917,2.1051,2.0842,2.0154,2.0602,2.0957,2.0733,2.0513,2.0528,2.0991,2.0647,2.0288,2.0049,2.0034,2.0034,2.0034,1.9842,1.9708,1.9708,1.9708,1.9708,1.9708,1.9708,1.9708,1.9708,1.9708,1.9708,1.9708,1.9708,1.9708,1.9726,2.0416,2.091,1.7915,1.7915,0.0,1.7212,1.7247,0.0,1.7124,0.0,0.0,0.0,0.0,0.0,0.0,0.0,0.0,0.0,0.0,0.0,0.0,0.0,0.0,0.0,0.0,0.0,0.0,0.0,2.1039,2.2677,0.0,0.0,0.0,0.0,2.15,2.1062,2.0168,1.9708,1.9708,1.9708,1.9708,1.9708,1.9708,1.9708,1.9708,1.9708,1.9708,1.9708,1.9708,1.9708,1.9708,1.9708,1.9708,1.9708,1.9708,1.9708,1.9708,1.9708,1.9708,1.9708,1.9708,1.9708,1.9708,1.9708,1.9708,1.9708,1.9708,1.9708,1.9708,1.9708,1.9708,1.9708,1.9708,1.9708,1.9708,1.9708,1.9708,1.9869,2.0572,2.0543,2.0528,2.0976,2.1261,2.1126,2.0213,2.0423,2.0613,2.0378,1.9974,1.9872,2.0288,1.9959,1.9708,1.9708,1.9708,1.9708,1.9708,1.9708,1.9708,1.9708,1.9708,1.9708,1.9708,1.9708,1.9708,1.9708,1.9708,1.9708,1.9708,1.9708,1.9708,1.9708,1.9965,2.033]}]]